Wetterdaten: Donnerstag, 28.05.2020
Datum Zeit Temp. 2m Temp +5 cm Feuchte A. Luftdruck Regen Wind Richtung Richtung Sonnenschein UV Solar Taupunkt Windchill Windben
28.05.2020 00:00 12,5 C 9,4 C 74 % 1033,1 hPa 0,0 l/m 3,2 km/h (1 Bft) NW 315 0 min 0,0 UV-I 0 W/m 8,0 C 12,5 C 8,0 km/h (2 Bft)
28.05.2020 00:01 12,5 C 9,4 C 74 % 1033,2 hPa 0,0 l/m 6,4 km/h (2 Bft) N-NW 337 0 min 0,0 UV-I 0 W/m 8,0 C 12,5 C 9,7 km/h (2 Bft)
28.05.2020 00:02 12,6 C 9,4 C 74 % 1033,2 hPa 0,0 l/m 6,4 km/h (2 Bft) N-NW 337 0 min 0,0 UV-I 0 W/m 8,1 C 12,6 C 8,0 km/h (2 Bft)
28.05.2020 00:03 12,6 C 10,0 C 74 % 1033,1 hPa 0,0 l/m 4,8 km/h (1 Bft) NW 315 0 min 0,0 UV-I 0 W/m 8,1 C 12,6 C 6,4 km/h (2 Bft)
28.05.2020 00:04 12,6 C 10,0 C 74 % 1033,2 hPa 0,0 l/m 3,2 km/h (1 Bft) N-NW 337 0 min 0,0 UV-I 0 W/m 8,1 C 12,6 C 4,8 km/h (1 Bft)
28.05.2020 00:05 12,6 C 9,4 C 74 % 1033,2 hPa 0,0 l/m 4,8 km/h (1 Bft) N-NW 337 0 min 0,0 UV-I 0 W/m 8,1 C 12,6 C 6,4 km/h (2 Bft)
28.05.2020 00:06 12,6 C 10,0 C 74 % 1033,2 hPa 0,0 l/m 4,8 km/h (1 Bft) N-NW 337 0 min 0,0 UV-I 0 W/m 8,1 C 12,6 C 8,0 km/h (2 Bft)
28.05.2020 00:07 12,6 C 10,0 C 74 % 1033,2 hPa 0,0 l/m 3,2 km/h (1 Bft) N-NW 337 0 min 0,0 UV-I 0 W/m 8,1 C 12,6 C 6,4 km/h (2 Bft)
28.05.2020 00:08 12,6 C 10,0 C 74 % 1033,1 hPa 0,0 l/m 4,8 km/h (1 Bft) N-NW 337 0 min 0,0 UV-I 0 W/m 8,1 C 12,6 C 6,4 km/h (2 Bft)
28.05.2020 00:09 12,6 C 10,0 C 74 % 1033,2 hPa 0,0 l/m 3,2 km/h (1 Bft) N-NW 337 0 min 0,0 UV-I 0 W/m 8,1 C 12,6 C 4,8 km/h (1 Bft)
28.05.2020 00:10 12,5 C 10,0 C 74 % 1033,2 hPa 0,0 l/m 4,8 km/h (1 Bft) N-NO 22 0 min 0,0 UV-I 0 W/m 8,0 C 12,5 C 6,4 km/h (2 Bft)
28.05.2020 00:11 12,5 C 9,4 C 74 % 1033,2 hPa 0,0 l/m 6,4 km/h (2 Bft) N 360 0 min 0,0 UV-I 0 W/m 8,0 C 12,5 C 8,0 km/h (2 Bft)
28.05.2020 00:12 12,4 C 9,4 C 74 % 1033,2 hPa 0,0 l/m 6,4 km/h (2 Bft) N 360 0 min 0,0 UV-I 0 W/m 7,9 C 12,4 C 8,0 km/h (2 Bft)
28.05.2020 00:13 12,4 C 9,4 C 74 % 1033,2 hPa 0,0 l/m 6,4 km/h (2 Bft) N-NW 337 0 min 0,0 UV-I 0 W/m 7,9 C 12,4 C 8,0 km/h (2 Bft)
28.05.2020 00:14 12,3 C 9,4 C 74 % 1033,1 hPa 0,0 l/m 3,2 km/h (1 Bft) N-NW 337 0 min 0,0 UV-I 0 W/m 7,8 C 12,3 C 4,8 km/h (1 Bft)
28.05.2020 00:15 12,3 C 9,4 C 74 % 1033,1 hPa 0,0 l/m 4,8 km/h (1 Bft) N-NW 337 0 min 0,0 UV-I 0 W/m 7,8 C 12,3 C 6,4 km/h (2 Bft)
28.05.2020 00:16 12,3 C 9,4 C 75 % 1033,1 hPa 0,0 l/m 6,4 km/h (2 Bft) N-NW 337 0 min 0,0 UV-I 0 W/m 8,0 C 12,3 C 9,7 km/h (2 Bft)
28.05.2020 00:17 12,3 C 9,4 C 75 % 1033,2 hPa 0,0 l/m 3,2 km/h (1 Bft) NW 315 0 min 0,0 UV-I 0 W/m 8,0 C 12,3 C 3,2 km/h (1 Bft)
28.05.2020 00:18 12,3 C 9,4 C 75 % 1033,1 hPa 0,0 l/m 6,4 km/h (2 Bft) N-NW 337 0 min 0,0 UV-I 0 W/m 8,0 C 12,3 C 9,7 km/h (2 Bft)
28.05.2020 00:19 12,3 C 9,4 C 74 % 1033,2 hPa 0,0 l/m 4,8 km/h (1 Bft) N 360 0 min 0,0 UV-I 0 W/m 7,8 C 12,3 C 12,9 km/h (3 Bft)
28.05.2020 00:20 12,3 C 9,4 C 74 % 1033,1 hPa 0,0 l/m 6,4 km/h (2 Bft) N 360 0 min 0,0 UV-I 0 W/m 7,8 C 12,3 C 12,9 km/h (3 Bft)
28.05.2020 00:21 12,3 C 10,0 C 74 % 1033,1 hPa 0,0 l/m 4,8 km/h (1 Bft) N 360 0 min 0,0 UV-I 0 W/m 7,8 C 12,3 C 12,9 km/h (3 Bft)
28.05.2020 00:22 12,4 C 10,0 C 74 % 1033,1 hPa 0,0 l/m 4,8 km/h (1 Bft) N 360 0 min 0,0 UV-I 0 W/m 7,9 C 12,4 C 9,7 km/h (2 Bft)
28.05.2020 00:23 12,4 C 10,0 C 74 % 1033,1 hPa 0,0 l/m 1,6 km/h (1 Bft) N 360 0 min 0,0 UV-I 0 W/m 7,9 C 12,4 C 3,2 km/h (1 Bft)
28.05.2020 00:24 12,3 C 9,4 C 74 % 1033,1 hPa 0,0 l/m 4,8 km/h (1 Bft) N 360 0 min 0,0 UV-I 0 W/m 7,8 C 12,3 C 8,0 km/h (2 Bft)
28.05.2020 00:25 12,3 C 9,4 C 74 % 1033,1 hPa 0,0 l/m 4,8 km/h (1 Bft) N-NW 337 0 min 0,0 UV-I 0 W/m 7,8 C 12,3 C 8,0 km/h (2 Bft)
28.05.2020 00:26 12,3 C 9,4 C 74 % 1033,1 hPa 0,0 l/m 4,8 km/h (1 Bft) N-NW 337 0 min 0,0 UV-I 0 W/m 7,8 C 12,3 C 12,9 km/h (3 Bft)
28.05.2020 00:27 12,3 C 9,4 C 74 % 1033,2 hPa 0,0 l/m 3,2 km/h (1 Bft) N-NW 337 0 min 0,0 UV-I 0 W/m 7,8 C 12,3 C 6,4 km/h (2 Bft)
28.05.2020 00:28 12,3 C 9,4 C 74 % 1033,1 hPa 0,0 l/m 4,8 km/h (1 Bft) NW 315 0 min 0,0 UV-I 0 W/m 7,8 C 12,3 C 8,0 km/h (2 Bft)
28.05.2020 00:29 12,3 C 9,4 C 74 % 1033,1 hPa 0,0 l/m 4,8 km/h (1 Bft) N-NW 337 0 min 0,0 UV-I 0 W/m 7,8 C 12,3 C 6,4 km/h (2 Bft)
28.05.2020 00:30 12,3 C 9,4 C 74 % 1033,0 hPa 0,0 l/m 3,2 km/h (1 Bft) N-NW 337 0 min 0,0 UV-I 0 W/m 7,8 C 12,3 C 9,7 km/h (2 Bft)
28.05.2020 00:31 12,3 C 9,4 C 74 % 1033,1 hPa 0,0 l/m 4,8 km/h (1 Bft) N-NW 337 0 min 0,0 UV-I 0 W/m 7,8 C 12,3 C 6,4 km/h (2 Bft)
28.05.2020 00:32 12,2 C 9,4 C 74 % 1033,1 hPa 0,0 l/m 1,6 km/h (1 Bft) N-NW 337 0 min 0,0 UV-I 0 W/m 7,7 C 12,2 C 4,8 km/h (1 Bft)
28.05.2020 00:33 12,2 C 8,9 C 74 % 1033,1 hPa 0,0 l/m 3,2 km/h (1 Bft) N-NW 337 0 min 0,0 UV-I 0 W/m 7,7 C 12,2 C 4,8 km/h (1 Bft)
28.05.2020 00:34 12,2 C 8,9 C 75 % 1033,1 hPa 0,0 l/m 3,2 km/h (1 Bft) N-NW 337 0 min 0,0 UV-I 0 W/m 7,9 C 12,2 C 8,0 km/h (2 Bft)
28.05.2020 00:35 12,2 C 8,9 C 75 % 1033,1 hPa 0,0 l/m 4,8 km/h (1 Bft) NW 315 0 min 0,0 UV-I 0 W/m 7,9 C 12,2 C 8,0 km/h (2 Bft)
28.05.2020 00:36 12,2 C 8,9 C 75 % 1033,2 hPa 0,0 l/m 3,2 km/h (1 Bft) N-NW 337 0 min 0,0 UV-I 0 W/m 7,9 C 12,2 C 6,4 km/h (2 Bft)
28.05.2020 00:37 12,3 C 9,4 C 75 % 1033,2 hPa 0,0 l/m 1,6 km/h (1 Bft) NW 315 0 min 0,0 UV-I 0 W/m 8,0 C 12,3 C 4,8 km/h (1 Bft)
28.05.2020 00:38 12,3 C 9,4 C 74 % 1033,2 hPa 0,0 l/m 3,2 km/h (1 Bft) N 360 0 min 0,0 UV-I 0 W/m 7,8 C 12,3 C 6,4 km/h (2 Bft)
28.05.2020 00:39 12,3 C 8,9 C 74 % 1033,2 hPa 0,0 l/m 4,8 km/h (1 Bft) N 360 0 min 0,0 UV-I 0 W/m 7,8 C 12,3 C 8,0 km/h (2 Bft)
28.05.2020 00:40 12,3 C 9,4 C 74 % 1033,1 hPa 0,0 l/m 6,4 km/h (2 Bft) N 360 0 min 0,0 UV-I 0 W/m 7,8 C 12,3 C 8,0 km/h (2 Bft)
28.05.2020 00:41 12,2 C 9,4 C 74 % 1033,1 hPa 0,0 l/m 4,8 km/h (1 Bft) N 360 0 min 0,0 UV-I 0 W/m 7,7 C 12,2 C 8,0 km/h (2 Bft)
28.05.2020 00:42 12,1 C 9,4 C 75 % 1033,2 hPa 0,0 l/m 3,2 km/h (1 Bft) N 360 0 min 0,0 UV-I 0 W/m 7,8 C 12,1 C 4,8 km/h (1 Bft)
28.05.2020 00:43 12,1 C 8,9 C 75 % 1033,1 hPa 0,0 l/m 6,4 km/h (2 Bft) N 360 0 min 0,0 UV-I 0 W/m 7,8 C 12,1 C 12,9 km/h (3 Bft)
28.05.2020 00:44 12,1 C 9,4 C 75 % 1033,1 hPa 0,0 l/m 4,8 km/h (1 Bft) N-NW 337 0 min 0,0 UV-I 0 W/m 7,8 C 12,1 C 8,0 km/h (2 Bft)
28.05.2020 00:45 12,0 C 9,4 C 75 % 1033,2 hPa 0,0 l/m 3,2 km/h (1 Bft) N 360 0 min 0,0 UV-I 0 W/m 7,7 C 12,0 C 4,8 km/h (1 Bft)
28.05.2020 00:46 11,9 C 8,9 C 76 % 1033,2 hPa 0,0 l/m 4,8 km/h (1 Bft) N 360 0 min 0,0 UV-I 0 W/m 7,8 C 11,9 C 6,4 km/h (2 Bft)
28.05.2020 00:47 11,9 C 8,9 C 75 % 1033,2 hPa 0,0 l/m 6,4 km/h (2 Bft) N 360 0 min 0,0 UV-I 0 W/m 7,6 C 11,9 C 12,9 km/h (3 Bft)
28.05.2020 00:48 11,8 C 8,9 C 75 % 1033,1 hPa 0,0 l/m 6,4 km/h (2 Bft) N-NW 337 0 min 0,0 UV-I 0 W/m 7,5 C 11,8 C 9,7 km/h (2 Bft)
28.05.2020 00:49 11,8 C 9,4 C 76 % 1033,2 hPa 0,0 l/m 6,4 km/h (2 Bft) N-NW 337 0 min 0,0 UV-I 0 W/m 7,7 C 11,8 C 11,3 km/h (2 Bft)
28.05.2020 00:50 11,9 C 9,4 C 76 % 1033,1 hPa 0,0 l/m 6,4 km/h (2 Bft) N-NW 337 0 min 0,0 UV-I 0 W/m 7,8 C 11,9 C 9,7 km/h (2 Bft)
28.05.2020 00:51 11,8 C 9,4 C 76 % 1033,1 hPa 0,0 l/m 6,4 km/h (2 Bft) N 360 0 min 0,0 UV-I 0 W/m 7,7 C 11,8 C 8,0 km/h (2 Bft)
28.05.2020 00:52 11,8 C 9,4 C 76 % 1033,1 hPa 0,0 l/m 6,4 km/h (2 Bft) N 360 0 min 0,0 UV-I 0 W/m 7,7 C 11,8 C 8,0 km/h (2 Bft)
28.05.2020 00:53 11,8 C 9,4 C 76 % 1033,2 hPa 0,0 l/m 3,2 km/h (1 Bft) N 360 0 min 0,0 UV-I 0 W/m 7,7 C 11,8 C 6,4 km/h (2 Bft)
28.05.2020 00:54 11,7 C 8,9 C 76 % 1033,2 hPa 0,0 l/m 6,4 km/h (2 Bft) N 360 0 min 0,0 UV-I 0 W/m 7,6 C 11,7 C 11,3 km/h (2 Bft)
28.05.2020 00:55 11,7 C 8,9 C 76 % 1033,2 hPa 0,0 l/m 8,0 km/h (2 Bft) N 360 0 min 0,0 UV-I 0 W/m 7,6 C 10,6 C 11,3 km/h (2 Bft)
28.05.2020 00:56 11,7 C 8,9 C 77 % 1033,2 hPa 0,0 l/m 8,0 km/h (2 Bft) N 360 0 min 0,0 UV-I 0 W/m 7,8 C 10,6 C 9,7 km/h (2 Bft)
28.05.2020 00:57 11,7 C 8,9 C 77 % 1033,1 hPa 0,0 l/m 6,4 km/h (2 Bft) N 360 0 min 0,0 UV-I 0 W/m 7,8 C 11,7 C 8,0 km/h (2 Bft)
28.05.2020 00:58 11,7 C 9,4 C 77 % 1033,2 hPa 0,0 l/m 4,8 km/h (1 Bft) N 360 0 min 0,0 UV-I 0 W/m 7,8 C 11,7 C 9,7 km/h (2 Bft)
28.05.2020 00:59 11,7 C 9,4 C 77 % 1033,1 hPa 0,0 l/m 6,4 km/h (2 Bft) N 360 0 min 0,0 UV-I 0 W/m 7,8 C 11,7 C 8,0 km/h (2 Bft)
28.05.2020 01:00 11,7 C 8,9 C 77 % 1033,2 hPa 0,0 l/m 6,4 km/h (2 Bft) N 360 0 min 0,0 UV-I 0 W/m 7,8 C 11,7 C 8,0 km/h (2 Bft)
28.05.2020 01:01 11,7 C 9,4 C 77 % 1033,1 hPa 0,0 l/m 6,4 km/h (2 Bft) N 360 0 min 0,0 UV-I 0 W/m 7,8 C 11,7 C 8,0 km/h (2 Bft)
28.05.2020 01:02 11,6 C 8,9 C 77 % 1033,2 hPa 0,0 l/m 6,4 km/h (2 Bft) N 360 0 min 0,0 UV-I 0 W/m 7,7 C 11,6 C 8,0 km/h (2 Bft)
28.05.2020 01:03 11,6 C 8,9 C 77 % 1033,2 hPa 0,0 l/m 4,8 km/h (1 Bft) N 360 0 min 0,0 UV-I 0 W/m 7,7 C 11,6 C 6,4 km/h (2 Bft)
28.05.2020 01:04 11,5 C 8,9 C 77 % 1033,1 hPa 0,0 l/m 6,4 km/h (2 Bft) N 360 0 min 0,0 UV-I 0 W/m 7,6 C 11,5 C 8,0 km/h (2 Bft)
28.05.2020 01:05 11,5 C 8,9 C 77 % 1033,1 hPa 0,0 l/m 8,0 km/h (2 Bft) N-NW 337 0 min 0,0 UV-I 0 W/m 7,6 C 10,4 C 11,3 km/h (2 Bft)
28.05.2020 01:06 11,5 C 8,9 C 77 % 1033,1 hPa 0,0 l/m 3,2 km/h (1 Bft) N 360 0 min 0,0 UV-I 0 W/m 7,6 C 11,5 C 6,4 km/h (2 Bft)
28.05.2020 01:07 11,6 C 8,9 C 77 % 1033,2 hPa 0,0 l/m 3,2 km/h (1 Bft) N 360 0 min 0,0 UV-I 0 W/m 7,7 C 11,6 C 3,2 km/h (1 Bft)
28.05.2020 01:08 11,5 C 8,3 C 77 % 1033,1 hPa 0,0 l/m 1,6 km/h (1 Bft) N 360 0 min 0,0 UV-I 0 W/m 7,6 C 11,5 C 3,2 km/h (1 Bft)
28.05.2020 01:09 11,5 C 8,3 C 77 % 1033,1 hPa 0,0 l/m 0,0 km/h (0 Bft) N 360 0 min 0,0 UV-I 0 W/m 7,6 C 11,5 C 1,6 km/h (1 Bft)
28.05.2020 01:10 11,5 C 8,3 C 77 % 1033,2 hPa 0,0 l/m 0,0 km/h (0 Bft) N 360 0 min 0,0 UV-I 0 W/m 7,6 C 11,5 C 1,6 km/h (1 Bft)
28.05.2020 01:11 11,5 C 7,8 C 77 % 1033,1 hPa 0,0 l/m 0,0 km/h (0 Bft) N 360 0 min 0,0 UV-I 0 W/m 7,6 C 11,5 C 1,6 km/h (1 Bft)
28.05.2020 01:12 11,6 C 7,8 C 77 % 1033,1 hPa 0,0 l/m 1,6 km/h (1 Bft) N 360 0 min 0,0 UV-I 0 W/m 7,7 C 11,6 C 1,6 km/h (1 Bft)
28.05.2020 01:13 11,6 C 7,8 C 77 % 1033,0 hPa 0,0 l/m 0,0 km/h (0 Bft) N 360 0 min 0,0 UV-I 0 W/m 7,7 C 11,6 C 1,6 km/h (1 Bft)
28.05.2020 01:14 11,5 C 7,8 C 77 % 1033,2 hPa 0,0 l/m 0,0 km/h (0 Bft) N 360 0 min 0,0 UV-I 0 W/m 7,6 C 11,5 C 1,6 km/h (1 Bft)
28.05.2020 01:15 11,5 C 7,8 C 77 % 1033,1 hPa 0,0 l/m 0,0 km/h (0 Bft) N 360 0 min 0,0 UV-I 0 W/m 7,6 C 11,5 C 3,2 km/h (1 Bft)
28.05.2020 01:16 11,5 C 7,8 C 77 % 1033,1 hPa 0,0 l/m 1,6 km/h (1 Bft) N 360 0 min 0,0 UV-I 0 W/m 7,6 C 11,5 C 1,6 km/h (1 Bft)
28.05.2020 01:17 11,4 C 7,8 C 78 % 1033,0 hPa 0,0 l/m 0,0 km/h (0 Bft) N 0 0 min 0,0 UV-I 0 W/m 7,7 C 11,4 C 0,0 km/h (0 Bft)
28.05.2020 01:18 11,4 C 7,8 C 78 % 1033,1 hPa 0,0 l/m 0,0 km/h (0 Bft) N 360 0 min 0,0 UV-I 0 W/m 7,7 C 11,4 C 1,6 km/h (1 Bft)
28.05.2020 01:19 11,4 C 7,8 C 78 % 1033,0 hPa 0,0 l/m 4,8 km/h (1 Bft) N 360 0 min 0,0 UV-I 0 W/m 7,7 C 11,4 C 6,4 km/h (2 Bft)
28.05.2020 01:20 11,4 C 7,8 C 78 % 1033,0 hPa 0,0 l/m 1,6 km/h (1 Bft) N 360 0 min 0,0 UV-I 0 W/m 7,7 C 11,4 C 3,2 km/h (1 Bft)
28.05.2020 01:21 11,3 C 7,8 C 78 % 1033,0 hPa 0,0 l/m 3,2 km/h (1 Bft) N 360 0 min 0,0 UV-I 0 W/m 7,6 C 11,3 C 3,2 km/h (1 Bft)
28.05.2020 01:22 11,3 C 7,8 C 78 % 1033,1 hPa 0,0 l/m 1,6 km/h (1 Bft) N 360 0 min 0,0 UV-I 0 W/m 7,6 C 11,3 C 1,6 km/h (1 Bft)
28.05.2020 01:23 11,3 C 7,8 C 78 % 1033,0 hPa 0,0 l/m 1,6 km/h (1 Bft) N 360 0 min 0,0 UV-I 0 W/m 7,6 C 11,3 C 3,2 km/h (1 Bft)
28.05.2020 01:24 11,3 C 7,8 C 78 % 1032,9 hPa 0,0 l/m 1,6 km/h (1 Bft) N 360 0 min 0,0 UV-I 0 W/m 7,6 C 11,3 C 3,2 km/h (1 Bft)
28.05.2020 01:25 11,3 C 7,2 C 78 % 1033,0 hPa 0,0 l/m 1,6 km/h (1 Bft) N 360 0 min 0,0 UV-I 0 W/m 7,6 C 11,3 C 1,6 km/h (1 Bft)
28.05.2020 01:26 11,3 C 7,2 C 78 % 1032,9 hPa 0,0 l/m 0,0 km/h (0 Bft) N 360 0 min 0,0 UV-I 0 W/m 7,6 C 11,3 C 1,6 km/h (1 Bft)
28.05.2020 01:27 11,2 C 7,2 C 79 % 1033,0 hPa 0,0 l/m 0,0 km/h (0 Bft) N 0 0 min 0,0 UV-I 0 W/m 7,7 C 11,2 C 0,0 km/h (0 Bft)
28.05.2020 01:28 11,2 C 7,8 C 79 % 1033,0 hPa 0,0 l/m 1,6 km/h (1 Bft) N 360 0 min 0,0 UV-I 0 W/m 7,7 C 11,2 C 3,2 km/h (1 Bft)
28.05.2020 01:29 11,2 C 7,2 C 79 % 1033,0 hPa 0,0 l/m 0,0 km/h (0 Bft) N 360 0 min 0,0 UV-I 0 W/m 7,7 C 11,2 C 1,6 km/h (1 Bft)
28.05.2020 01:30 11,2 C 7,2 C 79 % 1032,9 hPa 0,0 l/m 1,6 km/h (1 Bft) N 360 0 min 0,0 UV-I 0 W/m 7,7 C 11,2 C 3,2 km/h (1 Bft)
28.05.2020 01:31 11,2 C 7,2 C 79 % 1032,9 hPa 0,0 l/m 0,0 km/h (0 Bft) N 360 0 min 0,0 UV-I 0 W/m 7,7 C 11,2 C 1,6 km/h (1 Bft)
28.05.2020 01:32 11,2 C 7,2 C 79 % 1032,9 hPa 0,0 l/m 1,6 km/h (1 Bft) N 360 0 min 0,0 UV-I 0 W/m 7,7 C 11,2 C 3,2 km/h (1 Bft)
28.05.2020 01:33 11,2 C 7,2 C 79 % 1032,9 hPa 0,0 l/m 1,6 km/h (1 Bft) N 360 0 min 0,0 UV-I 0 W/m 7,7 C 11,2 C 3,2 km/h (1 Bft)
28.05.2020 01:34 11,2 C 7,2 C 79 % 1032,9 hPa 0,0 l/m 1,6 km/h (1 Bft) N 360 0 min 0,0 UV-I 0 W/m 7,7 C 11,2 C 3,2 km/h (1 Bft)
28.05.2020 01:35 11,2 C 7,2 C 79 % 1032,9 hPa 0,0 l/m 1,6 km/h (1 Bft) N 360 0 min 0,0 UV-I 0 W/m 7,7 C 11,2 C 3,2 km/h (1 Bft)
28.05.2020 01:36 11,2 C 7,2 C 79 % 1032,9 hPa 0,0 l/m 1,6 km/h (1 Bft) N 360 0 min 0,0 UV-I 0 W/m 7,7 C 11,2 C 3,2 km/h (1 Bft)
28.05.2020 01:37 11,1 C 7,2 C 79 % 1033,0 hPa 0,0 l/m 4,8 km/h (1 Bft) N 360 0 min 0,0 UV-I 0 W/m 7,6 C 11,1 C 8,0 km/h (2 Bft)
28.05.2020 01:38 11,1 C 7,2 C 79 % 1032,9 hPa 0,0 l/m 3,2 km/h (1 Bft) N 360 0 min 0,0 UV-I 0 W/m 7,6 C 11,1 C 4,8 km/h (1 Bft)
28.05.2020 01:39 11,1 C 7,2 C 79 % 1032,9 hPa 0,0 l/m 3,2 km/h (1 Bft) N 360 0 min 0,0 UV-I 0 W/m 7,6 C 11,1 C 4,8 km/h (1 Bft)
28.05.2020 01:40 11,1 C 7,2 C 79 % 1033,0 hPa 0,0 l/m 6,4 km/h (2 Bft) N 360 0 min 0,0 UV-I 0 W/m 7,6 C 11,1 C 8,0 km/h (2 Bft)
28.05.2020 01:41 11,0 C 7,2 C 79 % 1033,0 hPa 0,0 l/m 4,8 km/h (1 Bft) N-NW 337 0 min 0,0 UV-I 0 W/m 7,5 C 11,0 C 4,8 km/h (1 Bft)
28.05.2020 01:42 11,1 C 7,2 C 80 % 1033,0 hPa 0,0 l/m 4,8 km/h (1 Bft) N-NW 337 0 min 0,0 UV-I 0 W/m 7,8 C 11,1 C 8,0 km/h (2 Bft)
28.05.2020 01:43 11,1 C 7,8 C 80 % 1032,9 hPa 0,0 l/m 3,2 km/h (1 Bft) N-NW 337 0 min 0,0 UV-I 0 W/m 7,8 C 11,1 C 4,8 km/h (1 Bft)
28.05.2020 01:44 11,1 C 7,8 C 80 % 1033,0 hPa 0,0 l/m 4,8 km/h (1 Bft) N 360 0 min 0,0 UV-I 0 W/m 7,8 C 11,1 C 6,4 km/h (2 Bft)
28.05.2020 01:45 11,1 C 7,8 C 80 % 1032,9 hPa 0,0 l/m 6,4 km/h (2 Bft) N 360 0 min 0,0 UV-I 0 W/m 7,8 C 11,1 C 8,0 km/h (2 Bft)
28.05.2020 01:46 11,1 C 7,8 C 80 % 1032,9 hPa 0,0 l/m 4,8 km/h (1 Bft) N 360 0 min 0,0 UV-I 0 W/m 7,8 C 11,1 C 8,0 km/h (2 Bft)
28.05.2020 01:47 11,1 C 7,8 C 80 % 1032,9 hPa 0,0 l/m 6,4 km/h (2 Bft) N 360 0 min 0,0 UV-I 0 W/m 7,8 C 11,1 C 9,7 km/h (2 Bft)
28.05.2020 01:48 11,1 C 8,3 C 80 % 1032,8 hPa 0,0 l/m 6,4 km/h (2 Bft) N 360 0 min 0,0 UV-I 0 W/m 7,8 C 11,1 C 8,0 km/h (2 Bft)
28.05.2020 01:49 11,1 C 8,3 C 80 % 1032,9 hPa 0,0 l/m 6,4 km/h (2 Bft) N 360 0 min 0,0 UV-I 0 W/m 7,8 C 11,1 C 9,7 km/h (2 Bft)
28.05.2020 01:50 11,1 C 8,3 C 80 % 1032,9 hPa 0,0 l/m 11,3 km/h (2 Bft) N 360 0 min 0,0 UV-I 0 W/m 7,8 C 8,1 C 16,1 km/h (3 Bft)
28.05.2020 01:51 11,1 C 8,3 C 81 % 1032,8 hPa 0,0 l/m 11,3 km/h (2 Bft) N 360 0 min 0,0 UV-I 0 W/m 8,0 C 8,1 C 16,1 km/h (3 Bft)
28.05.2020 01:52 11,2 C 8,3 C 81 % 1032,8 hPa 0,0 l/m 6,4 km/h (2 Bft) N 360 0 min 0,0 UV-I 0 W/m 8,1 C 11,2 C 9,7 km/h (2 Bft)
28.05.2020 01:53 11,2 C 8,9 C 80 % 1032,8 hPa 0,0 l/m 6,4 km/h (2 Bft) N-NO 22 0 min 0,0 UV-I 0 W/m 7,9 C 11,2 C 9,7 km/h (2 Bft)
28.05.2020 01:54 11,2 C 8,9 C 80 % 1032,8 hPa 0,0 l/m 4,8 km/h (1 Bft) N-NO 22 0 min 0,0 UV-I 0 W/m 7,9 C 11,2 C 8,0 km/h (2 Bft)
28.05.2020 01:55 11,2 C 8,9 C 80 % 1032,9 hPa 0,0 l/m 8,0 km/h (2 Bft) N 360 0 min 0,0 UV-I 0 W/m 7,9 C 10,1 C 12,9 km/h (3 Bft)
28.05.2020 01:56 11,2 C 8,9 C 80 % 1032,8 hPa 0,0 l/m 9,7 km/h (2 Bft) N 360 0 min 0,0 UV-I 0 W/m 7,9 C 9,1 C 12,9 km/h (3 Bft)
28.05.2020 01:57 11,2 C 9,4 C 81 % 1032,9 hPa 0,0 l/m 9,7 km/h (2 Bft) N 360 0 min 0,0 UV-I 0 W/m 8,1 C 9,1 C 12,9 km/h (3 Bft)
28.05.2020 01:58 11,2 C 9,4 C 81 % 1032,9 hPa 0,0 l/m 9,7 km/h (2 Bft) N 360 0 min 0,0 UV-I 0 W/m 8,1 C 9,1 C 17,7 km/h (3 Bft)
28.05.2020 01:59 11,3 C 9,4 C 81 % 1032,9 hPa 0,0 l/m 11,3 km/h (2 Bft) N 360 0 min 0,0 UV-I 0 W/m 8,2 C 8,4 C 17,7 km/h (3 Bft)
28.05.2020 02:00 11,3 C 9,4 C 81 % 1032,9 hPa 0,0 l/m 6,4 km/h (2 Bft) N 360 0 min 0,0 UV-I 0 W/m 8,2 C 11,3 C 17,7 km/h (3 Bft)
28.05.2020 02:01 11,4 C 9,4 C 81 % 1032,9 hPa 0,0 l/m 8,0 km/h (2 Bft) N 360 0 min 0,0 UV-I 0 W/m 8,3 C 10,3 C 12,9 km/h (3 Bft)
28.05.2020 02:02 11,4 C 9,4 C 80 % 1032,9 hPa 0,0 l/m 8,0 km/h (2 Bft) N 360 0 min 0,0 UV-I 0 W/m 8,1 C 10,3 C 12,9 km/h (3 Bft)
28.05.2020 02:03 11,4 C 9,4 C 80 % 1032,9 hPa 0,0 l/m 8,0 km/h (2 Bft) N 360 0 min 0,0 UV-I 0 W/m 8,1 C 10,3 C 12,9 km/h (3 Bft)
28.05.2020 02:04 11,4 C 9,4 C 80 % 1032,9 hPa 0,0 l/m 12,9 km/h (3 Bft) N 360 0 min 0,0 UV-I 0 W/m 8,1 C 7,7 C 19,3 km/h (3 Bft)
28.05.2020 02:05 11,4 C 10,0 C 80 % 1032,8 hPa 0,0 l/m 14,5 km/h (3 Bft) N 360 0 min 0,0 UV-I 0 W/m 8,1 C 7,0 C 17,7 km/h (3 Bft)
28.05.2020 02:06 11,4 C 10,0 C 81 % 1032,8 hPa 0,0 l/m 11,3 km/h (2 Bft) N 360 0 min 0,0 UV-I 0 W/m 8,3 C 8,5 C 19,3 km/h (3 Bft)
28.05.2020 02:07 11,5 C 10,0 C 81 % 1032,8 hPa 0,0 l/m 9,7 km/h (2 Bft) N 360 0 min 0,0 UV-I 0 W/m 8,4 C 9,4 C 14,5 km/h (3 Bft)
28.05.2020 02:08 11,5 C 10,0 C 81 % 1032,8 hPa 0,0 l/m 4,8 km/h (1 Bft) N-NO 22 0 min 0,0 UV-I 0 W/m 8,4 C 11,5 C 8,0 km/h (2 Bft)
28.05.2020 02:09 11,5 C 10,0 C 81 % 1032,7 hPa 0,0 l/m 11,3 km/h (2 Bft) N 360 0 min 0,0 UV-I 0 W/m 8,4 C 8,6 C 17,7 km/h (3 Bft)
28.05.2020 02:10 11,5 C 10,0 C 81 % 1032,8 hPa 0,0 l/m 11,3 km/h (2 Bft) N 360 0 min 0,0 UV-I 0 W/m 8,4 C 8,6 C 14,5 km/h (3 Bft)
28.05.2020 02:11 11,6 C 10,6 C 81 % 1032,8 hPa 0,0 l/m 11,3 km/h (2 Bft) N 360 0 min 0,0 UV-I 0 W/m 8,5 C 8,7 C 16,1 km/h (3 Bft)
28.05.2020 02:12 11,6 C 10,6 C 81 % 1032,7 hPa 0,0 l/m 4,8 km/h (1 Bft) N 360 0 min 0,0 UV-I 0 W/m 8,5 C 11,6 C 8,0 km/h (2 Bft)
28.05.2020 02:13 11,6 C 10,6 C 81 % 1032,7 hPa 0,0 l/m 8,0 km/h (2 Bft) N 360 0 min 0,0 UV-I 0 W/m 8,5 C 10,5 C 9,7 km/h (2 Bft)
28.05.2020 02:14 11,6 C 10,6 C 81 % 1032,8 hPa 0,0 l/m 6,4 km/h (2 Bft) N 360 0 min 0,0 UV-I 0 W/m 8,5 C 11,6 C 8,0 km/h (2 Bft)
28.05.2020 02:15 11,6 C 10,6 C 81 % 1032,7 hPa 0,0 l/m 12,9 km/h (3 Bft) N 360 0 min 0,0 UV-I 0 W/m 8,5 C 7,9 C 17,7 km/h (3 Bft)
28.05.2020 02:16 11,6 C 10,6 C 81 % 1032,7 hPa 0,0 l/m 8,0 km/h (2 Bft) N 360 0 min 0,0 UV-I 0 W/m 8,5 C 10,5 C 14,5 km/h (3 Bft)
28.05.2020 02:17 11,6 C 10,6 C 81 % 1032,8 hPa 0,0 l/m 9,7 km/h (2 Bft) N 360 0 min 0,0 UV-I 0 W/m 8,5 C 9,5 C 12,9 km/h (3 Bft)
28.05.2020 02:18 11,7 C 10,6 C 81 % 1032,7 hPa 0,0 l/m 8,0 km/h (2 Bft) N 360 0 min 0,0 UV-I 0 W/m 8,5 C 10,6 C 12,9 km/h (3 Bft)
28.05.2020 02:19 11,7 C 10,6 C 81 % 1032,7 hPa 0,0 l/m 8,0 km/h (2 Bft) N 360 0 min 0,0 UV-I 0 W/m 8,5 C 10,6 C 9,7 km/h (2 Bft)
28.05.2020 02:20 11,7 C 10,6 C 81 % 1032,7 hPa 0,0 l/m 12,9 km/h (3 Bft) N-NW 337 0 min 0,0 UV-I 0 W/m 8,5 C 8,1 C 19,3 km/h (3 Bft)
28.05.2020 02:21 11,7 C 10,6 C 81 % 1032,6 hPa 0,0 l/m 11,3 km/h (2 Bft) N 360 0 min 0,0 UV-I 0 W/m 8,5 C 8,8 C 14,5 km/h (3 Bft)
28.05.2020 02:22 11,7 C 10,6 C 81 % 1032,6 hPa 0,0 l/m 9,7 km/h (2 Bft) N 360 0 min 0,0 UV-I 0 W/m 8,5 C 9,6 C 14,5 km/h (3 Bft)
28.05.2020 02:23 11,7 C 10,6 C 81 % 1032,6 hPa 0,0 l/m 12,9 km/h (3 Bft) N 360 0 min 0,0 UV-I 0 W/m 8,5 C 8,1 C 19,3 km/h (3 Bft)
28.05.2020 02:24 11,7 C 10,6 C 81 % 1032,6 hPa 0,0 l/m 11,3 km/h (2 Bft) N 360 0 min 0,0 UV-I 0 W/m 8,5 C 8,8 C 14,5 km/h (3 Bft)
28.05.2020 02:25 11,7 C 10,6 C 81 % 1032,5 hPa 0,0 l/m 9,7 km/h (2 Bft) N 360 0 min 0,0 UV-I 0 W/m 8,5 C 9,6 C 12,9 km/h (3 Bft)
28.05.2020 02:26 11,7 C 10,6 C 81 % 1032,6 hPa 0,0 l/m 12,9 km/h (3 Bft) N-NW 337 0 min 0,0 UV-I 0 W/m 8,5 C 8,1 C 17,7 km/h (3 Bft)
28.05.2020 02:27 11,7 C 10,6 C 81 % 1032,5 hPa 0,0 l/m 11,3 km/h (2 Bft) N 360 0 min 0,0 UV-I 0 W/m 8,5 C 8,8 C 16,1 km/h (3 Bft)
28.05.2020 02:28 11,7 C 10,6 C 81 % 1032,6 hPa 0,0 l/m 12,9 km/h (3 Bft) N 360 0 min 0,0 UV-I 0 W/m 8,5 C 8,1 C 14,5 km/h (3 Bft)
28.05.2020 02:29 11,7 C 10,6 C 81 % 1032,6 hPa 0,0 l/m 14,5 km/h (3 Bft) N 360 0 min 0,0 UV-I 0 W/m 8,5 C 7,4 C 17,7 km/h (3 Bft)
28.05.2020 02:30 11,7 C 10,6 C 81 % 1032,6 hPa 0,0 l/m 11,3 km/h (2 Bft) N 360 0 min 0,0 UV-I 0 W/m 8,5 C 8,8 C 14,5 km/h (3 Bft)
28.05.2020 02:31 11,7 C 10,6 C 82 % 1032,6 hPa 0,0 l/m 14,5 km/h (3 Bft) N 360 0 min 0,0 UV-I 0 W/m 8,7 C 7,4 C 17,7 km/h (3 Bft)
28.05.2020 02:32 11,7 C 10,6 C 82 % 1032,6 hPa 0,0 l/m 14,5 km/h (3 Bft) N 360 0 min 0,0 UV-I 0 W/m 8,7 C 7,4 C 17,7 km/h (3 Bft)
28.05.2020 02:33 11,7 C 10,6 C 82 % 1032,6 hPa 0,0 l/m 11,3 km/h (2 Bft) N 360 0 min 0,0 UV-I 0 W/m 8,7 C 8,8 C 16,1 km/h (3 Bft)
28.05.2020 02:34 11,7 C 10,6 C 82 % 1032,6 hPa 0,0 l/m 9,7 km/h (2 Bft) N 360 0 min 0,0 UV-I 0 W/m 8,7 C 9,6 C 17,7 km/h (3 Bft)
28.05.2020 02:35 11,7 C 10,6 C 82 % 1032,5 hPa 0,0 l/m 14,5 km/h (3 Bft) N 360 0 min 0,0 UV-I 0 W/m 8,7 C 7,4 C 17,7 km/h (3 Bft)
28.05.2020 02:36 11,7 C 10,6 C 82 % 1032,6 hPa 0,0 l/m 11,3 km/h (2 Bft) N 360 0 min 0,0 UV-I 0 W/m 8,7 C 8,8 C 14,5 km/h (3 Bft)
28.05.2020 02:37 11,7 C 10,6 C 82 % 1032,6 hPa 0,0 l/m 16,1 km/h (3 Bft) N 360 0 min 0,0 UV-I 0 W/m 8,7 C 6,8 C 22,5 km/h (4 Bft)
28.05.2020 02:38 11,7 C 10,6 C 82 % 1032,5 hPa 0,0 l/m 16,1 km/h (3 Bft) N 360 0 min 0,0 UV-I 0 W/m 8,7 C 6,8 C 22,5 km/h (4 Bft)
28.05.2020 02:39 11,7 C 10,6 C 82 % 1032,5 hPa 0,0 l/m 14,5 km/h (3 Bft) N 360 0 min 0,0 UV-I 0 W/m 8,7 C 7,4 C 16,1 km/h (3 Bft)
28.05.2020 02:40 11,7 C 10,6 C 82 % 1032,6 hPa 0,0 l/m 8,0 km/h (2 Bft) N 360 0 min 0,0 UV-I 0 W/m 8,7 C 10,6 C 14,5 km/h (3 Bft)
28.05.2020 02:41 11,7 C 10,6 C 82 % 1032,5 hPa 0,0 l/m 11,3 km/h (2 Bft) N 360 0 min 0,0 UV-I 0 W/m 8,7 C 8,8 C 17,7 km/h (3 Bft)
28.05.2020 02:42 11,7 C 10,6 C 82 % 1032,5 hPa 0,0 l/m 12,9 km/h (3 Bft) N 360 0 min 0,0 UV-I 0 W/m 8,7 C 8,1 C 16,1 km/h (3 Bft)
28.05.2020 02:43 11,7 C 10,6 C 82 % 1032,4 hPa 0,0 l/m 8,0 km/h (2 Bft) N-NW 337 0 min 0,0 UV-I 0 W/m 8,7 C 10,6 C 12,9 km/h (3 Bft)
28.05.2020 02:44 11,7 C 10,6 C 82 % 1032,4 hPa 0,0 l/m 8,0 km/h (2 Bft) N 360 0 min 0,0 UV-I 0 W/m 8,7 C 10,6 C 12,9 km/h (3 Bft)
28.05.2020 02:45 11,6 C 10,6 C 82 % 1032,4 hPa 0,0 l/m 9,7 km/h (2 Bft) N-NW 337 0 min 0,0 UV-I 0 W/m 8,6 C 9,5 C 14,5 km/h (3 Bft)
28.05.2020 02:46 11,6 C 10,6 C 82 % 1032,4 hPa 0,0 l/m 12,9 km/h (3 Bft) N 360 0 min 0,0 UV-I 0 W/m 8,6 C 7,9 C 17,7 km/h (3 Bft)
28.05.2020 02:47 11,6 C 10,6 C 82 % 1032,5 hPa 0,0 l/m 12,9 km/h (3 Bft) N 360 0 min 0,0 UV-I 0 W/m 8,6 C 7,9 C 16,1 km/h (3 Bft)
28.05.2020 02:48 11,6 C 10,6 C 82 % 1032,5 hPa 0,0 l/m 12,9 km/h (3 Bft) N 360 0 min 0,0 UV-I 0 W/m 8,6 C 7,9 C 19,3 km/h (3 Bft)
28.05.2020 02:49 11,6 C 10,6 C 82 % 1032,5 hPa 0,0 l/m 12,9 km/h (3 Bft) N 360 0 min 0,0 UV-I 0 W/m 8,6 C 7,9 C 22,5 km/h (4 Bft)
28.05.2020 02:50 11,6 C 10,6 C 82 % 1032,4 hPa 0,0 l/m 12,9 km/h (3 Bft) N 360 0 min 0,0 UV-I 0 W/m 8,6 C 7,9 C 17,7 km/h (3 Bft)
28.05.2020 02:51 11,6 C 10,6 C 82 % 1032,4 hPa 0,0 l/m 14,5 km/h (3 Bft) N 360 0 min 0,0 UV-I 0 W/m 8,6 C 7,3 C 16,1 km/h (3 Bft)
28.05.2020 02:52 11,6 C 10,6 C 82 % 1032,5 hPa 0,0 l/m 9,7 km/h (2 Bft) N 360 0 min 0,0 UV-I 0 W/m 8,6 C 9,5 C 12,9 km/h (3 Bft)
28.05.2020 02:53 11,6 C 10,6 C 83 % 1032,5 hPa 0,0 l/m 14,5 km/h (3 Bft) N 360 0 min 0,0 UV-I 0 W/m 8,8 C 7,3 C 19,3 km/h (3 Bft)
28.05.2020 02:54 11,6 C 10,6 C 83 % 1032,4 hPa 0,0 l/m 17,7 km/h (3 Bft) N 360 0 min 0,0 UV-I 0 W/m 8,8 C 6,1 C 22,5 km/h (4 Bft)
28.05.2020 02:55 11,6 C 10,6 C 83 % 1032,3 hPa 0,0 l/m 16,1 km/h (3 Bft) N 360 0 min 0,0 UV-I 0 W/m 8,8 C 6,7 C 20,9 km/h (4 Bft)
28.05.2020 02:56 11,6 C 10,6 C 83 % 1032,4 hPa 0,0 l/m 9,7 km/h (2 Bft) N 360 0 min 0,0 UV-I 0 W/m 8,8 C 9,5 C 12,9 km/h (3 Bft)
28.05.2020 02:57 11,6 C 10,6 C 83 % 1032,5 hPa 0,0 l/m 8,0 km/h (2 Bft) N 360 0 min 0,0 UV-I 0 W/m 8,8 C 10,5 C 9,7 km/h (2 Bft)
28.05.2020 02:58 11,6 C 10,6 C 83 % 1032,4 hPa 0,0 l/m 9,7 km/h (2 Bft) N 360 0 min 0,0 UV-I 0 W/m 8,8 C 9,5 C 14,5 km/h (3 Bft)
28.05.2020 02:59 11,6 C 10,6 C 83 % 1032,4 hPa 0,0 l/m 9,7 km/h (2 Bft) N 360 0 min 0,0 UV-I 0 W/m 8,8 C 9,5 C 14,5 km/h (3 Bft)
28.05.2020 03:00 11,6 C 10,6 C 83 % 1032,4 hPa 0,0 l/m 11,3 km/h (2 Bft) N 360 0 min 0,0 UV-I 0 W/m 8,8 C 8,7 C 14,5 km/h (3 Bft)
28.05.2020 03:01 11,5 C 10,6 C 83 % 1032,4 hPa 0,0 l/m 11,3 km/h (2 Bft) N 360 0 min 0,0 UV-I 0 W/m 8,7 C 8,6 C 17,7 km/h (3 Bft)
28.05.2020 03:02 11,5 C 10,6 C 83 % 1032,4 hPa 0,0 l/m 12,9 km/h (3 Bft) N 360 0 min 0,0 UV-I 0 W/m 8,7 C 7,8 C 16,1 km/h (3 Bft)
28.05.2020 03:03 11,6 C 10,6 C 83 % 1032,3 hPa 0,0 l/m 11,3 km/h (2 Bft) N 360 0 min 0,0 UV-I 0 W/m 8,8 C 8,7 C 17,7 km/h (3 Bft)
28.05.2020 03:04 11,5 C 10,6 C 83 % 1032,4 hPa 0,0 l/m 9,7 km/h (2 Bft) N 360 0 min 0,0 UV-I 0 W/m 8,7 C 9,4 C 19,3 km/h (3 Bft)
28.05.2020 03:05 11,5 C 10,6 C 83 % 1032,4 hPa 0,0 l/m 11,3 km/h (2 Bft) N 360 0 min 0,0 UV-I 0 W/m 8,7 C 8,6 C 14,5 km/h (3 Bft)
28.05.2020 03:06 11,5 C 10,6 C 83 % 1032,4 hPa 0,0 l/m 12,9 km/h (3 Bft) N 360 0 min 0,0 UV-I 0 W/m 8,7 C 7,8 C 14,5 km/h (3 Bft)
28.05.2020 03:07 11,5 C 10,6 C 83 % 1032,4 hPa 0,0 l/m 14,5 km/h (3 Bft) N 360 0 min 0,0 UV-I 0 W/m 8,7 C 7,2 C 17,7 km/h (3 Bft)
28.05.2020 03:08 11,5 C 10,6 C 83 % 1032,4 hPa 0,0 l/m 14,5 km/h (3 Bft) N 360 0 min 0,0 UV-I 0 W/m 8,7 C 7,2 C 16,1 km/h (3 Bft)
28.05.2020 03:09 11,5 C 10,6 C 83 % 1032,4 hPa 0,0 l/m 11,3 km/h (2 Bft) N 360 0 min 0,0 UV-I 0 W/m 8,7 C 8,6 C 12,9 km/h (3 Bft)
28.05.2020 03:10 11,5 C 10,6 C 83 % 1032,3 hPa 0,0 l/m 8,0 km/h (2 Bft) N-NW 337 0 min 0,0 UV-I 0 W/m 8,7 C 10,4 C 12,9 km/h (3 Bft)
28.05.2020 03:11 11,5 C 10,6 C 83 % 1032,3 hPa 0,0 l/m 9,7 km/h (2 Bft) N 360 0 min 0,0 UV-I 0 W/m 8,7 C 9,4 C 12,9 km/h (3 Bft)
28.05.2020 03:12 11,5 C 10,6 C 83 % 1032,3 hPa 0,0 l/m 9,7 km/h (2 Bft) N 360 0 min 0,0 UV-I 0 W/m 8,7 C 9,4 C 17,7 km/h (3 Bft)
28.05.2020 03:13 11,4 C 10,6 C 83 % 1032,3 hPa 0,0 l/m 14,5 km/h (3 Bft) N 360 0 min 0,0 UV-I 0 W/m 8,6 C 7,0 C 16,1 km/h (3 Bft)
28.05.2020 03:14 11,4 C 10,6 C 84 % 1032,2 hPa 0,0 l/m 14,5 km/h (3 Bft) N 360 0 min 0,0 UV-I 0 W/m 8,8 C 7,0 C 17,7 km/h (3 Bft)
28.05.2020 03:15 11,4 C 10,6 C 84 % 1032,3 hPa 0,0 l/m 12,9 km/h (3 Bft) N 360 0 min 0,0 UV-I 0 W/m 8,8 C 7,7 C 16,1 km/h (3 Bft)
28.05.2020 03:16 11,4 C 10,6 C 84 % 1032,3 hPa 0,0 l/m 12,9 km/h (3 Bft) N 360 0 min 0,0 UV-I 0 W/m 8,8 C 7,7 C 17,7 km/h (3 Bft)
28.05.2020 03:17 11,4 C 10,6 C 84 % 1032,3 hPa 0,0 l/m 12,9 km/h (3 Bft) N 360 0 min 0,0 UV-I 0 W/m 8,8 C 7,7 C 14,5 km/h (3 Bft)
28.05.2020 03:18 11,4 C 10,6 C 84 % 1032,3 hPa 0,0 l/m 12,9 km/h (3 Bft) N 360 0 min 0,0 UV-I 0 W/m 8,8 C 7,7 C 14,5 km/h (3 Bft)
28.05.2020 03:19 11,4 C 10,6 C 84 % 1032,3 hPa 0,0 l/m 12,9 km/h (3 Bft) N 360 0 min 0,0 UV-I 0 W/m 8,8 C 7,7 C 16,1 km/h (3 Bft)
28.05.2020 03:20 11,4 C 10,6 C 84 % 1032,3 hPa 0,0 l/m 12,9 km/h (3 Bft) N 360 0 min 0,0 UV-I 0 W/m 8,8 C 7,7 C 17,7 km/h (3 Bft)
28.05.2020 03:21 11,3 C 10,6 C 84 % 1032,3 hPa 0,0 l/m 12,9 km/h (3 Bft) N 360 0 min 0,0 UV-I 0 W/m 8,7 C 7,6 C 17,7 km/h (3 Bft)
28.05.2020 03:22 11,4 C 10,6 C 84 % 1032,3 hPa 0,0 l/m 14,5 km/h (3 Bft) N 360 0 min 0,0 UV-I 0 W/m 8,8 C 7,0 C 17,7 km/h (3 Bft)
28.05.2020 03:23 11,4 C 10,6 C 84 % 1032,3 hPa 0,0 l/m 12,9 km/h (3 Bft) N 360 0 min 0,0 UV-I 0 W/m 8,8 C 7,7 C 17,7 km/h (3 Bft)
28.05.2020 03:24 11,4 C 10,6 C 84 % 1032,3 hPa 0,0 l/m 9,7 km/h (2 Bft) N 360 0 min 0,0 UV-I 0 W/m 8,8 C 9,3 C 16,1 km/h (3 Bft)
28.05.2020 03:25 11,3 C 10,6 C 84 % 1032,3 hPa 0,0 l/m 14,5 km/h (3 Bft) N 360 0 min 0,0 UV-I 0 W/m 8,7 C 6,9 C 17,7 km/h (3 Bft)
28.05.2020 03:26 11,3 C 10,6 C 84 % 1032,3 hPa 0,0 l/m 12,9 km/h (3 Bft) N 360 0 min 0,0 UV-I 0 W/m 8,7 C 7,6 C 17,7 km/h (3 Bft)
28.05.2020 03:27 11,3 C 10,6 C 84 % 1032,4 hPa 0,0 l/m 12,9 km/h (3 Bft) N 360 0 min 0,0 UV-I 0 W/m 8,7 C 7,6 C 16,1 km/h (3 Bft)
28.05.2020 03:28 11,3 C 10,6 C 84 % 1032,4 hPa 0,0 l/m 14,5 km/h (3 Bft) N 360 0 min 0,0 UV-I 0 W/m 8,7 C 6,9 C 17,7 km/h (3 Bft)
28.05.2020 03:29 11,3 C 10,6 C 84 % 1032,3 hPa 0,0 l/m 14,5 km/h (3 Bft) N 360 0 min 0,0 UV-I 0 W/m 8,7 C 6,9 C 19,3 km/h (3 Bft)
28.05.2020 03:30 11,3 C 10,6 C 84 % 1032,3 hPa 0,0 l/m 12,9 km/h (3 Bft) N 360 0 min 0,0 UV-I 0 W/m 8,7 C 7,6 C 17,7 km/h (3 Bft)
28.05.2020 03:31 11,3 C 10,6 C 84 % 1032,3 hPa 0,0 l/m 14,5 km/h (3 Bft) N 360 0 min 0,0 UV-I 0 W/m 8,7 C 6,9 C 17,7 km/h (3 Bft)
28.05.2020 03:32 11,3 C 10,6 C 84 % 1032,3 hPa 0,0 l/m 17,7 km/h (3 Bft) N 360 0 min 0,0 UV-I 0 W/m 8,7 C 5,7 C 19,3 km/h (3 Bft)
28.05.2020 03:33 11,3 C 10,6 C 84 % 1032,3 hPa 0,0 l/m 14,5 km/h (3 Bft) N 360 0 min 0,0 UV-I 0 W/m 8,7 C 6,9 C 17,7 km/h (3 Bft)
28.05.2020 03:34 11,3 C 10,6 C 84 % 1032,3 hPa 0,0 l/m 16,1 km/h (3 Bft) N 360 0 min 0,0 UV-I 0 W/m 8,7 C 6,3 C 19,3 km/h (3 Bft)
28.05.2020 03:35 11,3 C 10,6 C 84 % 1032,4 hPa 0,0 l/m 14,5 km/h (3 Bft) N 360 0 min 0,0 UV-I 0 W/m 8,7 C 6,9 C 19,3 km/h (3 Bft)
28.05.2020 03:36 11,3 C 10,6 C 84 % 1032,3 hPa 0,0 l/m 14,5 km/h (3 Bft) N 360 0 min 0,0 UV-I 0 W/m 8,7 C 6,9 C 17,7 km/h (3 Bft)
28.05.2020 03:37 11,3 C 10,6 C 84 % 1032,3 hPa 0,0 l/m 17,7 km/h (3 Bft) N 360 0 min 0,0 UV-I 0 W/m 8,7 C 5,7 C 22,5 km/h (4 Bft)
28.05.2020 03:38 11,3 C 10,6 C 84 % 1032,4 hPa 0,0 l/m 16,1 km/h (3 Bft) N 360 0 min 0,0 UV-I 0 W/m 8,7 C 6,3 C 20,9 km/h (4 Bft)
28.05.2020 03:39 11,3 C 10,6 C 84 % 1032,3 hPa 0,0 l/m 17,7 km/h (3 Bft) N 360 0 min 0,0 UV-I 0 W/m 8,7 C 5,7 C 19,3 km/h (3 Bft)
28.05.2020 03:40 11,3 C 10,6 C 84 % 1032,3 hPa 0,0 l/m 16,1 km/h (3 Bft) N 360 0 min 0,0 UV-I 0 W/m 8,7 C 6,3 C 20,9 km/h (4 Bft)
28.05.2020 03:41 11,3 C 10,6 C 84 % 1032,3 hPa 0,0 l/m 11,3 km/h (2 Bft) N 360 0 min 0,0 UV-I 0 W/m 8,7 C 8,4 C 14,5 km/h (3 Bft)
28.05.2020 03:42 11,3 C 10,6 C 84 % 1032,4 hPa 0,0 l/m 12,9 km/h (3 Bft) N 360 0 min 0,0 UV-I 0 W/m 8,7 C 7,6 C 19,3 km/h (3 Bft)
28.05.2020 03:43 11,3 C 10,6 C 84 % 1032,4 hPa 0,0 l/m 14,5 km/h (3 Bft) N 360 0 min 0,0 UV-I 0 W/m 8,7 C 6,9 C 19,3 km/h (3 Bft)
28.05.2020 03:44 11,3 C 10,6 C 84 % 1032,5 hPa 0,0 l/m 16,1 km/h (3 Bft) N 360 0 min 0,0 UV-I 0 W/m 8,7 C 6,3 C 19,3 km/h (3 Bft)
28.05.2020 03:45 11,3 C 10,6 C 84 % 1032,4 hPa 0,0 l/m 14,5 km/h (3 Bft) N 360 0 min 0,0 UV-I 0 W/m 8,7 C 6,9 C 19,3 km/h (3 Bft)
28.05.2020 03:46 11,3 C 10,6 C 84 % 1032,4 hPa 0,0 l/m 19,3 km/h (3 Bft) N 360 0 min 0,0 UV-I 0 W/m 8,7 C 5,2 C 24,1 km/h (4 Bft)
28.05.2020 03:47 11,3 C 10,6 C 84 % 1032,4 hPa 0,0 l/m 17,7 km/h (3 Bft) N 360 0 min 0,0 UV-I 0 W/m 8,7 C 5,7 C 24,1 km/h (4 Bft)
28.05.2020 03:48 11,3 C 10,6 C 84 % 1032,4 hPa 0,0 l/m 19,3 km/h (3 Bft) N 360 0 min 0,0 UV-I 0 W/m 8,7 C 5,2 C 22,5 km/h (4 Bft)
28.05.2020 03:49 11,3 C 10,6 C 84 % 1032,3 hPa 0,0 l/m 14,5 km/h (3 Bft) N 360 0 min 0,0 UV-I 0 W/m 8,7 C 6,9 C 17,7 km/h (3 Bft)
28.05.2020 03:50 11,3 C 10,6 C 84 % 1032,4 hPa 0,0 l/m 16,1 km/h (3 Bft) N-NW 337 0 min 0,0 UV-I 0 W/m 8,7 C 6,3 C 19,3 km/h (3 Bft)
28.05.2020 03:51 11,3 C 10,6 C 84 % 1032,5 hPa 0,0 l/m 14,5 km/h (3 Bft) N 360 0 min 0,0 UV-I 0 W/m 8,7 C 6,9 C 17,7 km/h (3 Bft)
28.05.2020 03:52 11,3 C 10,6 C 84 % 1032,4 hPa 0,0 l/m 17,7 km/h (3 Bft) N 360 0 min 0,0 UV-I 0 W/m 8,7 C 5,7 C 25,7 km/h (4 Bft)
28.05.2020 03:53 11,3 C 10,6 C 84 % 1032,4 hPa 0,0 l/m 17,7 km/h (3 Bft) N 360 0 min 0,0 UV-I 0 W/m 8,7 C 5,7 C 25,7 km/h (4 Bft)
28.05.2020 03:54 11,3 C 10,6 C 84 % 1032,5 hPa 0,0 l/m 17,7 km/h (3 Bft) N 360 0 min 0,0 UV-I 0 W/m 8,7 C 5,7 C 20,9 km/h (4 Bft)
28.05.2020 03:55 11,3 C 10,6 C 84 % 1032,4 hPa 0,0 l/m 12,9 km/h (3 Bft) N-NW 337 0 min 0,0 UV-I 0 W/m 8,7 C 7,6 C 16,1 km/h (3 Bft)
28.05.2020 03:56 11,3 C 10,6 C 84 % 1032,5 hPa 0,0 l/m 16,1 km/h (3 Bft) N 360 0 min 0,0 UV-I 0 W/m 8,7 C 6,3 C 19,3 km/h (3 Bft)
28.05.2020 03:57 11,2 C 10,6 C 84 % 1032,5 hPa 0,0 l/m 14,5 km/h (3 Bft) N 360 0 min 0,0 UV-I 0 W/m 8,6 C 6,8 C 19,3 km/h (3 Bft)
28.05.2020 03:58 11,2 C 10,6 C 84 % 1032,5 hPa 0,0 l/m 16,1 km/h (3 Bft) N-NW 337 0 min 0,0 UV-I 0 W/m 8,6 C 6,2 C 19,3 km/h (3 Bft)
28.05.2020 03:59 11,2 C 10,6 C 84 % 1032,5 hPa 0,0 l/m 14,5 km/h (3 Bft) N-NW 337 0 min 0,0 UV-I 0 W/m 8,6 C 6,8 C 17,7 km/h (3 Bft)
28.05.2020 04:00 11,2 C 10,6 C 84 % 1032,5 hPa 0,0 l/m 14,5 km/h (3 Bft) N 360 0 min 0,0 UV-I 0 W/m 8,6 C 6,8 C 19,3 km/h (3 Bft)
28.05.2020 04:01 11,2 C 10,6 C 84 % 1032,5 hPa 0,0 l/m 19,3 km/h (3 Bft) N 360 0 min 0,0 UV-I 0 W/m 8,6 C 5,1 C 24,1 km/h (4 Bft)
28.05.2020 04:02 11,2 C 10,6 C 84 % 1032,4 hPa 0,0 l/m 16,1 km/h (3 Bft) N 360 0 min 0,0 UV-I 0 W/m 8,6 C 6,2 C 20,9 km/h (4 Bft)
28.05.2020 04:03 11,2 C 10,6 C 84 % 1032,5 hPa 0,0 l/m 16,1 km/h (3 Bft) N-NW 337 0 min 0,0 UV-I 0 W/m 8,6 C 6,2 C 20,9 km/h (4 Bft)
28.05.2020 04:04 11,2 C 10,6 C 84 % 1032,4 hPa 0,0 l/m 19,3 km/h (3 Bft) N 360 0 min 0,0 UV-I 0 W/m 8,6 C 5,1 C 22,5 km/h (4 Bft)
28.05.2020 04:05 11,2 C 10,6 C 84 % 1032,4 hPa 0,0 l/m 17,7 km/h (3 Bft) N 360 0 min 0,0 UV-I 0 W/m 8,6 C 5,6 C 20,9 km/h (4 Bft)
28.05.2020 04:06 11,1 C 10,6 C 84 % 1032,5 hPa 0,0 l/m 14,5 km/h (3 Bft) N 360 0 min 0,0 UV-I 0 W/m 8,5 C 6,7 C 17,7 km/h (3 Bft)
28.05.2020 04:07 11,1 C 10,6 C 84 % 1032,5 hPa 0,0 l/m 14,5 km/h (3 Bft) N 360 0 min 0,0 UV-I 0 W/m 8,5 C 6,7 C 24,1 km/h (4 Bft)
28.05.2020 04:08 11,1 C 10,6 C 84 % 1032,5 hPa 0,0 l/m 14,5 km/h (3 Bft) N 360 0 min 0,0 UV-I 0 W/m 8,5 C 6,7 C 17,7 km/h (3 Bft)
28.05.2020 04:09 11,1 C 10,6 C 84 % 1032,5 hPa 0,0 l/m 17,7 km/h (3 Bft) N 360 0 min 0,0 UV-I 0 W/m 8,5 C 5,5 C 20,9 km/h (4 Bft)
28.05.2020 04:10 11,1 C 10,0 C 83 % 1032,4 hPa 0,0 l/m 20,9 km/h (4 Bft) N 360 0 min 0,0 UV-I 0 W/m 8,3 C 4,4 C 22,5 km/h (4 Bft)
28.05.2020 04:11 11,1 C 10,0 C 83 % 1032,4 hPa 0,0 l/m 20,9 km/h (4 Bft) N 360 0 min 0,0 UV-I 0 W/m 8,3 C 4,4 C 25,7 km/h (4 Bft)
28.05.2020 04:12 11,0 C 10,0 C 83 % 1032,5 hPa 0,0 l/m 16,1 km/h (3 Bft) N 360 0 min 0,0 UV-I 0 W/m 8,2 C 5,9 C 20,9 km/h (4 Bft)
28.05.2020 04:13 11,1 C 10,0 C 83 % 1032,5 hPa 0,0 l/m 14,5 km/h (3 Bft) N 360 0 min 0,0 UV-I 0 W/m 8,3 C 6,7 C 17,7 km/h (3 Bft)
28.05.2020 04:14 11,0 C 10,0 C 83 % 1032,5 hPa 0,0 l/m 16,1 km/h (3 Bft) N 360 0 min 0,0 UV-I 0 W/m 8,2 C 5,9 C 19,3 km/h (3 Bft)
28.05.2020 04:15 10,9 C 10,0 C 83 % 1032,4 hPa 0,0 l/m 17,7 km/h (3 Bft) N 360 0 min 0,0 UV-I 0 W/m 8,1 C 5,2 C 22,5 km/h (4 Bft)
28.05.2020 04:16 10,9 C 10,0 C 83 % 1032,4 hPa 0,0 l/m 16,1 km/h (3 Bft) N 360 0 min 0,0 UV-I 0 W/m 8,1 C 5,8 C 19,3 km/h (3 Bft)
28.05.2020 04:17 10,9 C 10,0 C 83 % 1032,4 hPa 0,0 l/m 19,3 km/h (3 Bft) N 360 0 min 0,0 UV-I 0 W/m 8,1 C 4,7 C 24,1 km/h (4 Bft)
28.05.2020 04:18 10,9 C 10,0 C 83 % 1032,5 hPa 0,0 l/m 16,1 km/h (3 Bft) N 360 0 min 0,0 UV-I 0 W/m 8,1 C 5,8 C 20,9 km/h (4 Bft)
28.05.2020 04:19 10,9 C 10,0 C 83 % 1032,4 hPa 0,0 l/m 17,7 km/h (3 Bft) N 360 0 min 0,0 UV-I 0 W/m 8,1 C 5,2 C 20,9 km/h (4 Bft)
28.05.2020 04:20 10,9 C 10,0 C 83 % 1032,4 hPa 0,0 l/m 16,1 km/h (3 Bft) N 360 0 min 0,0 UV-I 0 W/m 8,1 C 5,8 C 20,9 km/h (4 Bft)
28.05.2020 04:21 10,9 C 10,0 C 83 % 1032,4 hPa 0,0 l/m 17,7 km/h (3 Bft) N 360 0 min 0,0 UV-I 0 W/m 8,1 C 5,2 C 22,5 km/h (4 Bft)
28.05.2020 04:22 10,8 C 10,0 C 83 % 1032,5 hPa 0,0 l/m 19,3 km/h (3 Bft) N 360 0 min 0,0 UV-I 0 W/m 8,0 C 4,5 C 24,1 km/h (4 Bft)
28.05.2020 04:23 10,8 C 10,0 C 83 % 1032,4 hPa 0,0 l/m 17,7 km/h (3 Bft) N 360 0 min 0,0 UV-I 0 W/m 8,0 C 5,1 C 24,1 km/h (4 Bft)
28.05.2020 04:24 10,8 C 10,0 C 83 % 1032,4 hPa 0,0 l/m 12,9 km/h (3 Bft) N-NW 337 0 min 0,0 UV-I 0 W/m 8,0 C 7,0 C 19,3 km/h (3 Bft)
28.05.2020 04:25 10,8 C 10,0 C 83 % 1032,3 hPa 0,0 l/m 16,1 km/h (3 Bft) N 360 0 min 0,0 UV-I 0 W/m 8,0 C 5,7 C 22,5 km/h (4 Bft)
28.05.2020 04:26 10,8 C 9,4 C 83 % 1032,4 hPa 0,0 l/m 14,5 km/h (3 Bft) N 360 0 min 0,0 UV-I 0 W/m 8,0 C 6,3 C 22,5 km/h (4 Bft)
28.05.2020 04:27 10,7 C 9,4 C 83 % 1032,4 hPa 0,0 l/m 14,5 km/h (3 Bft) N 360 0 min 0,0 UV-I 0 W/m 7,9 C 6,2 C 17,7 km/h (3 Bft)
28.05.2020 04:28 10,7 C 9,4 C 83 % 1032,3 hPa 0,0 l/m 16,1 km/h (3 Bft) N 360 0 min 0,0 UV-I 0 W/m 7,9 C 5,5 C 19,3 km/h (3 Bft)
28.05.2020 04:29 10,6 C 9,4 C 82 % 1032,3 hPa 0,0 l/m 19,3 km/h (3 Bft) N 360 0 min 0,0 UV-I 0 W/m 7,7 C 4,3 C 24,1 km/h (4 Bft)
28.05.2020 04:30 10,6 C 9,4 C 82 % 1032,4 hPa 0,0 l/m 20,9 km/h (4 Bft) N 360 0 min 0,0 UV-I 0 W/m 7,7 C 3,8 C 25,7 km/h (4 Bft)
28.05.2020 04:31 10,6 C 9,4 C 82 % 1032,3 hPa 0,0 l/m 19,3 km/h (3 Bft) N 360 0 min 0,0 UV-I 0 W/m 7,7 C 4,3 C 24,1 km/h (4 Bft)
28.05.2020 04:32 10,6 C 9,4 C 82 % 1032,3 hPa 0,0 l/m 16,1 km/h (3 Bft) N 360 0 min 0,0 UV-I 0 W/m 7,7 C 5,4 C 22,5 km/h (4 Bft)
28.05.2020 04:33 10,6 C 9,4 C 82 % 1032,3 hPa 0,0 l/m 20,9 km/h (4 Bft) N 360 0 min 0,0 UV-I 0 W/m 7,7 C 3,8 C 27,4 km/h (4 Bft)
28.05.2020 04:34 10,5 C 9,4 C 82 % 1032,3 hPa 0,0 l/m 19,3 km/h (3 Bft) N 360 0 min 0,0 UV-I 0 W/m 7,6 C 4,2 C 27,4 km/h (4 Bft)
28.05.2020 04:35 10,4 C 9,4 C 82 % 1032,4 hPa 0,0 l/m 17,7 km/h (3 Bft) N 360 0 min 0,0 UV-I 0 W/m 7,5 C 4,6 C 19,3 km/h (3 Bft)
28.05.2020 04:36 10,4 C 9,4 C 82 % 1032,3 hPa 0,0 l/m 16,1 km/h (3 Bft) N 360 0 min 0,0 UV-I 0 W/m 7,5 C 5,2 C 19,3 km/h (3 Bft)
28.05.2020 04:37 10,4 C 9,4 C 82 % 1032,4 hPa 0,0 l/m 17,7 km/h (3 Bft) N 360 0 min 0,0 UV-I 0 W/m 7,5 C 4,6 C 24,1 km/h (4 Bft)
28.05.2020 04:38 10,3 C 9,4 C 82 % 1032,4 hPa 0,0 l/m 19,3 km/h (3 Bft) N 360 0 min 0,0 UV-I 0 W/m 7,4 C 3,9 C 22,5 km/h (4 Bft)
28.05.2020 04:39 10,3 C 8,9 C 82 % 1032,3 hPa 0,0 l/m 17,7 km/h (3 Bft) N 360 0 min 0,0 UV-I 0 W/m 7,4 C 4,5 C 19,3 km/h (3 Bft)
28.05.2020 04:40 10,3 C 8,9 C 82 % 1032,3 hPa 0,0 l/m 16,1 km/h (3 Bft) N 360 0 min 0,0 UV-I 0 W/m 7,4 C 5,1 C 19,3 km/h (3 Bft)
28.05.2020 04:41 10,3 C 8,9 C 82 % 1032,3 hPa 0,0 l/m 19,3 km/h (3 Bft) N 360 0 min 0,0 UV-I 0 W/m 7,4 C 3,9 C 24,1 km/h (4 Bft)
28.05.2020 04:42 10,3 C 8,9 C 82 % 1032,3 hPa 0,0 l/m 19,3 km/h (3 Bft) N 360 0 min 0,0 UV-I 0 W/m 7,4 C 3,9 C 25,7 km/h (4 Bft)
28.05.2020 04:43 10,2 C 8,9 C 82 % 1032,4 hPa 0,0 l/m 17,7 km/h (3 Bft) N 360 0 min 0,0 UV-I 0 W/m 7,3 C 4,3 C 24,1 km/h (4 Bft)
28.05.2020 04:44 10,2 C 8,9 C 82 % 1032,2 hPa 0,0 l/m 20,9 km/h (4 Bft) N 360 0 min 0,0 UV-I 0 W/m 7,3 C 3,3 C 25,7 km/h (4 Bft)
28.05.2020 04:45 10,2 C 8,9 C 82 % 1032,3 hPa 0,0 l/m 17,7 km/h (3 Bft) N 360 0 min 0,0 UV-I 0 W/m 7,3 C 4,3 C 22,5 km/h (4 Bft)
28.05.2020 04:46 10,2 C 8,9 C 82 % 1032,3 hPa 0,0 l/m 17,7 km/h (3 Bft) N 360 0 min 0,0 UV-I 0 W/m 7,3 C 4,3 C 20,9 km/h (4 Bft)
28.05.2020 04:47 10,1 C 8,9 C 82 % 1032,3 hPa 0,0 l/m 17,7 km/h (3 Bft) N 360 0 min 0,0 UV-I 0 W/m 7,2 C 4,2 C 19,3 km/h (3 Bft)
28.05.2020 04:48 10,1 C 8,9 C 82 % 1032,3 hPa 0,0 l/m 16,1 km/h (3 Bft) N 360 0 min 0,0 UV-I 0 W/m 7,2 C 4,8 C 22,5 km/h (4 Bft)
28.05.2020 04:49 10,0 C 8,9 C 82 % 1032,2 hPa 0,0 l/m 17,7 km/h (3 Bft) N 360 0 min 0,0 UV-I 0 W/m 7,1 C 4,1 C 22,5 km/h (4 Bft)
28.05.2020 04:50 9,9 C 8,9 C 82 % 1032,2 hPa 0,0 l/m 17,7 km/h (3 Bft) N 360 0 min 0,0 UV-I 0 W/m 7,0 C 4,0 C 22,5 km/h (4 Bft)
28.05.2020 04:51 9,9 C 8,3 C 82 % 1032,2 hPa 0,0 l/m 17,7 km/h (3 Bft) N 360 0 min 0,0 UV-I 0 W/m 7,0 C 4,0 C 22,5 km/h (4 Bft)
28.05.2020 04:52 9,9 C 8,3 C 82 % 1032,3 hPa 0,0 l/m 17,7 km/h (3 Bft) N 360 0 min 0,0 UV-I 0 W/m 7,0 C 4,0 C 22,5 km/h (4 Bft)
28.05.2020 04:53 9,8 C 8,3 C 82 % 1032,3 hPa 0,0 l/m 17,7 km/h (3 Bft) N 360 0 min 0,0 UV-I 0 W/m 6,9 C 3,8 C 24,1 km/h (4 Bft)
28.05.2020 04:54 9,8 C 8,3 C 82 % 1032,3 hPa 0,0 l/m 17,7 km/h (3 Bft) N 360 0 min 0,0 UV-I 0 W/m 6,9 C 3,8 C 22,5 km/h (4 Bft)
28.05.2020 04:55 9,9 C 8,3 C 82 % 1032,2 hPa 0,0 l/m 16,1 km/h (3 Bft) N 360 0 min 0,0 UV-I 0 W/m 7,0 C 4,6 C 19,3 km/h (3 Bft)
28.05.2020 04:56 9,8 C 8,3 C 82 % 1032,2 hPa 0,0 l/m 17,7 km/h (3 Bft) N 360 0 min 0,0 UV-I 0 W/m 6,9 C 3,8 C 20,9 km/h (4 Bft)
28.05.2020 04:57 9,8 C 8,3 C 82 % 1032,2 hPa 0,0 l/m 14,5 km/h (3 Bft) N 360 0 min 0,0 UV-I 0 W/m 6,9 C 5,1 C 19,3 km/h (3 Bft)
28.05.2020 04:58 9,8 C 8,3 C 82 % 1032,3 hPa 0,0 l/m 16,1 km/h (3 Bft) N 360 0 min 0,0 UV-I 0 W/m 6,9 C 4,4 C 19,3 km/h (3 Bft)
28.05.2020 04:59 9,8 C 8,3 C 82 % 1032,2 hPa 0,0 l/m 16,1 km/h (3 Bft) N 360 0 min 0,0 UV-I 0 W/m 6,9 C 4,4 C 19,3 km/h (3 Bft)
28.05.2020 05:00 9,8 C 8,3 C 82 % 1032,3 hPa 0,0 l/m 17,7 km/h (3 Bft) N 360 0 min 0,0 UV-I 0 W/m 6,9 C 3,8 C 20,9 km/h (4 Bft)
28.05.2020 05:01 9,7 C 8,3 C 82 % 1032,3 hPa 0,0 l/m 17,7 km/h (3 Bft) N 360 0 min 0,0 UV-I 0 W/m 6,8 C 3,7 C 20,9 km/h (4 Bft)
28.05.2020 05:02 9,7 C 8,3 C 82 % 1032,2 hPa 0,0 l/m 14,5 km/h (3 Bft) N 360 0 min 0,0 UV-I 0 W/m 6,8 C 5,0 C 17,7 km/h (3 Bft)
28.05.2020 05:03 9,6 C 8,3 C 82 % 1032,2 hPa 0,0 l/m 12,9 km/h (3 Bft) N 360 0 min 0,0 UV-I 0 W/m 6,7 C 5,6 C 19,3 km/h (3 Bft)
28.05.2020 05:04 9,6 C 8,3 C 82 % 1032,3 hPa 0,0 l/m 17,7 km/h (3 Bft) N 360 0 min 0,0 UV-I 0 W/m 6,7 C 3,6 C 24,1 km/h (4 Bft)
28.05.2020 05:05 9,6 C 8,3 C 82 % 1032,2 hPa 0,0 l/m 16,1 km/h (3 Bft) N 360 0 min 0,0 UV-I 0 W/m 6,7 C 4,2 C 20,9 km/h (4 Bft)
28.05.2020 05:06 9,6 C 8,3 C 82 % 1032,2 hPa 0,0 l/m 12,9 km/h (3 Bft) N 360 0 min 0,0 UV-I 0 W/m 6,7 C 5,6 C 17,7 km/h (3 Bft)
28.05.2020 05:07 9,6 C 8,3 C 83 % 1032,2 hPa 0,0 l/m 12,9 km/h (3 Bft) N-NW 337 0 min 0,0 UV-I 0 W/m 6,9 C 5,6 C 19,3 km/h (3 Bft)
28.05.2020 05:08 9,5 C 8,3 C 83 % 1032,2 hPa 0,0 l/m 16,1 km/h (3 Bft) N 360 0 min 0,0 UV-I 0 W/m 6,8 C 4,1 C 19,3 km/h (3 Bft)
28.05.2020 05:09 9,4 C 8,3 C 83 % 1032,2 hPa 0,0 l/m 12,9 km/h (3 Bft) N 360 0 min 0,0 UV-I 0 W/m 6,7 C 5,4 C 19,3 km/h (3 Bft)
28.05.2020 05:10 9,4 C 8,3 C 83 % 1032,3 hPa 0,0 l/m 14,5 km/h (3 Bft) N 360 0 min 0,0 UV-I 0 W/m 6,7 C 4,6 C 19,3 km/h (3 Bft)
28.05.2020 05:11 9,4 C 7,8 C 83 % 1032,2 hPa 0,0 l/m 12,9 km/h (3 Bft) N 360 0 min 0,0 UV-I 0 W/m 6,7 C 5,4 C 16,1 km/h (3 Bft)
28.05.2020 05:12 9,4 C 7,8 C 83 % 1032,3 hPa 0,0 l/m 14,5 km/h (3 Bft) N 360 0 min 0,0 UV-I 0 W/m 6,7 C 4,6 C 19,3 km/h (3 Bft)
28.05.2020 05:13 9,3 C 7,8 C 83 % 1032,2 hPa 0,0 l/m 11,3 km/h (2 Bft) N-NW 337 0 min 0,0 UV-I 0 W/m 6,6 C 6,1 C 16,1 km/h (3 Bft)
28.05.2020 05:14 9,3 C 7,8 C 83 % 1032,2 hPa 0,0 l/m 11,3 km/h (2 Bft) N 360 0 min 0,0 UV-I 0 W/m 6,6 C 6,1 C 17,7 km/h (3 Bft)
28.05.2020 05:15 9,2 C 7,8 C 83 % 1032,3 hPa 0,0 l/m 12,9 km/h (3 Bft) N 360 0 min 0,0 UV-I 0 W/m 6,5 C 5,1 C 16,1 km/h (3 Bft)
28.05.2020 05:16 9,2 C 7,8 C 83 % 1032,2 hPa 0,0 l/m 16,1 km/h (3 Bft) N 360 0 min 0,0 UV-I 0 W/m 6,5 C 3,7 C 19,3 km/h (3 Bft)
28.05.2020 05:17 9,2 C 7,8 C 83 % 1032,2 hPa 0,0 l/m 17,7 km/h (3 Bft) N 360 0 min 0,0 UV-I 0 W/m 6,5 C 3,1 C 22,5 km/h (4 Bft)
28.05.2020 05:18 9,2 C 7,8 C 83 % 1032,3 hPa 0,0 l/m 19,3 km/h (3 Bft) N 360 0 min 0,0 UV-I 0 W/m 6,5 C 2,5 C 22,5 km/h (4 Bft)
28.05.2020 05:19 9,1 C 7,8 C 83 % 1032,2 hPa 0,0 l/m 17,7 km/h (3 Bft) N 360 0 min 0,0 UV-I 0 W/m 6,4 C 2,9 C 20,9 km/h (4 Bft)
28.05.2020 05:20 9,1 C 7,8 C 83 % 1032,2 hPa 0,0 l/m 19,3 km/h (3 Bft) N 360 0 min 0,0 UV-I 0 W/m 6,4 C 2,4 C 24,1 km/h (4 Bft)
28.05.2020 05:21 9,1 C 7,8 C 83 % 1032,3 hPa 0,0 l/m 16,1 km/h (3 Bft) N 360 0 min 0,0 UV-I 0 W/m 6,4 C 3,6 C 20,9 km/h (4 Bft)
28.05.2020 05:22 9,1 C 7,8 C 83 % 1032,2 hPa 0,0 l/m 14,5 km/h (3 Bft) N 360 0 min 0,0 UV-I 0 W/m 6,4 C 4,3 C 19,3 km/h (3 Bft)
28.05.2020 05:23 9,0 C 7,8 C 83 % 1032,3 hPa 0,0 l/m 14,5 km/h (3 Bft) N 360 0 min 0,0 UV-I 0 W/m 6,3 C 4,1 C 20,9 km/h (4 Bft)
28.05.2020 05:24 9,0 C 7,8 C 83 % 1032,3 hPa 0,0 l/m 17,7 km/h (3 Bft) N 360 0 min 0,0 UV-I 0 W/m 6,3 C 2,8 C 20,9 km/h (4 Bft)
28.05.2020 05:25 9,0 C 7,8 C 83 % 1032,2 hPa 0,0 l/m 14,5 km/h (3 Bft) N 360 0 min 0,0 UV-I 0 W/m 6,3 C 4,1 C 17,7 km/h (3 Bft)
28.05.2020 05:26 9,0 C 7,8 C 83 % 1032,2 hPa 0,0 l/m 16,1 km/h (3 Bft) N 360 0 min 0,0 UV-I 0 W/m 6,3 C 3,5 C 19,3 km/h (3 Bft)
28.05.2020 05:27 8,9 C 7,8 C 83 % 1032,1 hPa 0,0 l/m 16,1 km/h (3 Bft) N 360 0 min 0,0 UV-I 0 W/m 6,2 C 3,3 C 19,3 km/h (3 Bft)
28.05.2020 05:28 9,0 C 7,8 C 83 % 1032,2 hPa 0,0 l/m 14,5 km/h (3 Bft) N 360 0 min 0,0 UV-I 0 W/m 6,3 C 4,1 C 16,1 km/h (3 Bft)
28.05.2020 05:29 8,9 C 7,8 C 83 % 1032,3 hPa 0,0 l/m 12,9 km/h (3 Bft) N 360 0 min 0,0 UV-I 0 W/m 6,2 C 4,8 C 16,1 km/h (3 Bft)
28.05.2020 05:30 8,9 C 7,8 C 83 % 1032,3 hPa 0,0 l/m 17,7 km/h (3 Bft) N 360 0 min 0,0 UV-I 0 W/m 6,2 C 2,7 C 20,9 km/h (4 Bft)
28.05.2020 05:31 8,8 C 7,8 C 83 % 1032,3 hPa 0,0 l/m 14,5 km/h (3 Bft) N 360 0 min 0,0 UV-I 0 W/m 6,1 C 3,9 C 17,7 km/h (3 Bft)
28.05.2020 05:32 8,8 C 7,8 C 83 % 1032,2 hPa 0,0 l/m 16,1 km/h (3 Bft) N 360 0 min 0,0 UV-I 0 W/m 6,1 C 3,2 C 20,9 km/h (4 Bft)
28.05.2020 05:33 8,8 C 7,2 C 83 % 1032,3 hPa 0,0 l/m 12,9 km/h (3 Bft) N 360 0 min 0,0 UV-I 5 W/m 6,1 C 4,7 C 20,9 km/h (4 Bft)
28.05.2020 05:34 8,8 C 7,2 C 83 % 1032,2 hPa 0,0 l/m 14,5 km/h (3 Bft) N 360 0 min 0,0 UV-I 5 W/m 6,1 C 3,9 C 22,5 km/h (4 Bft)
28.05.2020 05:35 8,7 C 7,2 C 83 % 1032,3 hPa 0,0 l/m 11,3 km/h (2 Bft) N 360 0 min 0,0 UV-I 5 W/m 6,0 C 5,4 C 16,1 km/h (3 Bft)
28.05.2020 05:36 8,7 C 7,2 C 83 % 1032,4 hPa 0,0 l/m 12,9 km/h (3 Bft) N 360 0 min 0,0 UV-I 5 W/m 6,0 C 4,6 C 20,9 km/h (4 Bft)
28.05.2020 05:37 8,7 C 7,2 C 83 % 1032,3 hPa 0,0 l/m 12,9 km/h (3 Bft) N-NW 337 0 min 0,0 UV-I 5 W/m 6,0 C 4,6 C 17,7 km/h (3 Bft)
28.05.2020 05:38 8,6 C 7,2 C 83 % 1032,3 hPa 0,0 l/m 14,5 km/h (3 Bft) N-NW 337 0 min 0,0 UV-I 7 W/m 5,9 C 3,7 C 19,3 km/h (3 Bft)
28.05.2020 05:39 8,6 C 7,2 C 83 % 1032,2 hPa 0,0 l/m 14,5 km/h (3 Bft) N 360 0 min 0,0 UV-I 7 W/m 5,9 C 3,7 C 19,3 km/h (3 Bft)
28.05.2020 05:40 8,6 C 7,2 C 83 % 1032,3 hPa 0,0 l/m 8,0 km/h (2 Bft) N 360 0 min 0,0 UV-I 7 W/m 5,9 C 7,4 C 12,9 km/h (3 Bft)
28.05.2020 05:41 8,6 C 7,2 C 83 % 1032,3 hPa 0,0 l/m 14,5 km/h (3 Bft) N 360 0 min 0,0 UV-I 7 W/m 5,9 C 3,7 C 19,3 km/h (3 Bft)
28.05.2020 05:42 8,6 C 7,2 C 83 % 1032,2 hPa 0,0 l/m 12,9 km/h (3 Bft) N 360 0 min 0,0 UV-I 7 W/m 5,9 C 4,4 C 19,3 km/h (3 Bft)
28.05.2020 05:43 8,6 C 7,2 C 83 % 1032,3 hPa 0,0 l/m 14,5 km/h (3 Bft) N 360 0 min 0,0 UV-I 9 W/m 5,9 C 3,7 C 19,3 km/h (3 Bft)
28.05.2020 05:44 8,5 C 7,2 C 83 % 1032,3 hPa 0,0 l/m 14,5 km/h (3 Bft) N 360 0 min 0,0 UV-I 9 W/m 5,8 C 3,5 C 17,7 km/h (3 Bft)
28.05.2020 05:45 8,5 C 7,2 C 83 % 1032,4 hPa 0,0 l/m 14,5 km/h (3 Bft) N 360 0 min 0,0 UV-I 9 W/m 5,8 C 3,5 C 17,7 km/h (3 Bft)
28.05.2020 05:46 8,4 C 7,2 C 82 % 1032,4 hPa 0,0 l/m 14,5 km/h (3 Bft) N 360 0 min 0,0 UV-I 9 W/m 5,5 C 3,4 C 17,7 km/h (3 Bft)
28.05.2020 05:47 8,4 C 7,2 C 82 % 1032,3 hPa 0,0 l/m 16,1 km/h (3 Bft) N 360 0 min 0,0 UV-I 11 W/m 5,5 C 2,7 C 19,3 km/h (3 Bft)
28.05.2020 05:48 8,3 C 7,2 C 82 % 1032,3 hPa 0,0 l/m 12,9 km/h (3 Bft) N-NW 337 0 min 0,0 UV-I 11 W/m 5,4 C 4,1 C 17,7 km/h (3 Bft)
28.05.2020 05:49 8,3 C 7,2 C 82 % 1032,4 hPa 0,0 l/m 14,5 km/h (3 Bft) N-NW 337 0 min 0,0 UV-I 11 W/m 5,4 C 3,3 C 20,9 km/h (4 Bft)
28.05.2020 05:50 8,3 C 7,2 C 82 % 1032,4 hPa 0,0 l/m 14,5 km/h (3 Bft) N 360 0 min 0,0 UV-I 11 W/m 5,4 C 3,3 C 17,7 km/h (3 Bft)
28.05.2020 05:51 8,3 C 7,2 C 82 % 1032,4 hPa 0,0 l/m 12,9 km/h (3 Bft) N 360 0 min 0,0 UV-I 12 W/m 5,4 C 4,1 C 20,9 km/h (4 Bft)
28.05.2020 05:52 8,3 C 7,2 C 82 % 1032,4 hPa 0,0 l/m 12,9 km/h (3 Bft) N 360 0 min 0,0 UV-I 12 W/m 5,4 C 4,1 C 17,7 km/h (3 Bft)
28.05.2020 05:53 8,3 C 7,2 C 82 % 1032,4 hPa 0,0 l/m 11,3 km/h (2 Bft) N 360 0 min 0,0 UV-I 12 W/m 5,4 C 4,9 C 17,7 km/h (3 Bft)
28.05.2020 05:54 8,2 C 7,2 C 82 % 1032,4 hPa 0,0 l/m 12,9 km/h (3 Bft) N 360 0 min 0,0 UV-I 12 W/m 5,3 C 4,0 C 20,9 km/h (4 Bft)
28.05.2020 05:55 8,2 C 7,2 C 82 % 1032,4 hPa 0,0 l/m 17,7 km/h (3 Bft) N 360 0 min 0,0 UV-I 12 W/m 5,3 C 1,8 C 20,9 km/h (4 Bft)
28.05.2020 05:56 8,2 C 7,2 C 82 % 1032,4 hPa 0,0 l/m 12,9 km/h (3 Bft) N 360 0 min 0,0 UV-I 14 W/m 5,3 C 4,0 C 20,9 km/h (4 Bft)
28.05.2020 05:57 8,1 C 7,2 C 82 % 1032,3 hPa 0,0 l/m 12,9 km/h (3 Bft) N 360 0 min 0,0 UV-I 14 W/m 5,2 C 3,8 C 19,3 km/h (3 Bft)
28.05.2020 05:58 8,1 C 6,7 C 81 % 1032,5 hPa 0,0 l/m 11,3 km/h (2 Bft) N 360 0 min 0,0 UV-I 14 W/m 5,0 C 4,7 C 16,1 km/h (3 Bft)
28.05.2020 05:59 8,1 C 6,7 C 81 % 1032,5 hPa 0,0 l/m 11,3 km/h (2 Bft) N 360 0 min 0,0 UV-I 14 W/m 5,0 C 4,7 C 16,1 km/h (3 Bft)
28.05.2020 06:00 8,1 C 6,7 C 81 % 1032,5 hPa 0,0 l/m 12,9 km/h (3 Bft) N 360 0 min 0,0 UV-I 16 W/m 5,0 C 3,8 C 19,3 km/h (3 Bft)
28.05.2020 06:01 8,0 C 6,7 C 81 % 1032,5 hPa 0,0 l/m 14,5 km/h (3 Bft) N 360 0 min 0,0 UV-I 16 W/m 4,9 C 2,9 C 19,3 km/h (3 Bft)
28.05.2020 06:02 7,9 C 6,7 C 81 % 1032,5 hPa 0,0 l/m 14,5 km/h (3 Bft) N 360 0 min 0,0 UV-I 16 W/m 4,8 C 2,8 C 20,9 km/h (4 Bft)
28.05.2020 06:03 7,9 C 6,7 C 81 % 1032,6 hPa 0,0 l/m 16,1 km/h (3 Bft) N 360 0 min 0,0 UV-I 16 W/m 4,8 C 2,1 C 20,9 km/h (4 Bft)
28.05.2020 06:04 7,9 C 6,7 C 81 % 1032,6 hPa 0,0 l/m 14,5 km/h (3 Bft) N 360 0 min 0,0 UV-I 17 W/m 4,8 C 2,8 C 20,9 km/h (4 Bft)
28.05.2020 06:05 7,9 C 6,7 C 81 % 1032,5 hPa 0,0 l/m 12,9 km/h (3 Bft) N 360 0 min 0,0 UV-I 18 W/m 4,8 C 3,6 C 19,3 km/h (3 Bft)
28.05.2020 06:06 7,9 C 6,7 C 81 % 1032,5 hPa 0,0 l/m 12,9 km/h (3 Bft) N 360 0 min 0,0 UV-I 18 W/m 4,8 C 3,6 C 20,9 km/h (4 Bft)
28.05.2020 06:07 7,9 C 6,7 C 80 % 1032,6 hPa 0,0 l/m 11,3 km/h (2 Bft) N 360 0 min 0,0 UV-I 18 W/m 4,7 C 4,5 C 14,5 km/h (3 Bft)
28.05.2020 06:08 7,9 C 6,7 C 80 % 1032,5 hPa 0,0 l/m 12,9 km/h (3 Bft) N 360 0 min 0,0 UV-I 19 W/m 4,7 C 3,6 C 19,3 km/h (3 Bft)
28.05.2020 06:09 7,9 C 6,7 C 80 % 1032,6 hPa 0,0 l/m 8,0 km/h (2 Bft) N-NO 22 0 min 0,0 UV-I 19 W/m 4,7 C 6,6 C 11,3 km/h (2 Bft)
28.05.2020 06:10 7,9 C 6,7 C 80 % 1032,6 hPa 0,0 l/m 9,7 km/h (2 Bft) N 360 0 min 0,0 UV-I 19 W/m 4,7 C 5,5 C 16,1 km/h (3 Bft)
28.05.2020 06:11 7,8 C 6,7 C 80 % 1032,5 hPa 0,0 l/m 12,9 km/h (3 Bft) N 360 0 min 0,0 UV-I 19 W/m 4,6 C 3,5 C 17,7 km/h (3 Bft)
28.05.2020 06:12 7,8 C 6,7 C 80 % 1032,5 hPa 0,0 l/m 8,0 km/h (2 Bft) N 360 0 min 0,0 UV-I 21 W/m 4,6 C 6,5 C 12,9 km/h (3 Bft)
28.05.2020 06:13 7,8 C 6,7 C 80 % 1032,5 hPa 0,0 l/m 8,0 km/h (2 Bft) N 360 0 min 0,0 UV-I 21 W/m 4,6 C 6,5 C 12,9 km/h (3 Bft)
28.05.2020 06:14 7,8 C 6,7 C 80 % 1032,6 hPa 0,0 l/m 8,0 km/h (2 Bft) N-NO 22 0 min 0,0 UV-I 21 W/m 4,6 C 6,5 C 14,5 km/h (3 Bft)
28.05.2020 06:15 7,9 C 6,7 C 80 % 1032,6 hPa 0,0 l/m 6,4 km/h (2 Bft) N-NO 22 0 min 0,0 UV-I 21 W/m 4,7 C 7,9 C 11,3 km/h (2 Bft)
28.05.2020 06:16 7,8 C 6,7 C 80 % 1032,6 hPa 0,0 l/m 8,0 km/h (2 Bft) N-NO 22 0 min 0,0 UV-I 23 W/m 4,6 C 6,5 C 14,5 km/h (3 Bft)
28.05.2020 06:17 7,8 C 6,7 C 80 % 1032,6 hPa 0,0 l/m 9,7 km/h (2 Bft) N-NO 22 0 min 0,0 UV-I 25 W/m 4,6 C 5,4 C 12,9 km/h (3 Bft)
28.05.2020 06:18 7,8 C 6,7 C 80 % 1032,6 hPa 0,0 l/m 8,0 km/h (2 Bft) N-NO 22 0 min 0,0 UV-I 25 W/m 4,6 C 6,5 C 9,7 km/h (2 Bft)
28.05.2020 06:19 7,8 C 6,7 C 80 % 1032,6 hPa 0,0 l/m 9,7 km/h (2 Bft) N-NO 22 0 min 0,0 UV-I 26 W/m 4,6 C 5,4 C 14,5 km/h (3 Bft)
28.05.2020 06:20 7,8 C 6,7 C 80 % 1032,6 hPa 0,0 l/m 6,4 km/h (2 Bft) NO 45 0 min 0,0 UV-I 26 W/m 4,6 C 7,8 C 8,0 km/h (2 Bft)
28.05.2020 06:21 7,8 C 6,7 C 80 % 1032,6 hPa 0,0 l/m 11,3 km/h (2 Bft) N-NO 22 0 min 0,0 UV-I 28 W/m 4,6 C 4,4 C 14,5 km/h (3 Bft)
28.05.2020 06:22 7,8 C 6,7 C 80 % 1032,6 hPa 0,0 l/m 4,8 km/h (1 Bft) NO 45 0 min 0,0 UV-I 30 W/m 4,6 C 7,8 C 6,4 km/h (2 Bft)
28.05.2020 06:23 7,8 C 6,7 C 80 % 1032,7 hPa 0,0 l/m 9,7 km/h (2 Bft) NO 45 0 min 0,0 UV-I 32 W/m 4,6 C 5,4 C 14,5 km/h (3 Bft)
28.05.2020 06:24 7,8 C 6,7 C 80 % 1032,6 hPa 0,0 l/m 9,7 km/h (2 Bft) N-NO 22 0 min 0,0 UV-I 33 W/m 4,6 C 5,4 C 14,5 km/h (3 Bft)
28.05.2020 06:25 7,8 C 6,7 C 80 % 1032,6 hPa 0,0 l/m 9,7 km/h (2 Bft) N-NO 22 0 min 0,0 UV-I 35 W/m 4,6 C 5,4 C 14,5 km/h (3 Bft)
28.05.2020 06:26 7,8 C 6,7 C 80 % 1032,6 hPa 0,0 l/m 8,0 km/h (2 Bft) N-NO 22 0 min 0,0 UV-I 35 W/m 4,6 C 6,5 C 12,9 km/h (3 Bft)
28.05.2020 06:27 7,8 C 6,7 C 80 % 1032,7 hPa 0,0 l/m 11,3 km/h (2 Bft) N-NO 22 0 min 0,0 UV-I 38 W/m 4,6 C 4,4 C 16,1 km/h (3 Bft)
28.05.2020 06:28 7,8 C 6,7 C 80 % 1032,6 hPa 0,0 l/m 8,0 km/h (2 Bft) N-NO 22 0 min 0,0 UV-I 40 W/m 4,6 C 6,5 C 12,9 km/h (3 Bft)
28.05.2020 06:29 7,8 C 6,7 C 80 % 1032,6 hPa 0,0 l/m 8,0 km/h (2 Bft) N-NO 22 0 min 0,0 UV-I 42 W/m 4,6 C 6,5 C 16,1 km/h (3 Bft)
28.05.2020 06:30 7,8 C 6,7 C 80 % 1032,7 hPa 0,0 l/m 9,7 km/h (2 Bft) N-NO 22 0 min 0,0 UV-I 42 W/m 4,6 C 5,4 C 14,5 km/h (3 Bft)
28.05.2020 06:31 7,8 C 6,7 C 80 % 1032,6 hPa 0,0 l/m 11,3 km/h (2 Bft) N-NO 22 0 min 0,0 UV-I 44 W/m 4,6 C 4,4 C 14,5 km/h (3 Bft)
28.05.2020 06:32 7,8 C 6,7 C 80 % 1032,6 hPa 0,0 l/m 8,0 km/h (2 Bft) N-NO 22 0 min 0,0 UV-I 46 W/m 4,6 C 6,5 C 12,9 km/h (3 Bft)
28.05.2020 06:33 7,8 C 6,7 C 80 % 1032,6 hPa 0,0 l/m 12,9 km/h (3 Bft) N-NO 22 0 min 0,0 UV-I 48 W/m 4,6 C 3,5 C 19,3 km/h (3 Bft)
28.05.2020 06:34 7,8 C 6,7 C 80 % 1032,7 hPa 0,0 l/m 11,3 km/h (2 Bft) N-NO 22 0 min 0,0 UV-I 51 W/m 4,6 C 4,4 C 17,7 km/h (3 Bft)
28.05.2020 06:35 7,9 C 6,7 C 80 % 1032,6 hPa 0,0 l/m 6,4 km/h (2 Bft) NO 45 0 min 0,0 UV-I 53 W/m 4,7 C 7,9 C 9,7 km/h (2 Bft)
28.05.2020 06:36 7,9 C 6,7 C 80 % 1032,6 hPa 0,0 l/m 9,7 km/h (2 Bft) N-NO 22 0 min 0,0 UV-I 54 W/m 4,7 C 5,5 C 14,5 km/h (3 Bft)
28.05.2020 06:37 7,9 C 6,7 C 79 % 1032,6 hPa 0,0 l/m 12,9 km/h (3 Bft) NO 45 0 min 0,0 UV-I 54 W/m 4,5 C 3,6 C 17,7 km/h (3 Bft)
28.05.2020 06:38 7,9 C 6,7 C 79 % 1032,6 hPa 0,0 l/m 9,7 km/h (2 Bft) N-NO 22 0 min 0,0 UV-I 56 W/m 4,5 C 5,5 C 14,5 km/h (3 Bft)
28.05.2020 06:39 7,9 C 6,7 C 80 % 1032,6 hPa 0,0 l/m 9,7 km/h (2 Bft) N-NO 22 0 min 0,0 UV-I 59 W/m 4,7 C 5,5 C 16,1 km/h (3 Bft)
28.05.2020 06:40 7,9 C 6,7 C 80 % 1032,6 hPa 0,0 l/m 11,3 km/h (2 Bft) N-NO 22 0 min 0,0 UV-I 62 W/m 4,7 C 4,5 C 14,5 km/h (3 Bft)
28.05.2020 06:41 7,9 C 6,7 C 80 % 1032,7 hPa 0,0 l/m 9,7 km/h (2 Bft) N-NO 22 0 min 0,0 UV-I 63 W/m 4,7 C 5,5 C 14,5 km/h (3 Bft)
28.05.2020 06:42 7,9 C 6,7 C 80 % 1032,6 hPa 0,0 l/m 9,7 km/h (2 Bft) N-NO 22 0 min 0,0 UV-I 65 W/m 4,7 C 5,5 C 14,5 km/h (3 Bft)
28.05.2020 06:43 8,0 C 6,7 C 80 % 1032,6 hPa 0,0 l/m 8,0 km/h (2 Bft) N-NO 22 0 min 0,0 UV-I 69 W/m 4,8 C 6,8 C 11,3 km/h (2 Bft)
28.05.2020 06:44 7,9 C 6,7 C 80 % 1032,5 hPa 0,0 l/m 11,3 km/h (2 Bft) N-NO 22 0 min 0,0 UV-I 70 W/m 4,7 C 4,5 C 14,5 km/h (3 Bft)
28.05.2020 06:45 7,9 C 6,7 C 79 % 1032,6 hPa 0,0 l/m 8,0 km/h (2 Bft) N-NO 22 0 min 0,0 UV-I 73 W/m 4,5 C 6,6 C 12,9 km/h (3 Bft)
28.05.2020 06:46 8,0 C 6,7 C 79 % 1032,7 hPa 0,0 l/m 6,4 km/h (2 Bft) N 360 0 min 0,0 UV-I 76 W/m 4,6 C 8,0 C 9,7 km/h (2 Bft)
28.05.2020 06:47 8,1 C 6,7 C 80 % 1032,7 hPa 0,0 l/m 6,4 km/h (2 Bft) NO 45 0 min 0,0 UV-I 77 W/m 4,9 C 8,1 C 11,3 km/h (2 Bft)
28.05.2020 06:48 8,1 C 6,7 C 79 % 1032,7 hPa 0,0 l/m 9,7 km/h (2 Bft) N-NO 22 0 min 0,0 UV-I 79 W/m 4,7 C 5,7 C 12,9 km/h (3 Bft)
28.05.2020 06:49 8,1 C 6,7 C 79 % 1032,7 hPa 0,0 l/m 9,7 km/h (2 Bft) N-NO 22 0 min 0,0 UV-I 81 W/m 4,7 C 5,7 C 12,9 km/h (3 Bft)
28.05.2020 06:50 8,1 C 6,7 C 79 % 1032,7 hPa 0,0 l/m 9,7 km/h (2 Bft) N-NO 22 0 min 0,0 UV-I 84 W/m 4,7 C 5,7 C 12,9 km/h (3 Bft)
28.05.2020 06:51 8,1 C 7,2 C 79 % 1032,7 hPa 0,0 l/m 9,7 km/h (2 Bft) N-NO 22 0 min 0,0 UV-I 87 W/m 4,7 C 5,7 C 14,5 km/h (3 Bft)
28.05.2020 06:52 8,1 C 7,2 C 79 % 1032,7 hPa 0,0 l/m 9,7 km/h (2 Bft) N 360 0 min 0,0 UV-I 90 W/m 4,7 C 5,7 C 12,9 km/h (3 Bft)
28.05.2020 06:53 8,2 C 7,2 C 79 % 1032,7 hPa 0,0 l/m 8,0 km/h (2 Bft) NO 45 0 min 0,0 UV-I 91 W/m 4,8 C 7,0 C 12,9 km/h (3 Bft)
28.05.2020 06:54 8,2 C 7,2 C 79 % 1032,8 hPa 0,0 l/m 9,7 km/h (2 Bft) N-NO 22 0 min 0,0 UV-I 95 W/m 4,8 C 5,8 C 12,9 km/h (3 Bft)
28.05.2020 06:55 8,2 C 7,2 C 79 % 1032,8 hPa 0,0 l/m 8,0 km/h (2 Bft) N-NO 22 0 min 0,0 UV-I 97 W/m 4,8 C 7,0 C 12,9 km/h (3 Bft)
28.05.2020 06:56 8,3 C 7,2 C 79 % 1032,7 hPa 0,0 l/m 11,3 km/h (2 Bft) N-NO 22 0 min 0,0 UV-I 98 W/m 4,9 C 4,9 C 16,1 km/h (3 Bft)
28.05.2020 06:57 8,3 C 7,2 C 79 % 1032,7 hPa 0,0 l/m 14,5 km/h (3 Bft) N-NO 22 0 min 0,0 UV-I 102 W/m 4,9 C 3,3 C 19,3 km/h (3 Bft)
28.05.2020 06:58 8,3 C 7,2 C 79 % 1032,7 hPa 0,0 l/m 12,9 km/h (3 Bft) N-NO 22 0 min 0,3 UV-I 105 W/m 4,9 C 4,1 C 16,1 km/h (3 Bft)
28.05.2020 06:59 8,4 C 7,8 C 79 % 1032,8 hPa 0,0 l/m 12,9 km/h (3 Bft) N-NO 22 0 min 0,5 UV-I 107 W/m 5,0 C 4,2 C 16,1 km/h (3 Bft)
28.05.2020 07:00 8,4 C 7,8 C 79 % 1032,7 hPa 0,0 l/m 11,3 km/h (2 Bft) N-NO 22 0 min 0,5 UV-I 111 W/m 5,0 C 5,1 C 16,1 km/h (3 Bft)
28.05.2020 07:01 8,4 C 7,8 C 79 % 1032,7 hPa 0,0 l/m 9,7 km/h (2 Bft) N-NO 22 0 min 0,5 UV-I 113 W/m 5,0 C 6,0 C 16,1 km/h (3 Bft)
28.05.2020 07:02 8,4 C 7,8 C 79 % 1032,7 hPa 0,0 l/m 9,7 km/h (2 Bft) N 360 0 min 0,5 UV-I 113 W/m 5,0 C 6,0 C 16,1 km/h (3 Bft)
28.05.2020 07:03 8,4 C 7,8 C 79 % 1032,7 hPa 0,0 l/m 8,0 km/h (2 Bft) N-NO 22 0 min 0,5 UV-I 114 W/m 5,0 C 7,2 C 11,3 km/h (2 Bft)
28.05.2020 07:04 8,4 C 8,3 C 79 % 1032,7 hPa 0,0 l/m 8,0 km/h (2 Bft) N-NO 22 0 min 0,5 UV-I 114 W/m 5,0 C 7,2 C 12,9 km/h (3 Bft)
28.05.2020 07:05 8,5 C 8,3 C 79 % 1032,6 hPa 0,0 l/m 9,7 km/h (2 Bft) N-NO 22 0 min 0,5 UV-I 114 W/m 5,1 C 6,1 C 14,5 km/h (3 Bft)
28.05.2020 07:06 8,5 C 8,3 C 78 % 1032,7 hPa 0,0 l/m 14,5 km/h (3 Bft) N-NO 22 0 min 0,5 UV-I 114 W/m 4,9 C 3,5 C 19,3 km/h (3 Bft)
28.05.2020 07:07 8,6 C 8,3 C 78 % 1032,6 hPa 0,0 l/m 12,9 km/h (3 Bft) N-NO 22 0 min 0,5 UV-I 114 W/m 5,0 C 4,4 C 16,1 km/h (3 Bft)
28.05.2020 07:08 8,6 C 8,9 C 78 % 1032,6 hPa 0,0 l/m 12,9 km/h (3 Bft) N-NO 22 0 min 0,5 UV-I 116 W/m 5,0 C 4,4 C 16,1 km/h (3 Bft)
28.05.2020 07:09 8,6 C 8,9 C 79 % 1032,7 hPa 0,0 l/m 12,9 km/h (3 Bft) N-NO 22 0 min 0,5 UV-I 116 W/m 5,2 C 4,4 C 16,1 km/h (3 Bft)
28.05.2020 07:10 8,6 C 8,9 C 79 % 1032,7 hPa 0,0 l/m 12,9 km/h (3 Bft) N-NO 22 0 min 0,6 UV-I 118 W/m 5,2 C 4,4 C 17,7 km/h (3 Bft)
28.05.2020 07:11 8,7 C 8,9 C 78 % 1032,7 hPa 0,0 l/m 11,3 km/h (2 Bft) N-NO 22 0 min 0,6 UV-I 120 W/m 5,1 C 5,4 C 16,1 km/h (3 Bft)
28.05.2020 07:12 8,7 C 8,9 C 78 % 1032,6 hPa 0,0 l/m 11,3 km/h (2 Bft) N-NO 22 0 min 0,6 UV-I 123 W/m 5,1 C 5,4 C 14,5 km/h (3 Bft)
28.05.2020 07:13 8,7 C 8,9 C 78 % 1032,6 hPa 0,0 l/m 11,3 km/h (2 Bft) N-NO 22 0 min 0,6 UV-I 125 W/m 5,1 C 5,4 C 16,1 km/h (3 Bft)
28.05.2020 07:14 8,8 C 8,9 C 78 % 1032,8 hPa 0,0 l/m 14,5 km/h (3 Bft) N-NO 22 0 min 0,6 UV-I 132 W/m 5,2 C 3,9 C 17,7 km/h (3 Bft)
28.05.2020 07:15 8,8 C 8,9 C 78 % 1032,6 hPa 0,0 l/m 12,9 km/h (3 Bft) N 360 0 min 0,6 UV-I 139 W/m 5,2 C 4,7 C 19,3 km/h (3 Bft)
28.05.2020 07:16 8,8 C 9,4 C 78 % 1032,6 hPa 0,0 l/m 16,1 km/h (3 Bft) N-NO 22 0 min 0,6 UV-I 142 W/m 5,2 C 3,2 C 19,3 km/h (3 Bft)
28.05.2020 07:17 8,8 C 9,4 C 78 % 1032,5 hPa 0,0 l/m 11,3 km/h (2 Bft) N-NO 22 0 min 0,6 UV-I 148 W/m 5,2 C 5,5 C 17,7 km/h (3 Bft)
28.05.2020 07:18 8,8 C 9,4 C 78 % 1032,6 hPa 0,0 l/m 11,3 km/h (2 Bft) N-NO 22 0 min 0,6 UV-I 155 W/m 5,2 C 5,5 C 19,3 km/h (3 Bft)
28.05.2020 07:19 8,8 C 9,4 C 78 % 1032,6 hPa 0,0 l/m 12,9 km/h (3 Bft) N-NO 22 0 min 0,7 UV-I 160 W/m 5,2 C 4,7 C 16,1 km/h (3 Bft)
28.05.2020 07:20 8,9 C 9,4 C 78 % 1032,5 hPa 0,0 l/m 16,1 km/h (3 Bft) N-NO 22 0 min 0,7 UV-I 168 W/m 5,3 C 3,3 C 22,5 km/h (4 Bft)
28.05.2020 07:21 8,9 C 9,4 C 78 % 1032,5 hPa 0,0 l/m 17,7 km/h (3 Bft) N-NO 22 0 min 0,7 UV-I 176 W/m 5,3 C 2,7 C 22,5 km/h (4 Bft)
28.05.2020 07:22 8,9 C 9,4 C 78 % 1032,4 hPa 0,0 l/m 11,3 km/h (2 Bft) N 360 0 min 0,7 UV-I 179 W/m 5,3 C 5,6 C 16,1 km/h (3 Bft)
28.05.2020 07:23 9,0 C 9,4 C 78 % 1032,4 hPa 0,0 l/m 8,0 km/h (2 Bft) N-NO 22 0 min 0,7 UV-I 181 W/m 5,4 C 7,8 C 16,1 km/h (3 Bft)
28.05.2020 07:24 9,1 C 9,4 C 78 % 1032,4 hPa 0,0 l/m 14,5 km/h (3 Bft) N 360 0 min 0,7 UV-I 183 W/m 5,5 C 4,3 C 22,5 km/h (4 Bft)
28.05.2020 07:25 9,1 C 9,4 C 78 % 1032,4 hPa 0,0 l/m 11,3 km/h (2 Bft) N 360 0 min 0,7 UV-I 186 W/m 5,5 C 5,9 C 19,3 km/h (3 Bft)
28.05.2020 07:26 9,1 C 10,0 C 78 % 1032,3 hPa 0,0 l/m 14,5 km/h (3 Bft) N 360 0 min 0,7 UV-I 190 W/m 5,5 C 4,3 C 19,3 km/h (3 Bft)
28.05.2020 07:27 9,1 C 10,0 C 78 % 1032,4 hPa 0,0 l/m 16,1 km/h (3 Bft) N-NO 22 0 min 0,8 UV-I 193 W/m 5,5 C 3,6 C 22,5 km/h (4 Bft)
28.05.2020 07:28 9,2 C 10,0 C 78 % 1032,3 hPa 0,0 l/m 14,5 km/h (3 Bft) N-NO 22 0 min 0,8 UV-I 197 W/m 5,6 C 4,4 C 22,5 km/h (4 Bft)
28.05.2020 07:29 9,2 C 10,0 C 78 % 1032,3 hPa 0,0 l/m 12,9 km/h (3 Bft) N 360 0 min 0,8 UV-I 199 W/m 5,6 C 5,1 C 16,1 km/h (3 Bft)
28.05.2020 07:30 9,2 C 10,0 C 78 % 1032,4 hPa 0,0 l/m 17,7 km/h (3 Bft) N-NO 22 0 min 0,8 UV-I 202 W/m 5,6 C 3,1 C 22,5 km/h (4 Bft)
28.05.2020 07:31 9,2 C 10,0 C 77 % 1032,3 hPa 0,0 l/m 12,9 km/h (3 Bft) N 360 0 min 0,8 UV-I 206 W/m 5,4 C 5,1 C 22,5 km/h (4 Bft)
28.05.2020 07:32 9,3 C 10,0 C 78 % 1032,3 hPa 0,0 l/m 14,5 km/h (3 Bft) N 360 0 min 0,8 UV-I 209 W/m 5,7 C 4,5 C 22,5 km/h (4 Bft)
28.05.2020 07:33 9,3 C 10,0 C 77 % 1032,3 hPa 0,0 l/m 14,5 km/h (3 Bft) N 360 0 min 0,8 UV-I 213 W/m 5,5 C 4,5 C 22,5 km/h (4 Bft)
28.05.2020 07:36 9,4 C 10,0 C 77 % 1032,4 hPa 0,0 l/m 20,2 km/h (4 Bft) N-NO 27 0 min 0,9 UV-I 220 W/m 5,6 C 2,4 C 27,4 km/h (4 Bft)
28.05.2020 07:38 9,4 C 10,0 C 77 % 1032,5 hPa 0,0 l/m 14,0 km/h (3 Bft) N 360 0 min 0,9 UV-I 225 W/m 5,6 C 4,9 C 25,7 km/h (4 Bft)
28.05.2020 07:40 9,4 C 10,6 C 77 % 1032,3 hPa 0,0 l/m 17,7 km/h (3 Bft) N 5 0 min 0,9 UV-I 231 W/m 5,6 C 3,3 C 29,0 km/h (5 Bft)
28.05.2020 07:42 9,6 C 10,6 C 77 % 1032,5 hPa 0,0 l/m 13,1 km/h (3 Bft) N 355 0 min 0,9 UV-I 237 W/m 5,8 C 5,5 C 19,3 km/h (3 Bft)
28.05.2020 07:44 9,6 C 10,6 C 77 % 1032,4 hPa 0,0 l/m 15,7 km/h (3 Bft) NO 34 0 min 1,0 UV-I 242 W/m 5,8 C 4,4 C 22,5 km/h (4 Bft)
28.05.2020 07:46 9,7 C 10,6 C 77 % 1032,5 hPa 0,0 l/m 18,3 km/h (3 Bft) N 350 0 min 1,0 UV-I 248 W/m 5,9 C 3,5 C 24,1 km/h (4 Bft)
28.05.2020 07:48 9,7 C 10,6 C 76 % 1032,5 hPa 0,0 l/m 18,3 km/h (3 Bft) N-NO 19 0 min 1,0 UV-I 252 W/m 5,7 C 3,5 C 27,4 km/h (4 Bft)
28.05.2020 07:50 9,7 C 11,1 C 77 % 1032,5 hPa 0,0 l/m 17,4 km/h (3 Bft) N 360 0 min 1,0 UV-I 257 W/m 5,9 C 3,8 C 25,7 km/h (4 Bft)
28.05.2020 07:52 9,8 C 11,1 C 77 % 1032,6 hPa 0,0 l/m 15,3 km/h (3 Bft) N 360 0 min 1,1 UV-I 263 W/m 6,0 C 4,8 C 19,3 km/h (3 Bft)
28.05.2020 07:54 9,8 C 11,1 C 77 % 1032,5 hPa 0,0 l/m 15,5 km/h (3 Bft) NO 34 0 min 1,1 UV-I 267 W/m 6,0 C 4,7 C 27,4 km/h (4 Bft)
28.05.2020 07:56 9,9 C 11,7 C 77 % 1032,6 hPa 0,0 l/m 11,7 km/h (2 Bft) N 360 0 min 1,1 UV-I 272 W/m 6,1 C 6,6 C 17,7 km/h (3 Bft)
28.05.2020 07:58 10,1 C 11,7 C 77 % 1032,5 hPa 0,0 l/m 12,7 km/h (3 Bft) N 10 0 min 1,2 UV-I 277 W/m 6,3 C 6,3 C 19,3 km/h (3 Bft)
28.05.2020 08:00 10,3 C 11,7 C 77 % 1032,6 hPa 0,0 l/m 15,9 km/h (3 Bft) NO 36 0 min 1,2 UV-I 282 W/m 6,4 C 5,1 C 22,5 km/h (4 Bft)
28.05.2020 08:02 10,3 C 11,7 C 76 % 1032,6 hPa 0,0 l/m 19,5 km/h (3 Bft) N 355 0 min 1,2 UV-I 288 W/m 6,3 C 3,8 C 25,7 km/h (4 Bft)
28.05.2020 08:04 10,4 C 12,2 C 77 % 1032,6 hPa 0,0 l/m 13,5 km/h (3 Bft) NO 42 0 min 1,2 UV-I 293 W/m 6,5 C 6,3 C 17,7 km/h (3 Bft)
28.05.2020 08:06 10,5 C 12,2 C 77 % 1032,6 hPa 0,0 l/m 10,6 km/h (2 Bft) N 360 0 min 1,3 UV-I 297 W/m 6,6 C 7,8 C 17,7 km/h (3 Bft)
28.05.2020 08:08 10,7 C 12,8 C 76 % 1032,6 hPa 0,0 l/m 16,0 km/h (3 Bft) N 5 0 min 1,3 UV-I 305 W/m 6,6 C 5,6 C 19,3 km/h (3 Bft)
28.05.2020 08:10 10,7 C 12,8 C 76 % 1032,6 hPa 0,0 l/m 12,9 km/h (3 Bft) N-NO 19 0 min 1,3 UV-I 309 W/m 6,6 C 6,9 C 19,3 km/h (3 Bft)
28.05.2020 08:12 10,9 C 12,8 C 76 % 1032,7 hPa 0,0 l/m 13,2 km/h (3 Bft) N-NO 17 0 min 1,3 UV-I 315 W/m 6,8 C 7,0 C 20,9 km/h (4 Bft)
28.05.2020 08:14 11,0 C 12,8 C 76 % 1032,7 hPa 0,0 l/m 15,6 km/h (3 Bft) N-NW 348 0 min 1,4 UV-I 320 W/m 6,9 C 6,1 C 20,9 km/h (4 Bft)
28.05.2020 08:16 11,0 C 12,8 C 76 % 1032,7 hPa 0,0 l/m 12,4 km/h (3 Bft) N 360 0 min 1,4 UV-I 325 W/m 6,9 C 7,5 C 20,9 km/h (4 Bft)
28.05.2020 08:18 11,1 C 13,3 C 76 % 1032,7 hPa 0,0 l/m 15,1 km/h (3 Bft) N-NO 26 0 min 1,4 UV-I 331 W/m 7,0 C 6,4 C 22,5 km/h (4 Bft)
28.05.2020 08:20 11,3 C 13,3 C 77 % 1032,6 hPa 0,0 l/m 11,5 km/h (2 Bft) N 9 0 min 1,5 UV-I 337 W/m 7,4 C 8,3 C 20,9 km/h (4 Bft)
28.05.2020 08:22 11,4 C 13,3 C 75 % 1032,6 hPa 0,0 l/m 17,1 km/h (3 Bft) N-NO 31 0 min 1,5 UV-I 343 W/m 7,1 C 6,0 C 22,5 km/h (4 Bft)
28.05.2020 08:24 11,4 C 13,3 C 75 % 1032,5 hPa 0,0 l/m 18,5 km/h (3 Bft) N-NO 19 0 min 1,5 UV-I 348 W/m 7,1 C 5,6 C 25,7 km/h (4 Bft)
28.05.2020 08:26 11,4 C 13,3 C 75 % 1032,6 hPa 0,0 l/m 15,3 km/h (3 Bft) NO 39 0 min 1,6 UV-I 354 W/m 7,1 C 6,7 C 24,1 km/h (4 Bft)
28.05.2020 08:28 11,6 C 13,3 C 75 % 1032,5 hPa 0,0 l/m 12,5 km/h (3 Bft) N-NO 20 0 min 1,6 UV-I 360 W/m 7,3 C 8,1 C 20,9 km/h (4 Bft)
28.05.2020 08:30 11,7 C 13,3 C 75 % 1032,6 hPa 0,0 l/m 12,1 km/h (2 Bft) N-NO 19 0 min 1,6 UV-I 365 W/m 7,4 C 8,4 C 19,3 km/h (3 Bft)
28.05.2020 08:32 11,8 C 13,3 C 74 % 1032,6 hPa 0,0 l/m 13,5 km/h (3 Bft) N 11 0 min 1,7 UV-I 371 W/m 7,3 C 7,9 C 20,9 km/h (4 Bft)
28.05.2020 08:34 11,9 C 13,3 C 74 % 1032,6 hPa 0,0 l/m 15,2 km/h (3 Bft) NO 36 0 min 1,7 UV-I 376 W/m 7,4 C 7,4 C 25,7 km/h (4 Bft)
28.05.2020 08:36 12,0 C 13,3 C 74 % 1032,5 hPa 0,0 l/m 10,8 km/h (2 Bft) O 84 0 min 1,8 UV-I 382 W/m 7,5 C 9,4 C 22,5 km/h (4 Bft)
28.05.2020 08:38 11,9 C 13,3 C 73 % 1032,6 hPa 0,0 l/m 16,2 km/h (3 Bft) NO 46 0 min 1,8 UV-I 388 W/m 7,2 C 7,0 C 20,9 km/h (4 Bft)
28.05.2020 08:40 11,9 C 13,3 C 73 % 1032,5 hPa 0,0 l/m 18,0 km/h (3 Bft) N-NO 18 0 min 1,8 UV-I 393 W/m 7,2 C 6,4 C 29,0 km/h (5 Bft)
28.05.2020 08:42 11,9 C 13,3 C 72 % 1032,6 hPa 0,0 l/m 18,6 km/h (3 Bft) NO 50 0 min 1,9 UV-I 399 W/m 7,0 C 6,2 C 25,7 km/h (4 Bft)
28.05.2020 08:44 11,8 C 12,8 C 73 % 1032,6 hPa 0,0 l/m 17,7 km/h (3 Bft) N-NO 29 0 min 1,9 UV-I 405 W/m 7,1 C 6,3 C 30,6 km/h (5 Bft)
28.05.2020 08:46 11,9 C 13,3 C 73 % 1032,6 hPa 0,0 l/m 15,7 km/h (3 Bft) N-NO 32 0 min 1,9 UV-I 410 W/m 7,2 C 7,2 C 25,7 km/h (4 Bft)
28.05.2020 08:48 12,0 C 13,3 C 72 % 1032,5 hPa 0,0 l/m 18,9 km/h (3 Bft) N-NO 22 0 min 2,0 UV-I 415 W/m 7,1 C 6,2 C 27,4 km/h (4 Bft)
28.05.2020 08:50 12,0 C 13,3 C 72 % 1032,6 hPa 0,0 l/m 20,6 km/h (4 Bft) NO 38 0 min 2,0 UV-I 421 W/m 7,1 C 5,7 C 27,4 km/h (4 Bft)
28.05.2020 08:52 12,1 C 13,9 C 72 % 1032,6 hPa 0,0 l/m 16,4 km/h (3 Bft) O 80 0 min 2,0 UV-I 425 W/m 7,2 C 7,2 C 22,5 km/h (4 Bft)
28.05.2020 08:54 12,2 C 13,9 C 72 % 1032,6 hPa 0,0 l/m 18,4 km/h (3 Bft) N-NO 32 0 min 2,1 UV-I 432 W/m 7,3 C 6,6 C 27,4 km/h (4 Bft)
28.05.2020 08:56 12,2 C 13,9 C 72 % 1032,6 hPa 0,0 l/m 24,7 km/h (4 Bft) NO 55 0 min 2,1 UV-I 437 W/m 7,3 C 4,9 C 35,4 km/h (5 Bft)
28.05.2020 08:58 12,2 C 13,3 C 71 % 1032,5 hPa 0,0 l/m 22,0 km/h (4 Bft) N 5 0 min 2,1 UV-I 442 W/m 7,1 C 5,6 C 30,6 km/h (5 Bft)
28.05.2020 09:00 12,2 C 13,9 C 72 % 1032,5 hPa 0,0 l/m 16,6 km/h (3 Bft) O-NO 69 0 min 2,2 UV-I 448 W/m 7,3 C 7,2 C 27,4 km/h (4 Bft)
28.05.2020 09:02 12,3 C 13,9 C 71 % 1032,6 hPa 0,0 l/m 19,4 km/h (3 Bft) NO 45 0 min 2,2 UV-I 454 W/m 7,2 C 6,4 C 25,7 km/h (4 Bft)
28.05.2020 09:04 12,4 C 13,9 C 71 % 1032,5 hPa 0,0 l/m 17,4 km/h (3 Bft) NO 49 0 min 2,2 UV-I 458 W/m 7,3 C 7,2 C 24,1 km/h (4 Bft)
28.05.2020 09:06 12,4 C 13,9 C 71 % 1032,4 hPa 0,0 l/m 20,6 km/h (4 Bft) NO 56 0 min 2,3 UV-I 464 W/m 7,3 C 6,2 C 32,2 km/h (5 Bft)
28.05.2020 09:08 12,5 C 13,9 C 70 % 1032,5 hPa 0,0 l/m 23,0 km/h (4 Bft) O-NO 57 0 min 2,3 UV-I 470 W/m 7,2 C 5,7 C 32,2 km/h (5 Bft)
28.05.2020 09:10 12,6 C 13,9 C 70 % 1032,5 hPa 0,0 l/m 21,6 km/h (4 Bft) NO 44 0 min 2,3 UV-I 474 W/m 7,3 C 6,2 C 32,2 km/h (5 Bft)
28.05.2020 09:12 12,5 C 13,9 C 69 % 1032,6 hPa 0,0 l/m 21,8 km/h (4 Bft) N-NO 26 0 min 2,4 UV-I 481 W/m 7,0 C 6,0 C 30,6 km/h (5 Bft)
28.05.2020 09:14 12,6 C 13,9 C 70 % 1032,5 hPa 0,0 l/m 21,5 km/h (4 Bft) NO 55 0 min 2,4 UV-I 484 W/m 7,3 C 6,2 C 27,4 km/h (4 Bft)
28.05.2020 09:16 12,6 C 14,4 C 69 % 1032,4 hPa 0,0 l/m 16,2 km/h (3 Bft) O-NO 75 0 min 2,5 UV-I 491 W/m 7,1 C 7,9 C 22,5 km/h (4 Bft)
28.05.2020 09:18 12,7 C 14,4 C 69 % 1032,6 hPa 0,0 l/m 19,4 km/h (3 Bft) NO 46 0 min 2,5 UV-I 497 W/m 7,2 C 6,9 C 27,4 km/h (4 Bft)
28.05.2020 09:20 12,7 C 14,4 C 70 % 1032,6 hPa 0,0 l/m 20,4 km/h (4 Bft) NO 49 0 min 2,5 UV-I 503 W/m 7,4 C 6,7 C 25,7 km/h (4 Bft)
28.05.2020 09:22 12,9 C 15,0 C 68 % 1032,5 hPa 0,0 l/m 20,8 km/h (4 Bft) NO 38 0 min 2,6 UV-I 507 W/m 7,1 C 6,8 C 32,2 km/h (5 Bft)
28.05.2020 09:24 12,9 C 15,0 C 68 % 1032,6 hPa 0,0 l/m 20,6 km/h (4 Bft) NO 40 0 min 2,6 UV-I 513 W/m 7,1 C 6,9 C 25,7 km/h (4 Bft)
28.05.2020 09:26 12,9 C 15,0 C 69 % 1032,6 hPa 0,0 l/m 16,6 km/h (3 Bft) O-NO 74 0 min 2,7 UV-I 518 W/m 7,4 C 8,1 C 25,7 km/h (4 Bft)
28.05.2020 09:28 13,1 C 15,0 C 68 % 1032,7 hPa 0,0 l/m 18,8 km/h (3 Bft) O-NO 69 0 min 2,7 UV-I 520 W/m 7,3 C 7,6 C 24,1 km/h (4 Bft)
28.05.2020 09:30 13,1 C 15,0 C 68 % 1032,6 hPa 0,0 l/m 12,8 km/h (3 Bft) NO 38 0 min 2,7 UV-I 526 W/m 7,3 C 9,7 C 22,5 km/h (4 Bft)
28.05.2020 09:32 13,3 C 15,6 C 69 % 1032,6 hPa 0,0 l/m 18,8 km/h (3 Bft) NO 42 0 min 2,8 UV-I 526 W/m 7,7 C 7,9 C 29,0 km/h (5 Bft)
28.05.2020 09:34 13,3 C 15,6 C 66 % 1032,6 hPa 0,0 l/m 21,4 km/h (4 Bft) O-NO 71 0 min 2,8 UV-I 525 W/m 7,1 C 7,2 C 29,0 km/h (5 Bft)
28.05.2020 09:36 13,2 C 15,6 C 67 % 1032,6 hPa 0,0 l/m 20,3 km/h (4 Bft) NO 46 0 min 2,9 UV-I 524 W/m 7,2 C 7,3 C 30,6 km/h (5 Bft)
28.05.2020 09:38 13,2 C 15,6 C 67 % 1032,6 hPa 0,0 l/m 16,9 km/h (3 Bft) NO 36 0 min 2,9 UV-I 521 W/m 7,2 C 8,4 C 29,0 km/h (5 Bft)
28.05.2020 09:40 13,3 C 15,6 C 68 % 1032,6 hPa 0,0 l/m 16,3 km/h (3 Bft) NO 37 0 min 2,9 UV-I 520 W/m 7,5 C 8,7 C 22,5 km/h (4 Bft)
28.05.2020 09:42 13,4 C 15,6 C 66 % 1032,6 hPa 0,0 l/m 18,0 km/h (3 Bft) NO 45 0 min 3,0 UV-I 520 W/m 7,2 C 8,3 C 24,1 km/h (4 Bft)
28.05.2020 09:44 13,4 C 15,6 C 66 % 1032,6 hPa 0,0 l/m 19,1 km/h (3 Bft) O-NO 59 0 min 3,0 UV-I 517 W/m 7,2 C 7,9 C 32,2 km/h (5 Bft)
28.05.2020 09:46 13,3 C 15,0 C 66 % 1032,5 hPa 0,0 l/m 26,4 km/h (4 Bft) N-NO 13 0 min 3,1 UV-I 512 W/m 7,1 C 6,0 C 33,8 km/h (5 Bft)
28.05.2020 09:48 13,3 C 15,0 C 67 % 1032,6 hPa 0,0 l/m 18,0 km/h (3 Bft) NO 38 0 min 3,1 UV-I 503 W/m 7,3 C 8,1 C 24,1 km/h (4 Bft)
28.05.2020 09:50 13,3 C 15,0 C 66 % 1032,5 hPa 0,0 l/m 21,6 km/h (4 Bft) N-NO 12 0 min 3,1 UV-I 502 W/m 7,1 C 7,1 C 33,8 km/h (5 Bft)
28.05.2020 09:52 13,4 C 15,6 C 65 % 1032,6 hPa 0,0 l/m 22,4 km/h (4 Bft) NO 34 0 min 3,1 UV-I 494 W/m 7,0 C 7,0 C 29,0 km/h (5 Bft)
28.05.2020 09:54 13,6 C 15,6 C 65 % 1032,6 hPa 0,0 l/m 22,4 km/h (4 Bft) N 5 0 min 3,2 UV-I 492 W/m 7,1 C 7,3 C 33,8 km/h (5 Bft)
28.05.2020 09:56 13,8 C 15,6 C 65 % 1032,5 hPa 0,0 l/m 21,8 km/h (4 Bft) NO 45 0 min 3,2 UV-I 489 W/m 7,3 C 7,7 C 33,8 km/h (5 Bft)
28.05.2020 09:58 13,7 C 15,6 C 63 % 1032,6 hPa 0,0 l/m 23,9 km/h (4 Bft) NO 42 0 min 3,3 UV-I 486 W/m 6,8 C 7,1 C 35,4 km/h (5 Bft)
28.05.2020 10:00 13,6 C 15,0 C 64 % 1032,6 hPa 0,0 l/m 24,6 km/h (4 Bft) NO 36 0 min 3,3 UV-I 483 W/m 6,9 C 6,8 C 33,8 km/h (5 Bft)
28.05.2020 10:02 13,6 C 15,0 C 63 % 1032,5 hPa 0,0 l/m 25,2 km/h (4 Bft) O-NO 67 0 min 3,4 UV-I 484 W/m 6,7 C 6,7 C 30,6 km/h (5 Bft)
28.05.2020 10:04 13,6 C 15,6 C 63 % 1032,5 hPa 0,0 l/m 21,7 km/h (4 Bft) NO 49 0 min 3,4 UV-I 486 W/m 6,7 C 7,5 C 30,6 km/h (5 Bft)
28.05.2020 10:06 13,7 C 15,6 C 64 % 1032,4 hPa 0,0 l/m 21,5 km/h (4 Bft) NO 47 0 min 3,5 UV-I 488 W/m 7,0 C 7,7 C 32,2 km/h (5 Bft)
28.05.2020 10:08 13,9 C 16,1 C 63 % 1032,5 hPa 0,0 l/m 20,6 km/h (4 Bft) NO 38 0 min 3,5 UV-I 491 W/m 7,0 C 8,2 C 25,7 km/h (4 Bft)
28.05.2020 10:10 14,0 C 16,1 C 62 % 1032,4 hPa 0,0 l/m 18,2 km/h (3 Bft) O-SO 105 0 min 3,6 UV-I 497 W/m 6,8 C 9,0 C 27,4 km/h (4 Bft)
28.05.2020 10:12 14,1 C 16,1 C 62 % 1032,4 hPa 0,0 l/m 20,6 km/h (4 Bft) O-NO 60 0 min 3,6 UV-I 506 W/m 6,9 C 8,4 C 33,8 km/h (5 Bft)
28.05.2020 10:14 14,1 C 16,1 C 62 % 1032,5 hPa 0,0 l/m 20,0 km/h (4 Bft) N-NO 16 0 min 3,6 UV-I 514 W/m 6,9 C 8,6 C 30,6 km/h (5 Bft)
28.05.2020 10:16 14,3 C 16,1 C 62 % 1032,5 hPa 0,0 l/m 23,3 km/h (4 Bft) O-NO 65 0 min 3,7 UV-I 525 W/m 7,1 C 8,0 C 30,6 km/h (5 Bft)
28.05.2020 10:18 14,3 C 16,7 C 60 % 1032,5 hPa 0,0 l/m 20,9 km/h (4 Bft) NO 34 0 min 3,7 UV-I 537 W/m 6,6 C 8,6 C 33,8 km/h (5 Bft)
28.05.2020 10:20 14,7 C 17,2 C 62 % 1032,6 hPa 0,0 l/m 21,1 km/h (4 Bft) NO 45 0 min 3,8 UV-I 549 W/m 7,5 C 9,1 C 33,8 km/h (5 Bft)
28.05.2020 10:22 14,8 C 17,2 C 59 % 1032,6 hPa 0,0 l/m 16,9 km/h (3 Bft) NO 43 0 min 3,8 UV-I 566 W/m 6,9 C 10,3 C 25,7 km/h (4 Bft)
28.05.2020 10:24 14,7 C 17,2 C 58 % 1032,5 hPa 0,0 l/m 22,3 km/h (4 Bft) N-NO 32 0 min 3,9 UV-I 581 W/m 6,5 C 8,8 C 33,8 km/h (5 Bft)
28.05.2020 10:26 14,7 C 17,2 C 61 % 1032,5 hPa 0,0 l/m 21,2 km/h (4 Bft) N-NO 22 2 min 3,9 UV-I 594 W/m 7,3 C 9,1 C 30,6 km/h (5 Bft)
28.05.2020 10:28 14,8 C 17,8 C 59 % 1032,6 hPa 0,0 l/m 19,4 km/h (3 Bft) NO 51 2 min 3,9 UV-I 613 W/m 6,9 C 9,6 C 25,7 km/h (4 Bft)
28.05.2020 10:30 14,7 C 17,2 C 58 % 1032,6 hPa 0,0 l/m 22,8 km/h (4 Bft) NO 38 2 min 4,0 UV-I 632 W/m 6,5 C 8,7 C 27,4 km/h (4 Bft)
28.05.2020 10:32 14,6 C 17,2 C 56 % 1032,5 hPa 0,0 l/m 22,3 km/h (4 Bft) NO 40 2 min 4,0 UV-I 648 W/m 5,9 C 8,7 C 30,6 km/h (5 Bft)
28.05.2020 10:34 14,6 C 16,7 C 55 % 1032,5 hPa 0,0 l/m 25,4 km/h (4 Bft) O-NO 59 2 min 4,1 UV-I 662 W/m 5,7 C 8,0 C 33,8 km/h (5 Bft)
28.05.2020 10:36 14,5 C 16,7 C 54 % 1032,6 hPa 0,0 l/m 23,1 km/h (4 Bft) NO 47 2 min 4,1 UV-I 677 W/m 5,3 C 8,3 C 33,8 km/h (5 Bft)
28.05.2020 10:38 14,5 C 17,2 C 55 % 1032,6 hPa 0,0 l/m 18,4 km/h (3 Bft) NO 41 2 min 4,1 UV-I 685 W/m 5,6 C 9,5 C 27,4 km/h (4 Bft)
28.05.2020 10:40 14,6 C 17,2 C 56 % 1032,5 hPa 0,0 l/m 17,8 km/h (3 Bft) O-NO 65 2 min 4,2 UV-I 692 W/m 5,9 C 9,8 C 24,1 km/h (4 Bft)
28.05.2020 10:42 14,7 C 17,2 C 57 % 1032,6 hPa 0,0 l/m 23,1 km/h (4 Bft) O-NO 61 2 min 4,2 UV-I 701 W/m 6,3 C 8,6 C 32,2 km/h (5 Bft)
28.05.2020 10:44 14,7 C 17,2 C 53 % 1032,5 hPa 0,0 l/m 24,9 km/h (4 Bft) N-NO 15 2 min 4,3 UV-I 708 W/m 5,2 C 8,2 C 32,2 km/h (5 Bft)
28.05.2020 10:46 14,8 C 17,8 C 54 % 1032,5 hPa 0,0 l/m 17,0 km/h (3 Bft) NO 39 2 min 4,3 UV-I 709 W/m 5,6 C 10,3 C 22,5 km/h (4 Bft)
28.05.2020 10:48 15,1 C 18,3 C 50 % 1032,5 hPa 0,0 l/m 18,4 km/h (3 Bft) N-NO 31 2 min 4,3 UV-I 712 W/m 4,8 C 10,3 C 29,0 km/h (5 Bft)
28.05.2020 10:50 15,1 C 18,3 C 52 % 1032,6 hPa 0,0 l/m 18,7 km/h (3 Bft) N-NO 33 2 min 4,4 UV-I 718 W/m 5,3 C 10,2 C 27,4 km/h (4 Bft)
28.05.2020 10:52 15,1 C 18,3 C 51 % 1032,7 hPa 0,0 l/m 19,0 km/h (3 Bft) O-NO 58 2 min 4,5 UV-I 722 W/m 5,0 C 10,1 C 27,4 km/h (4 Bft)
28.05.2020 10:54 15,0 C 18,3 C 49 % 1032,6 hPa 0,0 l/m 24,5 km/h (4 Bft) N-NW 343 2 min 4,5 UV-I 727 W/m 4,4 C 8,7 C 35,4 km/h (5 Bft)
28.05.2020 10:56 15,1 C 18,3 C 49 % 1032,5 hPa 0,0 l/m 20,3 km/h (4 Bft) NO 50 2 min 4,5 UV-I 731 W/m 4,5 C 9,8 C 27,4 km/h (4 Bft)
28.05.2020 10:58 15,1 C 18,3 C 49 % 1032,5 hPa 0,0 l/m 19,6 km/h (3 Bft) N-NO 32 2 min 4,6 UV-I 736 W/m 4,5 C 10,0 C 29,0 km/h (5 Bft)
28.05.2020 11:00 15,2 C 18,3 C 52 % 1032,4 hPa 0,0 l/m 15,0 km/h (3 Bft) O-NO 73 2 min 4,6 UV-I 738 W/m 5,4 C 11,4 C 22,5 km/h (4 Bft)
28.05.2020 11:02 15,3 C 18,3 C 49 % 1032,5 hPa 0,0 l/m 20,9 km/h (4 Bft) NO 41 2 min 4,7 UV-I 744 W/m 4,7 C 9,9 C 27,4 km/h (4 Bft)
28.05.2020 11:04 15,3 C 18,3 C 52 % 1032,5 hPa 0,0 l/m 21,8 km/h (4 Bft) O-NO 66 2 min 4,7 UV-I 745 W/m 5,5 C 9,7 C 37,0 km/h (5 Bft)
28.05.2020 11:06 15,2 C 18,3 C 49 % 1032,4 hPa 0,0 l/m 19,3 km/h (3 Bft) NO 50 2 min 4,7 UV-I 750 W/m 4,6 C 10,2 C 30,6 km/h (5 Bft)
28.05.2020 11:08 15,3 C 18,3 C 48 % 1032,5 hPa 0,0 l/m 21,6 km/h (4 Bft) N-NO 28 2 min 4,8 UV-I 754 W/m 4,4 C 9,7 C 29,0 km/h (5 Bft)
28.05.2020 11:10 15,3 C 18,9 C 48 % 1032,4 hPa 0,0 l/m 20,0 km/h (4 Bft) N-NO 28 2 min 4,8 UV-I 757 W/m 4,4 C 10,1 C 27,4 km/h (4 Bft)
28.05.2020 11:12 15,3 C 18,9 C 49 % 1032,5 hPa 0,0 l/m 19,3 km/h (3 Bft) NO 51 2 min 4,9 UV-I 763 W/m 4,7 C 10,3 C 29,0 km/h (5 Bft)
28.05.2020 11:14 15,3 C 18,9 C 47 % 1032,4 hPa 0,0 l/m 23,5 km/h (4 Bft) O-NO 67 2 min 4,9 UV-I 766 W/m 4,1 C 9,3 C 37,0 km/h (5 Bft)
28.05.2020 11:16 15,4 C 18,9 C 49 % 1032,4 hPa 0,0 l/m 19,5 km/h (3 Bft) N 5 2 min 4,9 UV-I 768 W/m 4,7 C 10,4 C 30,6 km/h (5 Bft)
28.05.2020 11:18 15,6 C 19,4 C 47 % 1032,5 hPa 0,0 l/m 21,1 km/h (4 Bft) O-NO 57 2 min 4,9 UV-I 771 W/m 4,3 C 10,3 C 30,6 km/h (5 Bft)
28.05.2020 11:20 15,5 C 19,4 C 46 % 1032,4 hPa 0,0 l/m 22,8 km/h (4 Bft) O-NO 74 2 min 5,0 UV-I 775 W/m 3,9 C 9,7 C 33,8 km/h (5 Bft)
28.05.2020 11:22 15,5 C 19,4 C 46 % 1032,2 hPa 0,0 l/m 21,1 km/h (4 Bft) NO 36 2 min 5,1 UV-I 782 W/m 3,9 C 10,1 C 32,2 km/h (5 Bft)
28.05.2020 11:24 15,6 C 20,6 C 47 % 1032,4 hPa 0,0 l/m 18,2 km/h (3 Bft) NO 53 2 min 5,1 UV-I 783 W/m 4,3 C 11,0 C 24,1 km/h (4 Bft)
28.05.2020 11:26 15,9 C 21,1 C 51 % 1032,4 hPa 0,0 l/m 16,9 km/h (3 Bft) N-NO 25 2 min 5,1 UV-I 782 W/m 5,8 C 11,7 C 29,0 km/h (5 Bft)
28.05.2020 11:28 16,3 C 21,7 C 48 % 1032,5 hPa 0,0 l/m 16,7 km/h (3 Bft) NO 46 2 min 5,2 UV-I 788 W/m 5,3 C 12,3 C 25,7 km/h (4 Bft)
28.05.2020 11:30 16,6 C 22,2 C 45 % 1032,4 hPa 0,0 l/m 17,7 km/h (3 Bft) N 11 2 min 5,3 UV-I 794 W/m 4,6 C 12,4 C 25,7 km/h (4 Bft)
28.05.2020 11:32 16,6 C 22,2 C 44 % 1032,3 hPa 0,0 l/m 18,7 km/h (3 Bft) O-NO 58 2 min 5,3 UV-I 798 W/m 4,3 C 12,1 C 27,4 km/h (4 Bft)
28.05.2020 11:34 16,3 C 21,1 C 44 % 1032,4 hPa 0,0 l/m 21,5 km/h (4 Bft) NO 39 2 min 5,4 UV-I 800 W/m 4,0 C 11,1 C 30,6 km/h (5 Bft)
28.05.2020 11:36 15,9 C 21,1 C 48 % 1032,2 hPa 0,0 l/m 20,8 km/h (4 Bft) NO 38 2 min 5,4 UV-I 803 W/m 4,9 C 10,7 C 30,6 km/h (5 Bft)
28.05.2020 11:38 16,1 C 21,1 C 48 % 1032,3 hPa 0,0 l/m 15,9 km/h (3 Bft) NO 42 2 min 5,4 UV-I 803 W/m 5,1 C 12,3 C 27,4 km/h (4 Bft)
28.05.2020 11:40 16,2 C 21,7 C 47 % 1032,3 hPa 0,0 l/m 20,9 km/h (4 Bft) O-NO 65 2 min 5,5 UV-I 808 W/m 4,9 C 11,1 C 29,0 km/h (5 Bft)
28.05.2020 11:42 16,4 C 22,8 C 48 % 1032,4 hPa 0,0 l/m 21,5 km/h (4 Bft) NO 39 2 min 5,5 UV-I 810 W/m 5,4 C 11,2 C 29,0 km/h (5 Bft)
28.05.2020 11:44 16,4 C 22,2 C 45 % 1032,4 hPa 0,0 l/m 17,8 km/h (3 Bft) NO 51 2 min 5,5 UV-I 814 W/m 4,4 C 12,1 C 24,1 km/h (4 Bft)
28.05.2020 11:46 16,6 C 22,8 C 49 % 1032,4 hPa 0,0 l/m 15,1 km/h (3 Bft) N-NO 27 2 min 5,6 UV-I 816 W/m 5,8 C 13,1 C 24,1 km/h (4 Bft)
28.05.2020 11:48 16,8 C 22,8 C 50 % 1032,4 hPa 0,0 l/m 18,9 km/h (3 Bft) N-NO 25 2 min 5,6 UV-I 816 W/m 6,3 C 12,3 C 27,4 km/h (4 Bft)
28.05.2020 11:50 16,7 C 23,3 C 48 % 1032,3 hPa 0,0 l/m 24,1 km/h (4 Bft) N-NO 24 2 min 5,7 UV-I 818 W/m 5,6 C 11,1 C 32,2 km/h (5 Bft)
28.05.2020 11:52 16,7 C 22,8 C 49 % 1032,4 hPa 0,0 l/m 19,9 km/h (4 Bft) N 5 2 min 5,7 UV-I 823 W/m 5,9 C 12,0 C 29,0 km/h (5 Bft)
28.05.2020 11:54 16,9 C 23,3 C 51 % 1032,3 hPa 0,0 l/m 16,0 km/h (3 Bft) N 5 2 min 5,7 UV-I 826 W/m 6,7 C 13,2 C 24,1 km/h (4 Bft)
28.05.2020 11:56 16,8 C 22,8 C 47 % 1032,4 hPa 0,0 l/m 20,6 km/h (4 Bft) N 351 2 min 5,8 UV-I 824 W/m 5,4 C 11,9 C 32,2 km/h (5 Bft)
28.05.2020 11:58 16,6 C 21,7 C 46 % 1032,4 hPa 0,0 l/m 23,4 km/h (4 Bft) NO 44 2 min 5,8 UV-I 831 W/m 4,9 C 11,1 C 30,6 km/h (5 Bft)
28.05.2020 12:00 16,5 C 22,2 C 48 % 1032,3 hPa 0,0 l/m 17,6 km/h (3 Bft) NO 50 2 min 5,8 UV-I 837 W/m 5,5 C 12,3 C 24,1 km/h (4 Bft)
28.05.2020 12:02 16,3 C 22,2 C 44 % 1032,3 hPa 0,0 l/m 14,5 km/h (3 Bft) O-NO 60 2 min 5,9 UV-I 837 W/m 4,0 C 12,9 C 22,5 km/h (4 Bft)
28.05.2020 12:04 16,7 C 23,3 C 51 % 1032,4 hPa 0,0 l/m 15,8 km/h (3 Bft) NO 53 2 min 5,9 UV-I 841 W/m 6,5 C 13,0 C 24,1 km/h (4 Bft)
28.05.2020 12:06 16,8 C 23,3 C 47 % 1032,4 hPa 0,0 l/m 14,9 km/h (3 Bft) N-NO 22 2 min 5,9 UV-I 843 W/m 5,4 C 13,4 C 24,1 km/h (4 Bft)
28.05.2020 12:08 17,0 C 22,8 C 47 % 1032,3 hPa 0,0 l/m 20,9 km/h (4 Bft) NO 48 2 min 5,9 UV-I 841 W/m 5,6 C 12,1 C 30,6 km/h (5 Bft)
28.05.2020 12:10 16,9 C 22,2 C 46 % 1032,3 hPa 0,0 l/m 21,5 km/h (4 Bft) N-NO 22 2 min 6,0 UV-I 847 W/m 5,2 C 11,9 C 32,2 km/h (5 Bft)
28.05.2020 12:12 16,7 C 22,2 C 46 % 1032,4 hPa 0,0 l/m 24,8 km/h (4 Bft) NO 34 2 min 6,0 UV-I 853 W/m 5,0 C 10,9 C 33,8 km/h (5 Bft)
28.05.2020 12:14 16,5 C 21,7 C 48 % 1032,5 hPa 0,0 l/m 18,8 km/h (3 Bft) N-NW 341 2 min 6,0 UV-I 849 W/m 5,5 C 12,0 C 30,6 km/h (5 Bft)
28.05.2020 12:16 16,8 C 22,8 C 51 % 1032,4 hPa 0,0 l/m 17,0 km/h (3 Bft) N-NO 31 2 min 6,1 UV-I 851 W/m 6,6 C 12,8 C 25,7 km/h (4 Bft)
28.05.2020 12:18 16,9 C 22,8 C 48 % 1032,4 hPa 0,0 l/m 16,0 km/h (3 Bft) NO 56 2 min 6,1 UV-I 853 W/m 5,8 C 13,2 C 29,0 km/h (5 Bft)
28.05.2020 12:20 16,8 C 22,8 C 50 % 1032,4 hPa 0,0 l/m 10,8 km/h (2 Bft) N-NO 25 2 min 6,1 UV-I 855 W/m 6,3 C 14,8 C 19,3 km/h (3 Bft)
28.05.2020 12:22 16,9 C 22,8 C 46 % 1032,3 hPa 0,0 l/m 15,8 km/h (3 Bft) NO 36 2 min 6,2 UV-I 864 W/m 5,2 C 13,3 C 22,5 km/h (4 Bft)
28.05.2020 12:24 16,7 C 22,2 C 42 % 1032,3 hPa 0,0 l/m 19,9 km/h (4 Bft) O-NO 67 2 min 6,3 UV-I 868 W/m 3,7 C 12,0 C 30,6 km/h (5 Bft)
28.05.2020 12:26 16,7 C 21,7 C 43 % 1032,4 hPa 0,0 l/m 20,1 km/h (4 Bft) NO 44 2 min 6,2 UV-I 866 W/m 4,1 C 11,9 C 27,4 km/h (4 Bft)
28.05.2020 12:28 16,8 C 22,2 C 43 % 1032,4 hPa 0,0 l/m 25,7 km/h (4 Bft) NO 38 2 min 6,2 UV-I 867 W/m 4,2 C 10,9 C 32,2 km/h (5 Bft)
28.05.2020 12:30 16,7 C 22,2 C 42 % 1032,4 hPa 0,0 l/m 27,0 km/h (4 Bft) N-NO 16 2 min 6,3 UV-I 873 W/m 3,7 C 10,6 C 35,4 km/h (5 Bft)
28.05.2020 12:32 17,0 C 22,8 C 47 % 1032,5 hPa 0,0 l/m 19,0 km/h (3 Bft) N-NO 28 2 min 6,3 UV-I 874 W/m 5,6 C 12,6 C 25,7 km/h (4 Bft)
28.05.2020 12:34 17,1 C 22,8 C 46 % 1032,5 hPa 0,0 l/m 17,9 km/h (3 Bft) N-NO 16 2 min 6,3 UV-I 878 W/m 5,4 C 13,0 C 33,8 km/h (5 Bft)
28.05.2020 12:36 17,5 C 23,9 C 50 % 1032,5 hPa 0,0 l/m 16,1 km/h (3 Bft) N 11 2 min 6,3 UV-I 878 W/m 7,0 C 13,9 C 22,5 km/h (4 Bft)
28.05.2020 12:38 17,4 C 23,9 C 47 % 1032,4 hPa 0,0 l/m 17,7 km/h (3 Bft) N-NO 27 2 min 6,4 UV-I 878 W/m 6,0 C 13,4 C 20,9 km/h (4 Bft)
28.05.2020 12:40 17,2 C 22,8 C 46 % 1032,5 hPa 0,0 l/m 19,2 km/h (3 Bft) NO 42 2 min 6,4 UV-I 882 W/m 5,5 C 12,8 C 25,7 km/h (4 Bft)
28.05.2020 12:42 16,8 C 22,2 C 43 % 1032,5 hPa 0,0 l/m 23,0 km/h (4 Bft) NO 55 2 min 6,4 UV-I 886 W/m 4,2 C 11,4 C 32,2 km/h (5 Bft)
28.05.2020 12:44 16,4 C 22,2 C 44 % 1032,6 hPa 0,0 l/m 19,1 km/h (3 Bft) NO 52 2 min 6,4 UV-I 885 W/m 4,1 C 11,8 C 27,4 km/h (4 Bft)
28.05.2020 12:46 16,7 C 22,8 C 47 % 1032,5 hPa 0,0 l/m 16,7 km/h (3 Bft) NO 34 2 min 6,4 UV-I 883 W/m 5,3 C 12,8 C 24,1 km/h (4 Bft)
28.05.2020 12:48 16,9 C 23,3 C 50 % 1032,5 hPa 0,0 l/m 14,9 km/h (3 Bft) N 360 2 min 6,4 UV-I 886 W/m 6,4 C 13,5 C 24,1 km/h (4 Bft)
28.05.2020 12:50 16,9 C 23,3 C 47 % 1032,4 hPa 0,0 l/m 15,8 km/h (3 Bft) NO 34 2 min 6,5 UV-I 887 W/m 5,5 C 13,3 C 22,5 km/h (4 Bft)
28.05.2020 12:52 17,1 C 23,9 C 44 % 1032,4 hPa 0,0 l/m 20,9 km/h (4 Bft) N-NO 33 2 min 6,5 UV-I 890 W/m 4,8 C 12,3 C 30,6 km/h (5 Bft)
28.05.2020 12:54 17,0 C 23,3 C 44 % 1032,4 hPa 0,0 l/m 22,2 km/h (4 Bft) NO 39 2 min 6,5 UV-I 895 W/m 4,7 C 11,9 C 29,0 km/h (5 Bft)
28.05.2020 12:56 16,8 C 23,3 C 45 % 1032,4 hPa 0,0 l/m 19,1 km/h (3 Bft) O-NO 61 2 min 6,5 UV-I 892 W/m 4,8 C 12,3 C 29,0 km/h (5 Bft)
28.05.2020 12:58 16,6 C 23,3 C 45 % 1032,4 hPa 0,0 l/m 20,8 km/h (4 Bft) NO 42 2 min 6,5 UV-I 893 W/m 4,6 C 11,6 C 27,4 km/h (4 Bft)
28.05.2020 13:00 16,7 C 22,8 C 47 % 1032,4 hPa 0,0 l/m 16,6 km/h (3 Bft) N-NO 24 2 min 6,5 UV-I 892 W/m 5,3 C 12,8 C 24,1 km/h (4 Bft)
28.05.2020 13:02 17,2 C 23,3 C 47 % 1032,4 hPa 0,0 l/m 18,2 km/h (3 Bft) N-NW 348 2 min 6,5 UV-I 894 W/m 5,8 C 13,0 C 25,7 km/h (4 Bft)
28.05.2020 13:04 17,3 C 23,9 C 46 % 1032,4 hPa 0,0 l/m 19,4 km/h (3 Bft) N-NO 19 2 min 6,5 UV-I 890 W/m 5,6 C 12,9 C 27,4 km/h (4 Bft)
28.05.2020 13:06 17,1 C 23,9 C 44 % 1032,3 hPa 0,0 l/m 24,6 km/h (4 Bft) N 5 2 min 6,5 UV-I 894 W/m 4,8 C 11,5 C 35,4 km/h (5 Bft)
28.05.2020 13:08 17,1 C 23,9 C 47 % 1032,4 hPa 0,0 l/m 20,7 km/h (4 Bft) N 5 2 min 6,5 UV-I 896 W/m 5,7 C 12,3 C 29,0 km/h (5 Bft)
28.05.2020 13:10 17,1 C 24,4 C 45 % 1032,4 hPa 0,0 l/m 16,3 km/h (3 Bft) N-NW 342 2 min 6,6 UV-I 896 W/m 5,1 C 13,4 C 25,7 km/h (4 Bft)
28.05.2020 13:12 17,3 C 24,4 C 46 % 1032,4 hPa 0,0 l/m 15,9 km/h (3 Bft) O-NO 66 2 min 6,6 UV-I 898 W/m 5,6 C 13,7 C 22,5 km/h (4 Bft)
28.05.2020 13:14 17,5 C 25,0 C 50 % 1032,3 hPa 0,0 l/m 11,1 km/h (2 Bft) N-NO 26 2 min 6,6 UV-I 899 W/m 7,0 C 15,5 C 20,9 km/h (4 Bft)
28.05.2020 13:16 17,7 C 25,6 C 44 % 1032,4 hPa 0,0 l/m 18,6 km/h (3 Bft) O-NO 67 2 min 6,6 UV-I 902 W/m 5,3 C 13,5 C 25,7 km/h (4 Bft)
28.05.2020 13:18 17,1 C 23,9 C 44 % 1032,3 hPa 0,0 l/m 20,0 km/h (4 Bft) NO 55 2 min 6,6 UV-I 900 W/m 4,8 C 12,5 C 27,4 km/h (4 Bft)
28.05.2020 13:20 16,9 C 23,3 C 44 % 1032,3 hPa 0,0 l/m 16,0 km/h (3 Bft) N-NO 27 2 min 6,6 UV-I 900 W/m 4,6 C 13,2 C 22,5 km/h (4 Bft)
28.05.2020 13:22 16,9 C 23,9 C 46 % 1032,3 hPa 0,0 l/m 12,4 km/h (3 Bft) NO 40 2 min 6,6 UV-I 900 W/m 5,2 C 14,3 C 19,3 km/h (3 Bft)
28.05.2020 13:24 17,3 C 23,9 C 51 % 1032,3 hPa 0,0 l/m 17,3 km/h (3 Bft) NO 35 2 min 6,6 UV-I 892 W/m 7,1 C 13,4 C 25,7 km/h (4 Bft)
28.05.2020 13:26 17,7 C 25,0 C 48 % 1032,3 hPa 0,0 l/m 19,9 km/h (4 Bft) NO 55 2 min 6,6 UV-I 893 W/m 6,6 C 13,3 C 30,6 km/h (5 Bft)
28.05.2020 13:28 17,4 C 23,9 C 43 % 1032,3 hPa 0,0 l/m 18,5 km/h (3 Bft) N-NW 338 2 min 6,7 UV-I 906 W/m 4,7 C 13,2 C 27,4 km/h (4 Bft)
28.05.2020 13:30 17,3 C 25,0 C 46 % 1032,2 hPa 0,0 l/m 16,1 km/h (3 Bft) N-NW 344 2 min 6,7 UV-I 907 W/m 5,6 C 13,7 C 27,4 km/h (4 Bft)
28.05.2020 13:32 17,3 C 25,0 C 46 % 1032,4 hPa 0,0 l/m 13,9 km/h (3 Bft) N-NO 31 2 min 6,7 UV-I 906 W/m 5,6 C 14,3 C 20,9 km/h (4 Bft)
28.05.2020 13:34 16,9 C 24,4 C 44 % 1032,2 hPa 0,0 l/m 11,4 km/h (2 Bft) NO 38 2 min 6,7 UV-I 904 W/m 4,6 C 14,7 C 17,7 km/h (3 Bft)
28.05.2020 13:36 17,3 C 24,4 C 48 % 1032,2 hPa 0,0 l/m 10,9 km/h (2 Bft) NO 54 2 min 6,6 UV-I 903 W/m 6,2 C 15,3 C 24,1 km/h (4 Bft)
28.05.2020 13:38 17,6 C 24,4 C 52 % 1032,1 hPa 0,0 l/m 17,4 km/h (3 Bft) N 351 2 min 6,6 UV-I 899 W/m 7,6 C 13,7 C 25,7 km/h (4 Bft)
28.05.2020 13:40 17,9 C 26,1 C 49 % 1032,1 hPa 0,0 l/m 13,5 km/h (3 Bft) N 360 2 min 6,6 UV-I 900 W/m 7,0 C 15,1 C 22,5 km/h (4 Bft)
28.05.2020 13:42 17,6 C 26,1 C 52 % 1032,0 hPa 0,0 l/m 8,6 km/h (2 Bft) N 5 2 min 6,6 UV-I 896 W/m 7,6 C 16,6 C 14,5 km/h (3 Bft)
28.05.2020 13:44 17,6 C 26,1 C 48 % 1032,1 hPa 0,0 l/m 14,8 km/h (3 Bft) N-NO 22 2 min 6,7 UV-I 898 W/m 6,5 C 14,4 C 22,5 km/h (4 Bft)
28.05.2020 13:46 17,7 C 25,6 C 48 % 1032,0 hPa 0,0 l/m 13,6 km/h (3 Bft) N-NO 20 2 min 6,7 UV-I 904 W/m 6,6 C 14,9 C 20,9 km/h (4 Bft)
28.05.2020 13:48 17,6 C 25,0 C 47 % 1032,0 hPa 0,0 l/m 16,2 km/h (3 Bft) O-NO 66 2 min 6,7 UV-I 903 W/m 6,2 C 14,0 C 25,7 km/h (4 Bft)
28.05.2020 13:50 17,6 C 24,4 C 49 % 1031,9 hPa 0,0 l/m 13,0 km/h (3 Bft) N-NO 13 2 min 6,6 UV-I 897 W/m 6,8 C 14,9 C 20,9 km/h (4 Bft)
28.05.2020 13:52 17,9 C 26,1 C 50 % 1031,8 hPa 0,0 l/m 9,6 km/h (2 Bft) NO 37 2 min 6,6 UV-I 899 W/m 7,3 C 16,5 C 12,9 km/h (3 Bft)
28.05.2020 13:54 18,0 C 26,7 C 50 % 1031,9 hPa 0,0 l/m 18,8 km/h (3 Bft) N 10 2 min 6,7 UV-I 902 W/m 7,4 C 13,9 C 27,4 km/h (4 Bft)
28.05.2020 13:56 17,6 C 25,6 C 44 % 1031,8 hPa 0,0 l/m 17,9 km/h (3 Bft) N-NO 24 2 min 6,6 UV-I 898 W/m 5,2 C 13,6 C 29,0 km/h (5 Bft)
28.05.2020 13:58 17,8 C 25,6 C 50 % 1031,8 hPa 0,0 l/m 17,5 km/h (3 Bft) N 11 2 min 6,6 UV-I 894 W/m 7,2 C 13,9 C 25,7 km/h (4 Bft)
28.05.2020 14:00 17,8 C 26,1 C 47 % 1031,7 hPa 0,0 l/m 18,8 km/h (3 Bft) N-NO 28 2 min 6,6 UV-I 895 W/m 6,3 C 13,6 C 27,4 km/h (4 Bft)
28.05.2020 14:02 18,1 C 26,1 C 46 % 1031,7 hPa 0,0 l/m 18,1 km/h (3 Bft) N-NO 17 2 min 6,6 UV-I 900 W/m 6,3 C 14,2 C 24,1 km/h (4 Bft)
28.05.2020 14:04 17,9 C 25,6 C 45 % 1031,7 hPa 0,0 l/m 22,0 km/h (4 Bft) NW 324 2 min 6,6 UV-I 892 W/m 5,8 C 13,1 C 30,6 km/h (5 Bft)
28.05.2020 14:06 17,7 C 25,6 C 46 % 1031,7 hPa 0,0 l/m 24,2 km/h (4 Bft) N 360 2 min 6,6 UV-I 896 W/m 5,9 C 12,4 C 33,8 km/h (5 Bft)
28.05.2020 14:08 17,6 C 25,6 C 48 % 1031,6 hPa 0,0 l/m 12,4 km/h (3 Bft) N 360 2 min 6,6 UV-I 894 W/m 6,5 C 15,1 C 19,3 km/h (3 Bft)
28.05.2020 14:10 18,0 C 26,1 C 50 % 1031,7 hPa 0,0 l/m 11,4 km/h (2 Bft) N 5 2 min 6,6 UV-I 893 W/m 7,4 C 15,9 C 17,7 km/h (3 Bft)
28.05.2020 14:12 18,2 C 26,1 C 42 % 1031,5 hPa 0,0 l/m 19,4 km/h (3 Bft) NO 36 2 min 6,6 UV-I 900 W/m 5,1 C 14,0 C 27,4 km/h (4 Bft)
28.05.2020 14:14 18,1 C 25,6 C 44 % 1031,6 hPa 0,0 l/m 18,7 km/h (3 Bft) N-NO 30 2 min 6,6 UV-I 902 W/m 5,7 C 14,0 C 27,4 km/h (4 Bft)
28.05.2020 14:16 18,1 C 25,6 C 45 % 1031,6 hPa 0,0 l/m 14,6 km/h (3 Bft) NO 47 2 min 6,6 UV-I 899 W/m 6,0 C 15,1 C 20,9 km/h (4 Bft)
28.05.2020 14:18 18,3 C 26,1 C 46 % 1031,6 hPa 0,0 l/m 13,9 km/h (3 Bft) O-NO 58 2 min 6,5 UV-I 892 W/m 6,5 C 15,5 C 25,7 km/h (4 Bft)
28.05.2020 14:20 18,2 C 25,6 C 40 % 1031,5 hPa 0,0 l/m 17,3 km/h (3 Bft) NO 35 2 min 6,5 UV-I 889 W/m 4,4 C 14,5 C 32,2 km/h (5 Bft)
28.05.2020 14:22 18,1 C 25,0 C 43 % 1031,6 hPa 0,0 l/m 14,3 km/h (3 Bft) N-NO 16 2 min 6,5 UV-I 890 W/m 5,3 C 15,1 C 20,9 km/h (4 Bft)
28.05.2020 14:24 18,1 C 25,6 C 39 % 1031,6 hPa 0,0 l/m 15,3 km/h (3 Bft) NO 34 2 min 6,5 UV-I 891 W/m 3,9 C 14,9 C 22,5 km/h (4 Bft)
28.05.2020 14:26 18,1 C 25,0 C 43 % 1031,5 hPa 0,0 l/m 20,6 km/h (4 Bft) N 9 2 min 6,5 UV-I 890 W/m 5,3 C 13,6 C 29,0 km/h (5 Bft)
28.05.2020 14:28 18,2 C 25,6 C 41 % 1031,5 hPa 0,0 l/m 19,1 km/h (3 Bft) N-NO 18 2 min 6,4 UV-I 884 W/m 4,7 C 14,1 C 27,4 km/h (4 Bft)
28.05.2020 14:30 18,3 C 26,1 C 42 % 1031,6 hPa 0,0 l/m 16,9 km/h (3 Bft) N-NO 22 2 min 6,4 UV-I 882 W/m 5,2 C 14,7 C 22,5 km/h (4 Bft)
28.05.2020 14:32 17,9 C 26,7 C 41 % 1031,4 hPa 0,0 l/m 17,6 km/h (3 Bft) NO 43 2 min 6,4 UV-I 886 W/m 4,5 C 14,0 C 25,7 km/h (4 Bft)
28.05.2020 14:34 18,2 C 26,7 C 47 % 1031,4 hPa 0,0 l/m 15,1 km/h (3 Bft) N-NO 12 2 min 6,4 UV-I 884 W/m 6,7 C 15,0 C 20,9 km/h (4 Bft)
28.05.2020 14:36 18,4 C 27,2 C 41 % 1031,4 hPa 0,0 l/m 12,5 km/h (3 Bft) N 11 2 min 6,4 UV-I 882 W/m 4,9 C 16,0 C 22,5 km/h (4 Bft)
28.05.2020 14:38 18,3 C 27,2 C 42 % 1031,4 hPa 0,0 l/m 17,6 km/h (3 Bft) N 9 2 min 6,4 UV-I 880 W/m 5,2 C 14,5 C 29,0 km/h (5 Bft)
28.05.2020 14:40 18,2 C 26,7 C 43 % 1031,4 hPa 0,0 l/m 20,4 km/h (4 Bft) N-NO 29 2 min 6,4 UV-I 878 W/m 5,4 C 13,8 C 27,4 km/h (4 Bft)
28.05.2020 14:42 18,1 C 25,6 C 41 % 1031,4 hPa 0,0 l/m 17,0 km/h (3 Bft) NO 55 2 min 6,3 UV-I 875 W/m 4,6 C 14,4 C 25,7 km/h (4 Bft)
28.05.2020 14:44 18,2 C 25,6 C 41 % 1031,4 hPa 0,0 l/m 17,5 km/h (3 Bft) N 5 2 min 6,3 UV-I 874 W/m 4,7 C 14,4 C 27,4 km/h (4 Bft)
28.05.2020 14:46 18,0 C 26,1 C 41 % 1031,4 hPa 0,0 l/m 21,4 km/h (4 Bft) N 355 2 min 6,3 UV-I 872 W/m 4,6 C 13,3 C 25,7 km/h (4 Bft)
28.05.2020 14:48 17,8 C 26,1 C 42 % 1031,3 hPa 0,0 l/m 10,7 km/h (2 Bft) N-NO 21 2 min 6,2 UV-I 871 W/m 4,7 C 15,9 C 17,7 km/h (3 Bft)
28.05.2020 14:50 18,1 C 26,1 C 43 % 1031,4 hPa 0,0 l/m 16,4 km/h (3 Bft) N-NO 25 2 min 6,2 UV-I 869 W/m 5,3 C 14,6 C 25,7 km/h (4 Bft)
28.05.2020 14:52 18,4 C 26,7 C 40 % 1031,4 hPa 0,0 l/m 22,2 km/h (4 Bft) N 360 2 min 6,2 UV-I 868 W/m 4,6 C 13,7 C 30,6 km/h (5 Bft)
28.05.2020 14:54 18,3 C 26,7 C 40 % 1031,4 hPa 0,0 l/m 25,0 km/h (4 Bft) N 11 2 min 6,2 UV-I 862 W/m 4,5 C 13,1 C 33,8 km/h (5 Bft)
28.05.2020 14:56 18,1 C 26,7 C 39 % 1031,4 hPa 0,0 l/m 24,8 km/h (4 Bft) N-NW 340 2 min 6,1 UV-I 864 W/m 3,9 C 12,8 C 30,6 km/h (5 Bft)
28.05.2020 14:58 18,1 C 26,7 C 41 % 1031,4 hPa 0,0 l/m 16,1 km/h (3 Bft) N-NW 339 2 min 6,1 UV-I 865 W/m 4,6 C 14,7 C 22,5 km/h (4 Bft)
28.05.2020 15:00 17,8 C 26,7 C 41 % 1031,3 hPa 0,0 l/m 9,7 km/h (2 Bft) N-NO 16 2 min 6,1 UV-I 862 W/m 4,4 C 16,3 C 14,5 km/h (3 Bft)
28.05.2020 15:02 17,9 C 26,1 C 43 % 1031,3 hPa 0,0 l/m 17,4 km/h (3 Bft) N-NO 30 2 min 6,1 UV-I 857 W/m 5,1 C 14,1 C 25,7 km/h (4 Bft)
28.05.2020 15:04 18,2 C 26,7 C 43 % 1031,4 hPa 0,0 l/m 21,9 km/h (4 Bft) N-NO 26 2 min 6,0 UV-I 856 W/m 5,4 C 13,5 C 30,6 km/h (5 Bft)
28.05.2020 15:06 18,3 C 27,2 C 40 % 1031,3 hPa 0,0 l/m 23,6 km/h (4 Bft) N-NW 337 2 min 6,0 UV-I 855 W/m 4,5 C 13,3 C 32,2 km/h (5 Bft)
28.05.2020 15:08 18,2 C 26,7 C 39 % 1031,3 hPa 0,0 l/m 23,5 km/h (4 Bft) N 5 2 min 6,0 UV-I 854 W/m 4,0 C 13,2 C 33,8 km/h (5 Bft)
28.05.2020 15:10 18,0 C 26,7 C 39 % 1031,2 hPa 0,0 l/m 23,0 km/h (4 Bft) N-NO 22 2 min 5,9 UV-I 849 W/m 3,8 C 13,0 C 30,6 km/h (5 Bft)
28.05.2020 15:12 18,1 C 26,1 C 42 % 1031,2 hPa 0,0 l/m 19,5 km/h (3 Bft) N-NW 346 2 min 5,9 UV-I 847 W/m 5,0 C 13,9 C 27,4 km/h (4 Bft)
28.05.2020 15:14 18,3 C 27,2 C 44 % 1031,2 hPa 0,0 l/m 13,0 km/h (3 Bft) N 5 2 min 5,9 UV-I 846 W/m 5,8 C 15,8 C 19,3 km/h (3 Bft)
28.05.2020 15:16 18,4 C 27,2 C 43 % 1031,3 hPa 0,0 l/m 13,7 km/h (3 Bft) N-NO 15 2 min 5,9 UV-I 842 W/m 5,6 C 15,7 C 19,3 km/h (3 Bft)
28.05.2020 15:18 18,7 C 27,2 C 42 % 1031,3 hPa 0,0 l/m 16,8 km/h (3 Bft) N-NO 22 2 min 5,9 UV-I 839 W/m 5,5 C 15,2 C 27,4 km/h (4 Bft)
28.05.2020 15:20 18,9 C 27,8 C 42 % 1031,3 hPa 0,0 l/m 16,4 km/h (3 Bft) N-NO 13 2 min 5,8 UV-I 835 W/m 5,7 C 15,6 C 24,1 km/h (4 Bft)
28.05.2020 15:22 19,0 C 27,8 C 41 % 1031,3 hPa 0,0 l/m 19,1 km/h (3 Bft) N-NO 32 2 min 5,8 UV-I 839 W/m 5,4 C 15,1 C 27,4 km/h (4 Bft)
28.05.2020 15:24 18,7 C 27,2 C 39 % 1031,3 hPa 0,0 l/m 15,8 km/h (3 Bft) NO 38 2 min 5,8 UV-I 838 W/m 4,5 C 15,5 C 20,9 km/h (4 Bft)
28.05.2020 15:26 18,6 C 27,2 C 42 % 1031,3 hPa 0,0 l/m 17,8 km/h (3 Bft) N 9 2 min 5,8 UV-I 833 W/m 5,4 C 14,9 C 22,5 km/h (4 Bft)
28.05.2020 15:28 18,6 C 27,2 C 40 % 1031,2 hPa 0,0 l/m 17,8 km/h (3 Bft) NW 321 2 min 5,7 UV-I 828 W/m 4,7 C 14,9 C 25,7 km/h (4 Bft)
28.05.2020 15:30 18,2 C 26,1 C 42 % 1031,2 hPa 0,0 l/m 9,2 km/h (2 Bft) O-NO 65 2 min 5,6 UV-I 824 W/m 5,1 C 17,0 C 16,1 km/h (3 Bft)
28.05.2020 15:32 18,4 C 26,7 C 41 % 1031,3 hPa 0,0 l/m 20,7 km/h (4 Bft) N-NO 28 2 min 5,6 UV-I 822 W/m 4,9 C 14,0 C 32,2 km/h (5 Bft)
28.05.2020 15:34 18,5 C 26,7 C 43 % 1031,4 hPa 0,0 l/m 19,4 km/h (3 Bft) N 350 2 min 5,6 UV-I 818 W/m 5,7 C 14,4 C 27,4 km/h (4 Bft)
28.05.2020 15:36 18,6 C 26,7 C 41 % 1031,2 hPa 0,0 l/m 17,8 km/h (3 Bft) N 360 2 min 5,6 UV-I 816 W/m 5,1 C 14,9 C 29,0 km/h (5 Bft)
28.05.2020 15:38 18,3 C 26,7 C 38 % 1031,2 hPa 0,0 l/m 16,0 km/h (3 Bft) N-NO 31 2 min 5,5 UV-I 816 W/m 3,7 C 14,9 C 29,0 km/h (5 Bft)
28.05.2020 15:40 18,2 C 26,7 C 39 % 1031,4 hPa 0,0 l/m 16,1 km/h (3 Bft) N 355 2 min 5,5 UV-I 813 W/m 4,0 C 14,8 C 20,9 km/h (4 Bft)
28.05.2020 15:42 18,1 C 27,2 C 38 % 1031,2 hPa 0,0 l/m 20,9 km/h (4 Bft) N-NW 345 2 min 5,5 UV-I 809 W/m 3,6 C 13,6 C 29,0 km/h (5 Bft)
28.05.2020 15:44 18,1 C 26,7 C 40 % 1031,3 hPa 0,0 l/m 15,3 km/h (3 Bft) N 355 2 min 5,4 UV-I 806 W/m 4,3 C 14,9 C 22,5 km/h (4 Bft)
28.05.2020 15:46 18,3 C 27,2 C 40 % 1031,3 hPa 0,0 l/m 22,1 km/h (4 Bft) N 355 2 min 5,4 UV-I 803 W/m 4,5 C 13,6 C 30,6 km/h (5 Bft)
28.05.2020 15:48 18,4 C 27,2 C 41 % 1031,3 hPa 0,0 l/m 14,3 km/h (3 Bft) NO 36 2 min 5,4 UV-I 801 W/m 4,9 C 15,5 C 20,9 km/h (4 Bft)
28.05.2020 15:50 18,4 C 27,2 C 43 % 1031,2 hPa 0,0 l/m 10,4 km/h (2 Bft) N-NO 24 2 min 5,3 UV-I 797 W/m 5,6 C 16,7 C 17,7 km/h (3 Bft)
28.05.2020 15:52 18,3 C 27,2 C 39 % 1031,2 hPa 0,0 l/m 15,0 km/h (3 Bft) N-NO 26 2 min 5,3 UV-I 795 W/m 4,1 C 15,2 C 24,1 km/h (4 Bft)
28.05.2020 15:54 18,3 C 27,2 C 40 % 1031,2 hPa 0,0 l/m 16,8 km/h (3 Bft) N-NO 13 2 min 5,2 UV-I 791 W/m 4,5 C 14,7 C 24,1 km/h (4 Bft)
28.05.2020 15:56 18,3 C 27,2 C 40 % 1031,2 hPa 0,0 l/m 16,9 km/h (3 Bft) W 274 2 min 5,2 UV-I 788 W/m 4,5 C 14,7 C 22,5 km/h (4 Bft)
28.05.2020 15:58 18,3 C 27,2 C 40 % 1031,1 hPa 0,0 l/m 18,1 km/h (3 Bft) N 355 2 min 5,2 UV-I 787 W/m 4,5 C 14,4 C 25,7 km/h (4 Bft)
28.05.2020 16:00 18,2 C 27,2 C 39 % 1031,1 hPa 0,0 l/m 19,6 km/h (3 Bft) N-NO 26 2 min 5,1 UV-I 782 W/m 4,0 C 14,0 C 25,7 km/h (4 Bft)
28.05.2020 16:02 18,4 C 26,7 C 38 % 1031,1 hPa 0,0 l/m 18,6 km/h (3 Bft) NO 51 2 min 5,1 UV-I 777 W/m 3,8 C 14,4 C 29,0 km/h (5 Bft)
28.05.2020 16:04 18,4 C 25,6 C 37 % 1031,1 hPa 0,0 l/m 12,6 km/h (3 Bft) N 355 2 min 5,1 UV-I 778 W/m 3,5 C 16,0 C 20,9 km/h (4 Bft)
28.05.2020 16:06 18,5 C 25,6 C 40 % 1031,0 hPa 0,0 l/m 13,3 km/h (3 Bft) NO 37 2 min 5,0 UV-I 775 W/m 4,6 C 15,9 C 22,5 km/h (4 Bft)
28.05.2020 16:08 18,6 C 25,6 C 40 % 1031,1 hPa 0,0 l/m 20,3 km/h (4 Bft) N-NO 31 2 min 5,0 UV-I 764 W/m 4,7 C 14,3 C 32,2 km/h (5 Bft)
28.05.2020 16:10 18,3 C 26,1 C 42 % 1031,1 hPa 0,0 l/m 19,8 km/h (3 Bft) N-NW 330 2 min 4,9 UV-I 761 W/m 5,2 C 14,1 C 30,6 km/h (5 Bft)
28.05.2020 16:12 18,2 C 26,7 C 41 % 1031,1 hPa 0,0 l/m 20,9 km/h (4 Bft) NW 319 2 min 4,9 UV-I 756 W/m 4,7 C 13,7 C 27,4 km/h (4 Bft)
28.05.2020 16:14 18,2 C 26,1 C 42 % 1031,0 hPa 0,0 l/m 20,8 km/h (4 Bft) N-NW 331 2 min 4,8 UV-I 751 W/m 5,1 C 13,7 C 27,4 km/h (4 Bft)
28.05.2020 16:16 18,2 C 27,2 C 40 % 1031,0 hPa 0,0 l/m 18,4 km/h (3 Bft) N 355 2 min 4,8 UV-I 749 W/m 4,4 C 14,2 C 25,7 km/h (4 Bft)
28.05.2020 16:18 18,1 C 26,1 C 42 % 1031,0 hPa 0,0 l/m 14,3 km/h (3 Bft) N-NO 25 2 min 4,8 UV-I 745 W/m 5,0 C 15,1 C 22,5 km/h (4 Bft)
28.05.2020 16:20 18,2 C 26,7 C 44 % 1030,9 hPa 0,0 l/m 13,2 km/h (3 Bft) N 5 2 min 4,7 UV-I 739 W/m 5,7 C 15,6 C 20,9 km/h (4 Bft)
28.05.2020 16:22 18,4 C 26,7 C 43 % 1030,9 hPa 0,0 l/m 15,8 km/h (3 Bft) NO 34 2 min 4,7 UV-I 732 W/m 5,6 C 15,1 C 22,5 km/h (4 Bft)
28.05.2020 16:24 18,5 C 26,7 C 42 % 1030,9 hPa 0,0 l/m 17,8 km/h (3 Bft) N-NO 20 2 min 4,6 UV-I 732 W/m 5,3 C 14,7 C 32,2 km/h (5 Bft)
28.05.2020 16:26 18,5 C 27,2 C 40 % 1030,8 hPa 0,0 l/m 17,2 km/h (3 Bft) N-NO 30 2 min 4,6 UV-I 728 W/m 4,6 C 14,9 C 29,0 km/h (5 Bft)
28.05.2020 16:28 18,6 C 26,7 C 41 % 1030,8 hPa 0,0 l/m 19,1 km/h (3 Bft) N 5 2 min 4,5 UV-I 727 W/m 5,1 C 14,6 C 27,4 km/h (4 Bft)
28.05.2020 16:30 18,5 C 26,7 C 40 % 1030,8 hPa 0,0 l/m 25,0 km/h (4 Bft) N 349 2 min 4,5 UV-I 723 W/m 4,6 C 13,4 C 33,8 km/h (5 Bft)
28.05.2020 16:32 18,3 C 26,1 C 41 % 1030,8 hPa 0,0 l/m 21,2 km/h (4 Bft) N 355 2 min 4,5 UV-I 720 W/m 4,8 C 13,8 C 29,0 km/h (5 Bft)
28.05.2020 16:34 18,4 C 26,7 C 41 % 1030,9 hPa 0,0 l/m 18,7 km/h (3 Bft) NW 319 2 min 4,4 UV-I 714 W/m 4,9 C 14,4 C 30,6 km/h (5 Bft)
28.05.2020 16:36 18,4 C 26,7 C 38 % 1030,9 hPa 0,0 l/m 16,6 km/h (3 Bft) NW 318 2 min 4,4 UV-I 712 W/m 3,8 C 14,9 C 30,6 km/h (5 Bft)
28.05.2020 16:38 18,3 C 26,1 C 39 % 1030,9 hPa 0,0 l/m 23,1 km/h (4 Bft) N-NO 24 2 min 4,3 UV-I 708 W/m 4,1 C 13,4 C 32,2 km/h (5 Bft)
28.05.2020 16:40 18,3 C 26,1 C 40 % 1030,8 hPa 0,0 l/m 21,5 km/h (4 Bft) N 5 2 min 4,3 UV-I 704 W/m 4,5 C 13,7 C 29,0 km/h (5 Bft)
28.05.2020 16:42 18,4 C 26,7 C 39 % 1030,9 hPa 0,0 l/m 19,6 km/h (3 Bft) N-NO 19 2 min 4,3 UV-I 700 W/m 4,2 C 14,2 C 27,4 km/h (4 Bft)
28.05.2020 16:44 18,4 C 27,2 C 40 % 1030,8 hPa 0,0 l/m 12,3 km/h (3 Bft) N-NO 20 2 min 4,2 UV-I 696 W/m 4,6 C 16,1 C 17,7 km/h (3 Bft)
28.05.2020 16:46 18,4 C 27,8 C 39 % 1030,8 hPa 0,0 l/m 14,2 km/h (3 Bft) N-NO 24 2 min 4,2 UV-I 694 W/m 4,2 C 15,5 C 22,5 km/h (4 Bft)
28.05.2020 16:48 18,5 C 27,8 C 39 % 1030,8 hPa 0,0 l/m 16,2 km/h (3 Bft) N-NO 15 2 min 4,1 UV-I 686 W/m 4,3 C 15,1 C 24,1 km/h (4 Bft)
28.05.2020 16:50 18,7 C 27,8 C 40 % 1030,7 hPa 0,0 l/m 9,7 km/h (2 Bft) N-NO 17 2 min 4,1 UV-I 682 W/m 4,8 C 17,3 C 14,5 km/h (3 Bft)
28.05.2020 16:52 18,7 C 26,1 C 40 % 1030,8 hPa 0,0 l/m 15,5 km/h (3 Bft) N-NO 26 2 min 4,1 UV-I 679 W/m 4,8 C 15,5 C 25,7 km/h (4 Bft)
28.05.2020 16:54 18,7 C 26,7 C 39 % 1030,8 hPa 0,0 l/m 19,1 km/h (3 Bft) NO 34 2 min 4,0 UV-I 674 W/m 4,5 C 14,7 C 27,4 km/h (4 Bft)
28.05.2020 16:56 18,8 C 26,7 C 40 % 1030,9 hPa 0,0 l/m 18,3 km/h (3 Bft) NO 38 2 min 4,0 UV-I 668 W/m 4,9 C 15,0 C 27,4 km/h (4 Bft)
28.05.2020 16:58 18,7 C 26,7 C 40 % 1030,8 hPa 0,0 l/m 11,1 km/h (2 Bft) N-NO 17 2 min 3,9 UV-I 663 W/m 4,8 C 16,8 C 20,9 km/h (4 Bft)
28.05.2020 17:00 18,7 C 27,2 C 39 % 1030,7 hPa 0,0 l/m 20,3 km/h (4 Bft) N-NW 340 2 min 3,9 UV-I 659 W/m 4,5 C 14,5 C 29,0 km/h (5 Bft)
28.05.2020 17:02 18,4 C 26,7 C 39 % 1030,8 hPa 0,0 l/m 23,8 km/h (4 Bft) N 5 2 min 3,8 UV-I 653 W/m 4,2 C 13,4 C 37,0 km/h (5 Bft)
28.05.2020 17:04 18,2 C 26,7 C 39 % 1030,8 hPa 0,0 l/m 23,7 km/h (4 Bft) NO 47 2 min 3,8 UV-I 648 W/m 4,0 C 13,2 C 33,8 km/h (5 Bft)
28.05.2020 17:06 18,1 C 26,7 C 40 % 1030,8 hPa 0,0 l/m 15,6 km/h (3 Bft) N 355 2 min 3,7 UV-I 643 W/m 4,3 C 14,8 C 24,1 km/h (4 Bft)
28.05.2020 17:08 18,1 C 26,7 C 39 % 1030,7 hPa 0,0 l/m 16,5 km/h (3 Bft) N-NO 13 2 min 3,7 UV-I 640 W/m 3,9 C 14,6 C 24,1 km/h (4 Bft)
28.05.2020 17:10 18,1 C 26,7 C 39 % 1030,8 hPa 0,0 l/m 16,2 km/h (3 Bft) N-NO 22 2 min 3,7 UV-I 636 W/m 3,9 C 14,6 C 22,5 km/h (4 Bft)
28.05.2020 17:12 18,2 C 26,1 C 40 % 1030,8 hPa 0,0 l/m 13,4 km/h (3 Bft) N 5 2 min 3,6 UV-I 630 W/m 4,4 C 15,5 C 20,9 km/h (4 Bft)
28.05.2020 17:14 18,2 C 26,7 C 39 % 1030,9 hPa 0,0 l/m 16,7 km/h (3 Bft) N-NO 20 2 min 3,6 UV-I 626 W/m 4,0 C 14,6 C 25,7 km/h (4 Bft)
28.05.2020 17:16 18,2 C 26,7 C 38 % 1030,9 hPa 0,0 l/m 17,6 km/h (3 Bft) N-NO 18 2 min 3,5 UV-I 622 W/m 3,7 C 14,4 C 27,4 km/h (4 Bft)
28.05.2020 17:18 18,2 C 26,1 C 37 % 1030,9 hPa 0,0 l/m 16,4 km/h (3 Bft) N 355 2 min 3,5 UV-I 617 W/m 3,3 C 14,7 C 24,1 km/h (4 Bft)
28.05.2020 17:20 18,2 C 26,1 C 37 % 1030,9 hPa 0,0 l/m 17,7 km/h (3 Bft) N 355 2 min 3,4 UV-I 614 W/m 3,3 C 14,4 C 29,0 km/h (5 Bft)
28.05.2020 17:22 18,1 C 26,1 C 38 % 1031,0 hPa 0,0 l/m 17,7 km/h (3 Bft) N 355 2 min 3,4 UV-I 608 W/m 3,6 C 14,3 C 25,7 km/h (4 Bft)
28.05.2020 17:24 17,9 C 25,6 C 40 % 1030,9 hPa 0,0 l/m 17,0 km/h (3 Bft) N-NW 342 2 min 3,3 UV-I 599 W/m 4,1 C 14,2 C 24,1 km/h (4 Bft)
28.05.2020 17:26 18,2 C 25,6 C 42 % 1030,9 hPa 0,0 l/m 13,1 km/h (3 Bft) N-NO 17 2 min 3,3 UV-I 599 W/m 5,1 C 15,6 C 22,5 km/h (4 Bft)
28.05.2020 17:28 18,3 C 26,1 C 39 % 1030,9 hPa 0,0 l/m 15,8 km/h (3 Bft) N-NO 13 2 min 3,3 UV-I 596 W/m 4,1 C 15,0 C 25,7 km/h (4 Bft)
28.05.2020 17:30 18,3 C 27,2 C 39 % 1030,9 hPa 0,0 l/m 18,7 km/h (3 Bft) N 360 2 min 3,2 UV-I 589 W/m 4,1 C 14,3 C 33,8 km/h (5 Bft)
28.05.2020 17:32 18,0 C 25,6 C 37 % 1030,9 hPa 0,0 l/m 27,0 km/h (4 Bft) N 349 0 min 3,2 UV-I 582 W/m 3,1 C 12,3 C 37,0 km/h (5 Bft)
28.05.2020 17:34 17,8 C 25,6 C 38 % 1030,9 hPa 0,0 l/m 22,1 km/h (4 Bft) N-NW 343 0 min 3,1 UV-I 576 W/m 3,3 C 12,9 C 30,6 km/h (5 Bft)
28.05.2020 17:36 17,8 C 25,0 C 39 % 1030,8 hPa 0,0 l/m 16,2 km/h (3 Bft) N 5 0 min 3,1 UV-I 572 W/m 3,7 C 14,3 C 24,1 km/h (4 Bft)
28.05.2020 17:38 17,8 C 25,0 C 39 % 1030,8 hPa 0,0 l/m 17,3 km/h (3 Bft) N 355 0 min 3,1 UV-I 567 W/m 3,7 C 14,0 C 25,7 km/h (4 Bft)
28.05.2020 17:40 17,7 C 25,6 C 40 % 1030,7 hPa 0,0 l/m 19,5 km/h (3 Bft) N 5 0 min 3,0 UV-I 561 W/m 3,9 C 13,3 C 29,0 km/h (5 Bft)
28.05.2020 17:42 17,9 C 25,6 C 40 % 1030,8 hPa 0,0 l/m 16,8 km/h (3 Bft) N 360 0 min 3,0 UV-I 556 W/m 4,1 C 14,2 C 29,0 km/h (5 Bft)
28.05.2020 17:44 17,8 C 25,0 C 38 % 1030,6 hPa 0,0 l/m 21,0 km/h (4 Bft) N-NO 15 0 min 2,9 UV-I 550 W/m 3,3 C 13,2 C 30,6 km/h (5 Bft)
28.05.2020 17:46 17,7 C 25,0 C 38 % 1030,6 hPa 0,0 l/m 20,9 km/h (4 Bft) N-NO 19 0 min 2,9 UV-I 544 W/m 3,2 C 13,0 C 27,4 km/h (4 Bft)
28.05.2020 17:48 17,8 C 25,6 C 40 % 1030,5 hPa 0,0 l/m 16,4 km/h (3 Bft) N 360 0 min 2,8 UV-I 540 W/m 4,0 C 14,2 C 32,2 km/h (5 Bft)
28.05.2020 17:50 17,9 C 25,6 C 37 % 1030,7 hPa 0,0 l/m 22,1 km/h (4 Bft) N-NO 19 0 min 2,8 UV-I 537 W/m 3,0 C 13,1 C 32,2 km/h (5 Bft)
28.05.2020 17:52 17,9 C 25,6 C 37 % 1030,5 hPa 0,0 l/m 18,0 km/h (3 Bft) N-NO 28 0 min 2,8 UV-I 532 W/m 3,0 C 13,9 C 24,1 km/h (4 Bft)
28.05.2020 17:54 17,9 C 26,1 C 38 % 1030,5 hPa 0,0 l/m 12,2 km/h (2 Bft) N 360 0 min 2,7 UV-I 527 W/m 3,4 C 15,5 C 20,9 km/h (4 Bft)
28.05.2020 17:56 17,8 C 26,1 C 36 % 1030,4 hPa 0,0 l/m 14,9 km/h (3 Bft) N-NO 30 0 min 2,7 UV-I 520 W/m 2,5 C 14,6 C 22,5 km/h (4 Bft)
28.05.2020 17:58 17,8 C 25,6 C 36 % 1030,4 hPa 0,0 l/m 9,9 km/h (2 Bft) N 5 0 min 2,6 UV-I 517 W/m 2,5 C 16,2 C 14,5 km/h (3 Bft)
28.05.2020 18:00 17,9 C 25,6 C 39 % 1030,4 hPa 0,0 l/m 11,4 km/h (2 Bft) N 5 0 min 2,6 UV-I 510 W/m 3,8 C 15,8 C 20,9 km/h (4 Bft)
28.05.2020 18:02 18,2 C 25,6 C 37 % 1030,4 hPa 0,0 l/m 17,9 km/h (3 Bft) N-NO 29 0 min 2,6 UV-I 507 W/m 3,3 C 14,3 C 27,4 km/h (4 Bft)
28.05.2020 18:04 18,1 C 25,0 C 33 % 1030,4 hPa 0,0 l/m 21,3 km/h (4 Bft) N-NO 26 0 min 2,5 UV-I 502 W/m 1,6 C 13,5 C 29,0 km/h (5 Bft)
28.05.2020 18:06 17,9 C 24,4 C 33 % 1030,3 hPa 0,0 l/m 18,6 km/h (3 Bft) NO 34 0 min 2,5 UV-I 499 W/m 1,4 C 13,8 C 25,7 km/h (4 Bft)
28.05.2020 18:08 17,9 C 23,9 C 37 % 1030,4 hPa 0,0 l/m 17,2 km/h (3 Bft) N-NO 22 0 min 2,4 UV-I 493 W/m 3,0 C 14,1 C 27,4 km/h (4 Bft)
28.05.2020 18:10 17,9 C 25,0 C 37 % 1030,5 hPa 0,0 l/m 16,6 km/h (3 Bft) N 360 0 min 2,4 UV-I 486 W/m 3,0 C 14,3 C 22,5 km/h (4 Bft)
28.05.2020 18:12 17,8 C 24,4 C 38 % 1030,5 hPa 0,0 l/m 16,8 km/h (3 Bft) N 355 0 min 2,4 UV-I 480 W/m 3,3 C 14,1 C 25,7 km/h (4 Bft)
28.05.2020 18:14 17,7 C 25,0 C 38 % 1030,5 hPa 0,0 l/m 17,2 km/h (3 Bft) NO 36 0 min 2,3 UV-I 475 W/m 3,2 C 13,9 C 22,5 km/h (4 Bft)
28.05.2020 18:16 17,7 C 24,4 C 39 % 1030,3 hPa 0,0 l/m 14,6 km/h (3 Bft) N 5 0 min 2,3 UV-I 469 W/m 3,6 C 14,6 C 22,5 km/h (4 Bft)
28.05.2020 18:18 17,6 C 23,3 C 39 % 1030,4 hPa 0,0 l/m 15,2 km/h (3 Bft) N-NW 345 0 min 2,2 UV-I 462 W/m 3,5 C 14,3 C 24,1 km/h (4 Bft)
28.05.2020 18:20 17,6 C 22,2 C 39 % 1030,4 hPa 0,0 l/m 16,3 km/h (3 Bft) O-NO 57 0 min 2,2 UV-I 457 W/m 3,5 C 14,0 C 24,1 km/h (4 Bft)
28.05.2020 18:22 17,6 C 21,1 C 40 % 1030,4 hPa 0,0 l/m 11,5 km/h (2 Bft) N 355 0 min 2,2 UV-I 451 W/m 3,8 C 15,4 C 19,3 km/h (3 Bft)
28.05.2020 18:24 17,6 C 16,1 C 39 % 1030,2 hPa 0,0 l/m 14,6 km/h (3 Bft) N 5 0 min 2,1 UV-I 444 W/m 3,5 C 14,5 C 20,9 km/h (4 Bft)
28.05.2020 18:26 17,6 C 15,6 C 39 % 1030,3 hPa 0,0 l/m 16,2 km/h (3 Bft) N-NO 28 0 min 2,1 UV-I 438 W/m 3,5 C 14,0 C 27,4 km/h (4 Bft)
28.05.2020 18:28 17,6 C 15,6 C 39 % 1030,2 hPa 0,0 l/m 18,1 km/h (3 Bft) N-NO 18 0 min 2,0 UV-I 434 W/m 3,5 C 13,5 C 30,6 km/h (5 Bft)
28.05.2020 18:30 17,5 C 15,6 C 38 % 1030,3 hPa 0,0 l/m 21,2 km/h (4 Bft) N-NO 28 0 min 2,0 UV-I 429 W/m 3,0 C 12,7 C 27,4 km/h (4 Bft)
28.05.2020 18:32 17,4 C 16,1 C 39 % 1030,3 hPa 0,0 l/m 16,3 km/h (3 Bft) N 5 0 min 2,0 UV-I 424 W/m 3,3 C 13,7 C 30,6 km/h (5 Bft)
28.05.2020 18:34 17,3 C 16,1 C 39 % 1030,2 hPa 0,0 l/m 17,8 km/h (3 Bft) N-NW 344 0 min 1,9 UV-I 417 W/m 3,2 C 13,2 C 24,1 km/h (4 Bft)
28.05.2020 18:36 17,3 C 16,1 C 39 % 1030,1 hPa 0,0 l/m 16,0 km/h (3 Bft) N 360 0 min 1,9 UV-I 411 W/m 3,2 C 13,7 C 22,5 km/h (4 Bft)
28.05.2020 18:38 17,2 C 16,1 C 39 % 1030,2 hPa 0,0 l/m 14,0 km/h (3 Bft) NO 38 0 min 1,8 UV-I 407 W/m 3,1 C 14,2 C 24,1 km/h (4 Bft)
28.05.2020 18:40 17,3 C 16,1 C 39 % 1030,2 hPa 0,0 l/m 20,5 km/h (4 Bft) N-NW 344 0 min 1,8 UV-I 401 W/m 3,2 C 12,6 C 27,4 km/h (4 Bft)
28.05.2020 18:42 17,2 C 17,2 C 38 % 1030,3 hPa 0,0 l/m 17,3 km/h (3 Bft) N-NO 19 0 min 1,8 UV-I 395 W/m 2,8 C 13,2 C 25,7 km/h (4 Bft)
28.05.2020 18:44 17,1 C 17,8 C 40 % 1030,2 hPa 0,0 l/m 18,2 km/h (3 Bft) N 5 0 min 1,7 UV-I 390 W/m 3,4 C 12,9 C 22,5 km/h (4 Bft)
28.05.2020 18:46 17,1 C 18,3 C 41 % 1030,2 hPa 0,0 l/m 13,4 km/h (3 Bft) N 5 0 min 1,7 UV-I 383 W/m 3,7 C 14,2 C 16,1 km/h (3 Bft)
28.05.2020 18:48 17,1 C 18,9 C 39 % 1030,1 hPa 0,0 l/m 15,7 km/h (3 Bft) N-NO 17 0 min 1,6 UV-I 378 W/m 3,0 C 13,5 C 25,7 km/h (4 Bft)
28.05.2020 18:50 17,2 C 19,4 C 40 % 1030,2 hPa 0,0 l/m 16,3 km/h (3 Bft) N-NO 26 0 min 1,6 UV-I 371 W/m 3,5 C 13,5 C 25,7 km/h (4 Bft)
28.05.2020 18:52 17,2 C 20,0 C 39 % 1030,2 hPa 0,0 l/m 14,5 km/h (3 Bft) N-NO 25 0 min 1,6 UV-I 367 W/m 3,1 C 14,0 C 24,1 km/h (4 Bft)
28.05.2020 18:54 17,2 C 21,1 C 39 % 1030,2 hPa 0,0 l/m 12,3 km/h (3 Bft) N 5 0 min 1,5 UV-I 359 W/m 3,1 C 14,7 C 17,7 km/h (3 Bft)
28.05.2020 18:56 17,1 C 21,7 C 40 % 1030,2 hPa 0,0 l/m 13,8 km/h (3 Bft) N 360 0 min 1,5 UV-I 353 W/m 3,4 C 14,1 C 22,5 km/h (4 Bft)
28.05.2020 18:58 17,1 C 21,7 C 41 % 1030,2 hPa 0,0 l/m 15,0 km/h (3 Bft) N-NO 28 0 min 1,5 UV-I 347 W/m 3,7 C 13,7 C 24,1 km/h (4 Bft)
28.05.2020 19:00 17,1 C 21,7 C 39 % 1030,2 hPa 0,0 l/m 17,5 km/h (3 Bft) N-NO 17 0 min 1,4 UV-I 344 W/m 3,0 C 13,1 C 22,5 km/h (4 Bft)
28.05.2020 19:02 16,9 C 21,7 C 39 % 1030,2 hPa 0,0 l/m 18,1 km/h (3 Bft) N 355 0 min 1,4 UV-I 339 W/m 2,9 C 12,7 C 25,7 km/h (4 Bft)
28.05.2020 19:04 16,8 C 21,7 C 40 % 1030,2 hPa 0,0 l/m 15,2 km/h (3 Bft) N-NO 23 0 min 1,4 UV-I 332 W/m 3,1 C 13,3 C 27,4 km/h (4 Bft)
28.05.2020 19:06 16,8 C 21,7 C 40 % 1030,1 hPa 0,0 l/m 14,0 km/h (3 Bft) N-NO 23 0 min 1,3 UV-I 327 W/m 3,1 C 13,7 C 22,5 km/h (4 Bft)
28.05.2020 19:08 16,7 C 21,7 C 39 % 1030,1 hPa 0,0 l/m 15,3 km/h (3 Bft) N 5 0 min 1,3 UV-I 321 W/m 2,7 C 13,2 C 24,1 km/h (4 Bft)
28.05.2020 19:10 16,7 C 21,7 C 39 % 1030,2 hPa 0,0 l/m 16,3 km/h (3 Bft) N-NO 28 0 min 1,3 UV-I 316 W/m 2,7 C 12,9 C 25,7 km/h (4 Bft)
28.05.2020 19:12 16,6 C 21,1 C 39 % 1030,1 hPa 0,0 l/m 19,3 km/h (3 Bft) N 5 0 min 1,2 UV-I 310 W/m 2,6 C 12,0 C 25,7 km/h (4 Bft)
28.05.2020 19:14 16,6 C 21,1 C 40 % 1030,1 hPa 0,0 l/m 13,1 km/h (3 Bft) N-NO 28 0 min 1,2 UV-I 304 W/m 2,9 C 13,7 C 20,9 km/h (4 Bft)
28.05.2020 19:16 16,6 C 21,1 C 40 % 1030,0 hPa 0,0 l/m 10,3 km/h (2 Bft) N-NO 21 0 min 1,2 UV-I 298 W/m 2,9 C 14,8 C 17,7 km/h (3 Bft)
28.05.2020 19:18 16,6 C 21,7 C 40 % 1030,0 hPa 0,0 l/m 11,1 km/h (2 Bft) N 355 0 min 1,1 UV-I 293 W/m 2,9 C 14,4 C 17,7 km/h (3 Bft)
28.05.2020 19:20 16,5 C 21,1 C 40 % 1030,1 hPa 0,0 l/m 8,8 km/h (2 Bft) N-NO 26 0 min 1,1 UV-I 287 W/m 2,9 C 15,3 C 14,5 km/h (3 Bft)
28.05.2020 19:22 16,5 C 21,1 C 41 % 1030,0 hPa 0,0 l/m 13,5 km/h (3 Bft) N 11 0 min 1,1 UV-I 281 W/m 3,2 C 13,5 C 25,7 km/h (4 Bft)
28.05.2020 19:24 16,4 C 20,0 C 41 % 1030,0 hPa 0,0 l/m 16,1 km/h (3 Bft) N-NO 12 0 min 1,1 UV-I 277 W/m 3,1 C 12,6 C 20,9 km/h (4 Bft)
28.05.2020 19:26 16,4 C 19,4 C 40 % 1030,1 hPa 0,0 l/m 16,2 km/h (3 Bft) N-NO 25 0 min 1,0 UV-I 271 W/m 2,8 C 12,5 C 25,7 km/h (4 Bft)
28.05.2020 19:28 16,3 C 18,9 C 40 % 1030,0 hPa 0,0 l/m 16,5 km/h (3 Bft) NO 43 0 min 1,0 UV-I 264 W/m 2,7 C 12,3 C 25,7 km/h (4 Bft)
28.05.2020 19:30 16,2 C 18,9 C 41 % 1030,0 hPa 0,0 l/m 14,4 km/h (3 Bft) N 10 0 min 1,0 UV-I 259 W/m 2,9 C 12,8 C 22,5 km/h (4 Bft)
28.05.2020 19:32 16,2 C 18,9 C 40 % 1030,1 hPa 0,0 l/m 17,2 km/h (3 Bft) N 5 0 min 0,9 UV-I 252 W/m 2,6 C 12,0 C 22,5 km/h (4 Bft)
28.05.2020 19:34 16,2 C 19,4 C 40 % 1030,1 hPa 0,0 l/m 18,3 km/h (3 Bft) N 360 0 min 0,9 UV-I 246 W/m 2,6 C 11,7 C 24,1 km/h (4 Bft)
28.05.2020 19:36 16,2 C 19,4 C 41 % 1030,1 hPa 0,0 l/m 12,5 km/h (3 Bft) N-NO 12 0 min 0,9 UV-I 242 W/m 2,9 C 13,5 C 19,3 km/h (3 Bft)
28.05.2020 19:38 16,1 C 19,4 C 41 % 1030,0 hPa 0,0 l/m 11,1 km/h (2 Bft) N 360 0 min 0,8 UV-I 235 W/m 2,8 C 13,9 C 17,7 km/h (3 Bft)
28.05.2020 19:40 16,1 C 19,4 C 41 % 1030,0 hPa 0,0 l/m 11,3 km/h (2 Bft) N 355 0 min 0,8 UV-I 228 W/m 2,8 C 13,8 C 16,1 km/h (3 Bft)
28.05.2020 19:42 16,1 C 19,4 C 41 % 1030,0 hPa 0,0 l/m 15,6 km/h (3 Bft) N 5 0 min 0,8 UV-I 221 W/m 2,8 C 12,3 C 20,9 km/h (4 Bft)
28.05.2020 19:44 16,1 C 19,4 C 41 % 1030,0 hPa 0,0 l/m 14,7 km/h (3 Bft) N 360 0 min 0,8 UV-I 215 W/m 2,8 C 12,6 C 20,9 km/h (4 Bft)
28.05.2020 19:46 16,0 C 18,9 C 41 % 1029,9 hPa 0,0 l/m 12,3 km/h (3 Bft) N-NW 347 0 min 0,7 UV-I 209 W/m 2,8 C 13,3 C 17,7 km/h (3 Bft)
28.05.2020 19:48 15,9 C 18,9 C 41 % 1029,9 hPa 0,0 l/m 14,7 km/h (3 Bft) N 11 0 min 0,7 UV-I 203 W/m 2,7 C 12,4 C 20,9 km/h (4 Bft)
28.05.2020 19:50 15,8 C 18,9 C 42 % 1029,9 hPa 0,0 l/m 10,4 km/h (2 Bft) N-NO 21 0 min 0,7 UV-I 196 W/m 2,9 C 13,8 C 16,1 km/h (3 Bft)
28.05.2020 19:52 15,8 C 18,9 C 42 % 1029,9 hPa 0,0 l/m 11,9 km/h (2 Bft) N-NO 22 0 min 0,7 UV-I 190 W/m 2,9 C 13,2 C 17,7 km/h (3 Bft)
28.05.2020 19:54 15,7 C 18,3 C 42 % 1030,0 hPa 0,0 l/m 13,9 km/h (3 Bft) N 360 0 min 0,6 UV-I 183 W/m 2,8 C 12,4 C 22,5 km/h (4 Bft)
28.05.2020 19:56 15,7 C 17,8 C 42 % 1030,0 hPa 0,0 l/m 15,0 km/h (3 Bft) N-NO 15 0 min 0,6 UV-I 177 W/m 2,8 C 12,0 C 22,5 km/h (4 Bft)
28.05.2020 19:58 15,6 C 16,7 C 42 % 1029,9 hPa 0,0 l/m 15,0 km/h (3 Bft) N-NO 28 0 min 0,6 UV-I 171 W/m 2,7 C 11,9 C 22,5 km/h (4 Bft)
28.05.2020 20:00 15,5 C 16,1 C 42 % 1029,9 hPa 0,0 l/m 16,2 km/h (3 Bft) N 360 0 min 0,6 UV-I 163 W/m 2,6 C 11,4 C 27,4 km/h (4 Bft)
28.05.2020 20:02 15,4 C 15,6 C 42 % 1029,9 hPa 0,0 l/m 11,8 km/h (2 Bft) N-NO 15 0 min 0,5 UV-I 157 W/m 2,6 C 12,8 C 20,9 km/h (4 Bft)
28.05.2020 20:04 15,4 C 15,0 C 42 % 1029,8 hPa 0,0 l/m 13,5 km/h (3 Bft) N-NO 25 0 min 0,5 UV-I 151 W/m 2,6 C 12,2 C 22,5 km/h (4 Bft)
28.05.2020 20:06 15,3 C 14,4 C 43 % 1029,9 hPa 0,0 l/m 9,6 km/h (2 Bft) N 360 0 min 0,5 UV-I 146 W/m 2,8 C 13,6 C 14,5 km/h (3 Bft)
28.05.2020 20:08 15,3 C 14,4 C 42 % 1029,9 hPa 0,0 l/m 16,1 km/h (3 Bft) N 5 0 min 0,5 UV-I 139 W/m 2,5 C 11,2 C 20,9 km/h (4 Bft)
28.05.2020 20:10 15,3 C 13,9 C 42 % 1029,8 hPa 0,0 l/m 15,2 km/h (3 Bft) N 351 0 min 0,2 UV-I 132 W/m 2,5 C 11,5 C 24,1 km/h (4 Bft)
28.05.2020 20:12 15,2 C 13,9 C 41 % 1029,8 hPa 0,0 l/m 17,9 km/h (3 Bft) N-NO 14 0 min 0,0 UV-I 124 W/m 2,0 C 10,6 C 25,7 km/h (4 Bft)
28.05.2020 20:14 15,2 C 13,9 C 42 % 1029,8 hPa 0,0 l/m 18,3 km/h (3 Bft) N-NO 15 0 min 0,0 UV-I 118 W/m 2,4 C 10,5 C 24,1 km/h (4 Bft)
28.05.2020 20:16 15,2 C 13,9 C 42 % 1029,8 hPa 0,0 l/m 17,6 km/h (3 Bft) N-NO 21 0 min 0,0 UV-I 108 W/m 2,4 C 10,6 C 24,1 km/h (4 Bft)
28.05.2020 20:18 15,1 C 13,9 C 42 % 1029,9 hPa 0,0 l/m 15,1 km/h (3 Bft) N-NW 344 0 min 0,0 UV-I 108 W/m 2,3 C 11,3 C 20,9 km/h (4 Bft)
28.05.2020 20:20 15,0 C 13,9 C 42 % 1029,9 hPa 0,0 l/m 12,1 km/h (2 Bft) N 355 0 min 0,0 UV-I 102 W/m 2,2 C 12,2 C 20,9 km/h (4 Bft)
28.05.2020 20:22 14,9 C 13,3 C 42 % 1029,8 hPa 0,0 l/m 12,2 km/h (2 Bft) N 5 0 min 0,0 UV-I 96 W/m 2,1 C 12,1 C 19,3 km/h (3 Bft)
28.05.2020 20:24 14,9 C 13,3 C 43 % 1029,8 hPa 0,0 l/m 9,8 km/h (2 Bft) N-NO 20 0 min 0,0 UV-I 91 W/m 2,4 C 13,1 C 19,3 km/h (3 Bft)
28.05.2020 20:26 14,8 C 13,3 C 43 % 1029,8 hPa 0,0 l/m 10,2 km/h (2 Bft) N 11 0 min 0,0 UV-I 56 W/m 2,3 C 12,8 C 19,3 km/h (3 Bft)
28.05.2020 20:28 14,6 C 12,8 C 43 % 1029,9 hPa 0,0 l/m 13,1 km/h (3 Bft) N 5 0 min 0,0 UV-I 27 W/m 2,2 C 11,4 C 20,9 km/h (4 Bft)
28.05.2020 20:30 14,6 C 12,8 C 43 % 1029,8 hPa 0,0 l/m 14,6 km/h (3 Bft) N-NO 12 0 min 0,0 UV-I 26 W/m 2,2 C 10,8 C 19,3 km/h (3 Bft)
28.05.2020 20:32 14,6 C 12,8 C 43 % 1029,8 hPa 0,0 l/m 7,5 km/h (2 Bft) N 10 0 min 0,0 UV-I 25 W/m 2,2 C 14,0 C 12,9 km/h (3 Bft)
28.05.2020 20:34 14,4 C 12,8 C 44 % 1029,8 hPa 0,0 l/m 11,8 km/h (2 Bft) N-NO 30 0 min 0,0 UV-I 25 W/m 2,3 C 11,7 C 17,7 km/h (3 Bft)
28.05.2020 20:36 14,4 C 12,8 C 44 % 1029,8 hPa 0,0 l/m 12,6 km/h (3 Bft) N-NO 16 0 min 0,0 UV-I 24 W/m 2,3 C 11,3 C 19,3 km/h (3 Bft)
28.05.2020 20:38 14,3 C 12,8 C 44 % 1029,8 hPa 0,0 l/m 11,1 km/h (2 Bft) N 5 0 min 0,0 UV-I 23 W/m 2,2 C 11,8 C 16,1 km/h (3 Bft)
28.05.2020 20:40 14,3 C 12,2 C 44 % 1029,8 hPa 0,0 l/m 10,8 km/h (2 Bft) N 360 0 min 0,0 UV-I 23 W/m 2,2 C 12,0 C 17,7 km/h (3 Bft)
28.05.2020 20:42 14,2 C 12,2 C 43 % 1029,8 hPa 0,0 l/m 16,9 km/h (3 Bft) N-NO 17 0 min 0,0 UV-I 22 W/m 1,8 C 9,6 C 24,1 km/h (4 Bft)
28.05.2020 20:44 14,3 C 12,8 C 44 % 1029,8 hPa 0,0 l/m 10,0 km/h (2 Bft) N-NO 28 0 min 0,0 UV-I 21 W/m 2,2 C 12,3 C 16,1 km/h (3 Bft)
28.05.2020 20:46 14,2 C 12,2 C 44 % 1029,8 hPa 0,0 l/m 11,9 km/h (2 Bft) N 5 0 min 0,0 UV-I 21 W/m 2,1 C 11,4 C 17,7 km/h (3 Bft)
28.05.2020 20:48 14,2 C 12,2 C 44 % 1029,8 hPa 0,0 l/m 12,4 km/h (3 Bft) N 355 0 min 0,0 UV-I 19 W/m 2,1 C 11,2 C 17,7 km/h (3 Bft)
28.05.2020 20:50 14,2 C 12,2 C 44 % 1029,9 hPa 0,0 l/m 11,5 km/h (2 Bft) N 9 0 min 0,0 UV-I 19 W/m 2,1 C 11,6 C 16,1 km/h (3 Bft)
28.05.2020 20:52 14,1 C 12,2 C 44 % 1029,9 hPa 0,0 l/m 11,3 km/h (2 Bft) N-NO 17 0 min 0,0 UV-I 19 W/m 2,0 C 11,5 C 17,7 km/h (3 Bft)
28.05.2020 20:54 14,1 C 12,2 C 44 % 1029,8 hPa 0,0 l/m 12,3 km/h (3 Bft) N-NO 20 0 min 0,0 UV-I 18 W/m 2,0 C 11,1 C 19,3 km/h (3 Bft)
28.05.2020 20:56 14,1 C 12,2 C 44 % 1029,9 hPa 0,0 l/m 10,2 km/h (2 Bft) N 5 0 min 0,0 UV-I 18 W/m 2,0 C 12,0 C 16,1 km/h (3 Bft)
28.05.2020 20:58 13,9 C 12,2 C 45 % 1029,9 hPa 0,0 l/m 6,6 km/h (2 Bft) N 355 0 min 0,0 UV-I 17 W/m 2,2 C 13,8 C 12,9 km/h (3 Bft)
28.05.2020 21:00 13,8 C 11,7 C 46 % 1029,8 hPa 0,0 l/m 8,2 km/h (2 Bft) N 10 0 min 0,0 UV-I 16 W/m 2,4 C 12,7 C 12,9 km/h (3 Bft)
28.05.2020 21:02 13,7 C 11,7 C 45 % 1029,8 hPa 0,0 l/m 9,5 km/h (2 Bft) N 360 0 min 0,0 UV-I 16 W/m 2,0 C 11,9 C 17,7 km/h (3 Bft)
28.05.2020 21:04 13,7 C 11,7 C 45 % 1029,8 hPa 0,0 l/m 12,7 km/h (3 Bft) N 5 0 min 0,0 UV-I 14 W/m 2,0 C 10,5 C 20,9 km/h (4 Bft)
28.05.2020 21:06 13,6 C 11,7 C 45 % 1029,9 hPa 0,0 l/m 9,8 km/h (2 Bft) N 5 0 min 0,0 UV-I 13 W/m 1,9 C 11,7 C 19,3 km/h (3 Bft)
28.05.2020 21:08 13,6 C 11,1 C 46 % 1029,9 hPa 0,0 l/m 10,1 km/h (2 Bft) N 360 0 min 0,0 UV-I 12 W/m 2,2 C 11,5 C 14,5 km/h (3 Bft)
28.05.2020 21:10 13,4 C 11,1 C 45 % 1029,9 hPa 0,0 l/m 9,5 km/h (2 Bft) N 360 0 min 0,0 UV-I 11 W/m 1,7 C 11,6 C 16,1 km/h (3 Bft)
28.05.2020 21:12 13,4 C 11,1 C 45 % 1029,9 hPa 0,0 l/m 10,6 km/h (2 Bft) N 5 0 min 0,0 UV-I 10 W/m 1,7 C 11,1 C 17,7 km/h (3 Bft)
28.05.2020 21:14 13,3 C 10,6 C 46 % 1030,0 hPa 0,0 l/m 6,9 km/h (2 Bft) N 5 0 min 0,0 UV-I 9 W/m 1,9 C 13,0 C 9,7 km/h (2 Bft)
28.05.2020 21:16 13,2 C 10,6 C 46 % 1030,0 hPa 0,0 l/m 10,2 km/h (2 Bft) N 5 0 min 0,0 UV-I 9 W/m 1,8 C 11,0 C 14,5 km/h (3 Bft)
28.05.2020 21:18 13,2 C 10,6 C 46 % 1030,0 hPa 0,0 l/m 11,3 km/h (2 Bft) N-NW 346 0 min 0,0 UV-I 9 W/m 1,8 C 10,5 C 16,1 km/h (3 Bft)
28.05.2020 21:20 13,2 C 11,1 C 46 % 1030,0 hPa 0,0 l/m 11,3 km/h (2 Bft) N 5 0 min 0,0 UV-I 7 W/m 1,8 C 10,5 C 16,1 km/h (3 Bft)
28.05.2020 21:22 13,3 C 11,1 C 46 % 1030,0 hPa 0,0 l/m 8,6 km/h (2 Bft) N 355 0 min 0,0 UV-I 7 W/m 1,9 C 12,0 C 14,5 km/h (3 Bft)
28.05.2020 21:24 13,2 C 10,6 C 46 % 1030,1 hPa 0,0 l/m 7,0 km/h (2 Bft) N 5 0 min 0,0 UV-I 7 W/m 1,8 C 12,8 C 11,3 km/h (2 Bft)
28.05.2020 21:26 13,1 C 10,6 C 47 % 1030,2 hPa 0,0 l/m 7,5 km/h (2 Bft) N-NO 20 0 min 0,0 UV-I 5 W/m 2,0 C 12,4 C 16,1 km/h (3 Bft)
28.05.2020 21:28 12,8 C 10,0 C 47 % 1030,1 hPa 0,0 l/m 7,4 km/h (2 Bft) N 5 0 min 0,0 UV-I 5 W/m 1,8 C 12,2 C 12,9 km/h (3 Bft)
28.05.2020 21:30 12,7 C 10,0 C 48 % 1030,1 hPa 0,0 l/m 8,8 km/h (2 Bft) N-NO 16 0 min 0,0 UV-I 4 W/m 2,0 C 11,2 C 16,1 km/h (3 Bft)
28.05.2020 21:32 12,6 C 9,4 C 48 % 1030,1 hPa 0,0 l/m 7,0 km/h (2 Bft) N 355 0 min 0,0 UV-I 0 W/m 1,9 C 12,2 C 11,3 km/h (2 Bft)
28.05.2020 21:34 12,4 C 8,9 C 49 % 1030,2 hPa 0,0 l/m 7,5 km/h (2 Bft) N 5 0 min 0,0 UV-I 0 W/m 2,0 C 11,7 C 12,9 km/h (3 Bft)
28.05.2020 21:36 12,3 C 8,9 C 49 % 1030,2 hPa 0,0 l/m 7,9 km/h (2 Bft) N-NO 19 0 min 0,0 UV-I 0 W/m 1,9 C 11,3 C 11,3 km/h (2 Bft)
28.05.2020 21:38 12,2 C 8,9 C 50 % 1030,2 hPa 0,0 l/m 8,4 km/h (2 Bft) N-NO 17 0 min 0,0 UV-I 0 W/m 2,1 C 10,9 C 12,9 km/h (3 Bft)
28.05.2020 21:40 12,1 C 8,3 C 50 % 1030,2 hPa 0,0 l/m 8,5 km/h (2 Bft) N-NO 25 0 min 0,0 UV-I 0 W/m 2,0 C 10,8 C 12,9 km/h (3 Bft)
28.05.2020 21:42 12,0 C 8,3 C 50 % 1030,2 hPa 0,0 l/m 7,3 km/h (2 Bft) N-NO 20 0 min 0,0 UV-I 0 W/m 1,9 C 11,4 C 12,9 km/h (3 Bft)
28.05.2020 21:44 11,9 C 8,3 C 51 % 1030,2 hPa 0,0 l/m 7,8 km/h (2 Bft) N-NO 12 0 min 0,0 UV-I 0 W/m 2,1 C 11,0 C 11,3 km/h (2 Bft)
28.05.2020 21:46 11,8 C 8,3 C 51 % 1030,2 hPa 0,0 l/m 8,0 km/h (2 Bft) N 5 0 min 0,0 UV-I 0 W/m 2,0 C 10,7 C 12,9 km/h (3 Bft)
28.05.2020 21:48 11,8 C 8,3 C 51 % 1030,2 hPa 0,0 l/m 8,3 km/h (2 Bft) N 360 0 min 0,0 UV-I 0 W/m 2,0 C 10,6 C 11,3 km/h (2 Bft)
28.05.2020 21:50 11,9 C 8,9 C 50 % 1030,1 hPa 0,0 l/m 8,6 km/h (2 Bft) N-NO 17 0 min 0,0 UV-I 0 W/m 1,8 C 10,5 C 12,9 km/h (3 Bft)
28.05.2020 21:52 11,9 C 8,9 C 50 % 1030,2 hPa 0,0 l/m 6,5 km/h (2 Bft) N 11 0 min 0,0 UV-I 0 W/m 1,8 C 11,9 C 9,7 km/h (2 Bft)
28.05.2020 21:54 11,9 C 8,9 C 50 % 1030,3 hPa 0,0 l/m 7,1 km/h (2 Bft) N 355 0 min 0,0 UV-I 0 W/m 1,8 C 11,4 C 9,7 km/h (2 Bft)
28.05.2020 21:56 11,8 C 8,3 C 51 % 1030,3 hPa 0,0 l/m 6,8 km/h (2 Bft) N-NO 13 0 min 0,0 UV-I 0 W/m 2,0 C 11,5 C 8,0 km/h (2 Bft)
28.05.2020 21:58 11,8 C 8,3 C 51 % 1030,2 hPa 0,0 l/m 6,7 km/h (2 Bft) N 5 0 min 0,0 UV-I 0 W/m 2,0 C 11,6 C 9,7 km/h (2 Bft)
28.05.2020 22:00 11,8 C 8,3 C 51 % 1030,2 hPa 0,0 l/m 6,9 km/h (2 Bft) N 360 0 min 0,0 UV-I 0 W/m 2,0 C 11,5 C 9,7 km/h (2 Bft)
28.05.2020 22:02 11,8 C 8,3 C 51 % 1030,2 hPa 0,0 l/m 9,1 km/h (2 Bft) N-NO 12 0 min 0,0 UV-I 0 W/m 2,0 C 10,1 C 14,5 km/h (3 Bft)
28.05.2020 22:04 11,8 C 8,3 C 51 % 1030,2 hPa 0,0 l/m 9,5 km/h (2 Bft) N 355 0 min 0,0 UV-I 0 W/m 2,0 C 9,9 C 14,5 km/h (3 Bft)
28.05.2020 22:06 11,8 C 8,3 C 51 % 1030,3 hPa 0,0 l/m 9,6 km/h (2 Bft) N-NW 347 0 min 0,0 UV-I 0 W/m 2,0 C 9,8 C 14,5 km/h (3 Bft)
28.05.2020 22:08 11,8 C 8,9 C 51 % 1030,3 hPa 0,0 l/m 9,7 km/h (2 Bft) N 355 0 min 0,0 UV-I 0 W/m 2,0 C 9,7 C 16,1 km/h (3 Bft)
28.05.2020 22:10 11,8 C 8,9 C 51 % 1030,2 hPa 0,0 l/m 7,9 km/h (2 Bft) N-NO 16 0 min 0,0 UV-I 0 W/m 2,0 C 10,8 C 16,1 km/h (3 Bft)
28.05.2020 22:12 11,7 C 8,9 C 52 % 1030,3 hPa 0,0 l/m 7,2 km/h (2 Bft) N-NO 21 0 min 0,0 UV-I 0 W/m 2,2 C 11,2 C 11,3 km/h (2 Bft)
28.05.2020 22:14 11,7 C 8,3 C 52 % 1030,3 hPa 0,0 l/m 9,3 km/h (2 Bft) N 5 0 min 0,0 UV-I 0 W/m 2,2 C 9,9 C 14,5 km/h (3 Bft)
28.05.2020 22:16 11,6 C 8,3 C 52 % 1030,4 hPa 0,0 l/m 8,7 km/h (2 Bft) N-NO 29 0 min 0,0 UV-I 0 W/m 2,1 C 10,1 C 14,5 km/h (3 Bft)
28.05.2020 22:18 11,6 C 8,3 C 53 % 1030,3 hPa 0,0 l/m 7,4 km/h (2 Bft) N 360 0 min 0,0 UV-I 0 W/m 2,4 C 10,9 C 12,9 km/h (3 Bft)
28.05.2020 22:20 11,4 C 8,3 C 53 % 1030,3 hPa 0,0 l/m 9,1 km/h (2 Bft) N 5 0 min 0,0 UV-I 0 W/m 2,2 C 9,6 C 14,5 km/h (3 Bft)
28.05.2020 22:22 11,3 C 8,3 C 53 % 1030,3 hPa 0,0 l/m 7,4 km/h (2 Bft) N 5 0 min 0,0 UV-I 0 W/m 2,1 C 10,6 C 12,9 km/h (3 Bft)
28.05.2020 22:24 11,3 C 7,8 C 53 % 1030,4 hPa 0,0 l/m 7,6 km/h (2 Bft) N-NO 13 0 min 0,0 UV-I 0 W/m 2,1 C 10,5 C 11,3 km/h (2 Bft)
28.05.2020 22:26 11,3 C 7,8 C 54 % 1030,4 hPa 0,0 l/m 7,8 km/h (2 Bft) N 5 0 min 0,0 UV-I 0 W/m 2,3 C 10,3 C 14,5 km/h (3 Bft)
28.05.2020 22:28 11,2 C 7,8 C 54 % 1030,3 hPa 0,0 l/m 8,3 km/h (2 Bft) N-NO 18 0 min 0,0 UV-I 0 W/m 2,2 C 9,9 C 12,9 km/h (3 Bft)
28.05.2020 22:30 11,2 C 7,8 C 54 % 1030,3 hPa 0,0 l/m 7,7 km/h (2 Bft) N-NO 13 0 min 0,0 UV-I 0 W/m 2,2 C 10,3 C 11,3 km/h (2 Bft)
28.05.2020 22:32 11,2 C 8,3 C 54 % 1030,4 hPa 0,0 l/m 8,5 km/h (2 Bft) N 11 0 min 0,0 UV-I 0 W/m 2,2 C 9,8 C 12,9 km/h (3 Bft)
28.05.2020 22:34 11,2 C 8,3 C 54 % 1030,3 hPa 0,0 l/m 8,6 km/h (2 Bft) N-NW 341 0 min 0,0 UV-I 0 W/m 2,2 C 9,7 C 16,1 km/h (3 Bft)
28.05.2020 22:36 11,3 C 8,3 C 54 % 1030,3 hPa 0,0 l/m 8,8 km/h (2 Bft) N-NO 15 0 min 0,0 UV-I 0 W/m 2,3 C 9,7 C 16,1 km/h (3 Bft)
28.05.2020 22:38 11,3 C 8,3 C 54 % 1030,3 hPa 0,0 l/m 8,8 km/h (2 Bft) N-NO 32 0 min 0,0 UV-I 0 W/m 2,3 C 9,7 C 14,5 km/h (3 Bft)
28.05.2020 22:40 11,2 C 8,3 C 54 % 1030,2 hPa 0,0 l/m 7,0 km/h (2 Bft) N 9 0 min 0,0 UV-I 0 W/m 2,2 C 10,8 C 11,3 km/h (2 Bft)
28.05.2020 22:42 11,2 C 8,3 C 54 % 1030,2 hPa 0,0 l/m 8,9 km/h (2 Bft) N-NO 15 0 min 0,0 UV-I 0 W/m 2,2 C 9,6 C 14,5 km/h (3 Bft)
28.05.2020 22:44 11,2 C 8,3 C 54 % 1030,3 hPa 0,0 l/m 7,8 km/h (2 Bft) N-NO 26 0 min 0,0 UV-I 0 W/m 2,2 C 10,2 C 14,5 km/h (3 Bft)
28.05.2020 22:46 11,0 C 8,3 C 55 % 1030,2 hPa 0,0 l/m 7,3 km/h (2 Bft) N-NO 16 0 min 0,0 UV-I 0 W/m 2,3 C 10,4 C 12,9 km/h (3 Bft)
28.05.2020 22:48 10,9 C 7,8 C 55 % 1030,1 hPa 0,0 l/m 7,4 km/h (2 Bft) N-NO 15 0 min 0,0 UV-I 0 W/m 2,2 C 10,2 C 14,5 km/h (3 Bft)
28.05.2020 22:50 10,8 C 7,2 C 56 % 1030,1 hPa 0,0 l/m 6,0 km/h (2 Bft) N-NO 13 0 min 0,0 UV-I 0 W/m 2,4 C 10,8 C 11,3 km/h (2 Bft)
28.05.2020 22:52 10,7 C 7,2 C 56 % 1030,1 hPa 0,0 l/m 6,4 km/h (2 Bft) N 9 0 min 0,0 UV-I 0 W/m 2,3 C 10,7 C 8,0 km/h (2 Bft)
28.05.2020 22:54 10,6 C 6,7 C 56 % 1030,3 hPa 0,0 l/m 7,5 km/h (2 Bft) N 5 0 min 0,0 UV-I 0 W/m 2,2 C 9,8 C 11,3 km/h (2 Bft)
28.05.2020 22:56 10,6 C 7,2 C 57 % 1030,2 hPa 0,0 l/m 7,2 km/h (2 Bft) N-NO 14 0 min 0,0 UV-I 0 W/m 2,4 C 10,0 C 11,3 km/h (2 Bft)
28.05.2020 22:58 10,6 C 7,2 C 56 % 1030,2 hPa 0,0 l/m 7,8 km/h (2 Bft) N-NO 14 0 min 0,0 UV-I 0 W/m 2,2 C 9,6 C 12,9 km/h (3 Bft)
28.05.2020 23:00 10,6 C 7,8 C 56 % 1030,1 hPa 0,0 l/m 6,7 km/h (2 Bft) N-NO 15 0 min 0,0 UV-I 0 W/m 2,2 C 10,4 C 11,3 km/h (2 Bft)
28.05.2020 23:02 10,6 C 7,2 C 57 % 1030,1 hPa 0,0 l/m 5,3 km/h (1 Bft) N-NO 30 0 min 0,0 UV-I 0 W/m 2,4 C 10,6 C 8,0 km/h (2 Bft)
28.05.2020 23:04 10,5 C 7,2 C 57 % 1030,2 hPa 0,0 l/m 5,7 km/h (1 Bft) N-NO 26 0 min 0,0 UV-I 0 W/m 2,3 C 10,5 C 8,0 km/h (2 Bft)
28.05.2020 23:06 10,4 C 6,7 C 58 % 1030,1 hPa 0,0 l/m 6,6 km/h (2 Bft) N-NO 17 0 min 0,0 UV-I 0 W/m 2,5 C 10,3 C 9,7 km/h (2 Bft)
28.05.2020 23:08 10,3 C 6,7 C 58 % 1030,1 hPa 0,0 l/m 6,9 km/h (2 Bft) N-NO 14 0 min 0,0 UV-I 0 W/m 2,4 C 9,9 C 11,3 km/h (2 Bft)
28.05.2020 23:10 10,2 C 6,7 C 58 % 1030,2 hPa 0,0 l/m 7,7 km/h (2 Bft) N-NO 32 0 min 0,0 UV-I 0 W/m 2,3 C 9,3 C 12,9 km/h (3 Bft)
28.05.2020 23:12 10,3 C 6,7 C 58 % 1030,1 hPa 0,0 l/m 7,3 km/h (2 Bft) N-NO 33 0 min 0,0 UV-I 0 W/m 2,4 C 9,7 C 12,9 km/h (3 Bft)
28.05.2020 23:14 10,3 C 6,7 C 58 % 1030,1 hPa 0,0 l/m 6,5 km/h (2 Bft) N-NO 31 0 min 0,0 UV-I 0 W/m 2,4 C 10,3 C 8,0 km/h (2 Bft)
28.05.2020 23:16 10,2 C 6,7 C 58 % 1030,1 hPa 0,0 l/m 8,9 km/h (2 Bft) N-NO 33 0 min 0,0 UV-I 0 W/m 2,3 C 8,5 C 12,9 km/h (3 Bft)
28.05.2020 23:18 10,3 C 6,7 C 58 % 1030,1 hPa 0,0 l/m 7,2 km/h (2 Bft) NO 42 0 min 0,0 UV-I 0 W/m 2,4 C 9,7 C 11,3 km/h (2 Bft)
28.05.2020 23:20 10,2 C 6,1 C 58 % 1030,1 hPa 0,0 l/m 5,5 km/h (1 Bft) NO 34 0 min 0,0 UV-I 0 W/m 2,3 C 10,2 C 8,0 km/h (2 Bft)
28.05.2020 23:22 10,2 C 6,1 C 59 % 1030,2 hPa 0,0 l/m 4,9 km/h (1 Bft) N-NO 16 0 min 0,0 UV-I 0 W/m 2,6 C 10,2 C 6,4 km/h (2 Bft)
28.05.2020 23:24 10,1 C 5,6 C 59 % 1030,2 hPa 0,0 l/m 4,6 km/h (1 Bft) N-NO 26 0 min 0,0 UV-I 0 W/m 2,5 C 10,1 C 6,4 km/h (2 Bft)
28.05.2020 23:26 9,9 C 5,6 C 59 % 1030,2 hPa 0,0 l/m 4,4 km/h (1 Bft) N-NO 22 0 min 0,0 UV-I 0 W/m 2,3 C 9,9 C 6,4 km/h (2 Bft)
28.05.2020 23:28 9,7 C 5,6 C 60 % 1030,2 hPa 0,0 l/m 6,3 km/h (2 Bft) N-NO 22 0 min 0,0 UV-I 0 W/m 2,3 C 9,7 C 8,0 km/h (2 Bft)
28.05.2020 23:30 9,6 C 5,0 C 60 % 1030,1 hPa 0,0 l/m 6,4 km/h (2 Bft) N-NO 19 0 min 0,0 UV-I 0 W/m 2,2 C 9,6 C 8,0 km/h (2 Bft)
28.05.2020 23:32 9,6 C 5,0 C 60 % 1030,2 hPa 0,0 l/m 5,8 km/h (2 Bft) N-NO 22 0 min 0,0 UV-I 0 W/m 2,2 C 9,6 C 8,0 km/h (2 Bft)
28.05.2020 23:34 9,6 C 5,0 C 60 % 1030,2 hPa 0,0 l/m 6,6 km/h (2 Bft) N-NO 26 0 min 0,0 UV-I 0 W/m 2,2 C 9,5 C 11,3 km/h (2 Bft)
28.05.2020 23:36 9,6 C 5,0 C 60 % 1030,3 hPa 0,0 l/m 4,1 km/h (1 Bft) N-NO 26 0 min 0,0 UV-I 0 W/m 2,2 C 9,6 C 6,4 km/h (2 Bft)
28.05.2020 23:38 9,6 C 5,0 C 60 % 1030,3 hPa 0,0 l/m 1,9 km/h (1 Bft) N-NO 26 0 min 0,0 UV-I 0 W/m 2,2 C 9,6 C 3,2 km/h (1 Bft)
28.05.2020 23:40 9,4 C 5,0 C 60 % 1030,4 hPa 0,0 l/m 1,5 km/h (1 Bft) N-NO 26 0 min 0,0 UV-I 0 W/m 2,0 C 9,4 C 3,2 km/h (1 Bft)
28.05.2020 23:42 9,5 C 4,4 C 60 % 1030,3 hPa 0,0 l/m 2,2 km/h (1 Bft) N-NO 26 0 min 0,0 UV-I 0 W/m 2,1 C 9,5 C 4,8 km/h (1 Bft)
28.05.2020 23:44 9,6 C 4,4 C 60 % 1030,4 hPa 0,0 l/m 1,9 km/h (1 Bft) N-NO 26 0 min 0,0 UV-I 0 W/m 2,2 C 9,6 C 4,8 km/h (1 Bft)
28.05.2020 23:46 9,6 C 4,4 C 60 % 1030,4 hPa 0,0 l/m 1,8 km/h (1 Bft) N-NO 26 0 min 0,0 UV-I 0 W/m 2,2 C 9,6 C 4,8 km/h (1 Bft)
28.05.2020 23:48 9,4 C 4,4 C 61 % 1030,4 hPa 0,0 l/m 0,8 km/h (0 Bft) N-NO 26 0 min 0,0 UV-I 0 W/m 2,3 C 9,4 C 1,6 km/h (1 Bft)
28.05.2020 23:50 9,1 C 4,4 C 62 % 1030,4 hPa 0,0 l/m 0,4 km/h (0 Bft) N-NO 26 0 min 0,0 UV-I 0 W/m 2,2 C 9,1 C 1,6 km/h (1 Bft)
28.05.2020 23:52 8,9 C 4,4 C 63 % 1030,5 hPa 0,0 l/m 0,5 km/h (0 Bft) N-NO 26 0 min 0,0 UV-I 0 W/m 2,2 C 8,9 C 1,6 km/h (1 Bft)
28.05.2020 23:54 8,8 C 4,4 C 63 % 1030,4 hPa 0,0 l/m 1,1 km/h (1 Bft) N-NO 26 0 min 0,0 UV-I 0 W/m 2,2 C 8,8 C 3,2 km/h (1 Bft)
28.05.2020 23:56 8,8 C 4,4 C 63 % 1030,5 hPa 0,0 l/m 0,5 km/h (0 Bft) N-NO 26 0 min 0,0 UV-I 0 W/m 2,2 C 8,8 C 3,2 km/h (1 Bft)
28.05.2020 23:58 8,9 C 4,4 C 64 % 1030,4 hPa 0,0 l/m 1,5 km/h (1 Bft) N-NO 26 0 min 0,0 UV-I 0 W/m 2,5 C 8,9 C 3,2 km/h (1 Bft)
28.05.2020 23:59 9,0 C 3,9 C 64 % 1030,5 hPa 0,0 l/m 0,0 km/h (0 Bft) N-NO 22 0 min 0,0 UV-I 0 W/m 2,6 C 9,0 C 1,6 km/h (1 Bft)
_ Min-Zeit 06:11 23:59 18:04 20:04 - 01:09 - - - - - 18:06 05:55 01:17
Minimum _ 7,8 C 3,9 C 33 % 1029,8 hPa - 0,0 km/h (0 Bft) - - - - - 1,4 C 1,8 C 0,0 km/h (0 Bft)
_ Max-Zeit 15:22 15:20 03:14 00:01 00:00 12:30 - - 10:26 13:28 13:30 02:53 16:50 11:04
Maximum _ 19,1 C 27,8 C 84 % 1033,2 hPa 0,0 l/m 27,0 km/h
N-NO (4 Bft)
- - 2 min 6,7 UV-I 907 W/m 8,8 C 17,3 C 37,0 km/h
N-NO (5 Bft)
Durchschnitt _ 13,6 C 15,3 C 60 % 1031,7 hPa #0,0 l/m 14,0 km/h (3 Bft) N - #7:06 h 3,8 UV-I 505 W/m 5,3 C 10,3 C 20,4 km/h (4 Bft)